[[{"header":{"parameterUnit":"m.s-1","parameterCategory":1,"la1":30.6,"la2":29.2853,"lo1":-89.7004,"lo2":-87.6739,"dy":0.0162,"dx":0.0183,"nx":112,"ny":82,"refTime":"2024-08-30T18:00:00:Z","depth":0,"parameterNumber":2,"parameterNumberName":"U-component_of_WINDS"},"data":[0.0,0.0,0.0,0.0,0.0,0.0,0.0,0.0,0.0,0.0,0.0,0.0,0.0,0.0,0.0,0.0,0.0,0.0,0.0,0.0,0.0,0.0,0.0,0.0,0.0,0.0,0.0,0.0,0.0,0.0,0.0,0.0,0.0,0.0,0.0,0.0,0.0,0.0,0.0,0.0,0.0,0.0,0.0,0.0,0.0,0.0,0.0,0.0,0.0,0.0,0.0,0.0,0.0,0.0,0.0,0.0,0.0,0.0,0.0,0.0,0.0,0.0,0.0,0.0,0.0,0.0,0.0,0.0,0.0,0.0,0.0,0.0,0.0,0.0,0.0,0.0,0.0,0.0,0.0,0.0,0.0,0.0,0.0,0.0,0.0,0.0,0.0,0.0,0.0,0.0,-3.7418,-3.813,-3.9262,-3.9915,-3.9813,-3.9334,-3.8507,-3.723,0.0,0.0,0.0,0.0,0.0,0.0,0.0,0.0,0.0,0.0,0.0,0.0,0.0,0.0,0.0,0.0,0.0,0.0,0.0,0.0,0.0,0.0,0.0,0.0,0.0,0.0,0.0,0.0,0.0,0.0,0.0,0.0,0.0,0.0,0.0,0.0,0.0,0.0,0.0,0.0,0.0,0.0,0.0,0.0,0.0,0.0,0.0,0.0,0.0,0.0,0.0,0.0,0.0,0.0,0.0,0.0,0.0,0.0,0.0,0.0,0.0,0.0,0.0,0.0,0.0,0.0,0.0,0.0,0.0,0.0,0.0,0.0,0.0,0.0,0.0,0.0,0.0,0.0,0.0,0.0,0.0,0.0,0.0,0.0,0.0,0.0,0.0,0.0,0.0,0.0,0.0,0.0,0.0,0.0,0.0,0.0,0.0,0.0,0.0,0.0,0.0,0.0,0.0,0.0,-3.691,-3.8072,-3.8884,-3.9102,-3.8536,-3.8405,-3.781,-3.6533,0.0,0.0,0.0,0.0,0.0,0.0,0.0,0.0,0.0,0.0,0.0,0.0,0.0,0.0,0.0,0.0,0.0,0.0,0.0,0.0,0.0,0.0,0.0,0.0,0.0,0.0,0.0,0.0,0.0,0.0,0.0,0.0,0.0,0.0,0.0,0.0,0.0,0.0,0.0,0.0,0.0,0.0,0.0,0.0,0.0,0.0,0.0,0.0,0.0,0.0,0.0,0.0,0.0,0.0,0.0,0.0,0.0,0.0,0.0,0.0,0.0,0.0,0.0,0.0,0.0,0.0,0.0,0.0,0.0,0.0,0.0,0.0,0.0,0.0,0.0,0.0,0.0,0.0,0.0,0.0,0.0,0.0,0.0,0.0,0.0,0.0,0.0,0.0,0.0,0.0,0.0,0.0,0.0,0.0,0.0,0.0,0.0,0.0,0.0,0.0,0.0,0.0,0.0,-3.6504,-3.7201,-3.8101,-3.8478,-3.8536,-3.8231,-3.8202,-3.7665,-3.6388,-3.4791,0.0,0.0,0.0,0.0,0.0,0.0,0.0,0.0,0.0,0.0,0.0,0.0,0.0,0.0,0.0,0.0,0.0,0.0,0.0,0.0,0.0,0.0,0.0,0.0,0.0,0.0,0.0,0.0,0.0,0.0,0.0,0.0,0.0,0.0,0.0,0.0,0.0,0.0,0.0,0.0,0.0,0.0,0.0,0.0,0.0,0.0,0.0,0.0,0.0,0.0,0.0,0.0,0.0,0.0,0.0,0.0,0.0,0.0,0.0,0.0,0.0,0.0,0.0,0.0,0.0,0.0,0.0,0.0,0.0,0.0,0.0,0.0,0.0,0.0,0.0,0.0,0.0,0.0,0.0,0.0,0.0,0.0,0.0,0.0,0.0,0.0,0.0,0.0,0.0,0.0,0.0,0.0,0.0,0.0,0.0,0.0,0.0,0.0,0.0,0.0,0.0,0.0,-3.7854,-3.7926,-3.8391,-3.8289,-3.8202,-3.8202,-3.7926,-3.7346,-3.6373,-3.4385,0.0,0.0,0.0,0.0,0.0,0.0,0.0,0.0,0.0,0.0,0.0,0.0,0.0,0.0,0.0,0.0,0.0,0.0,0.0,0.0,0.0,0.0,0.0,0.0,0.0,0.0,0.0,0.0,0.0,0.0,0.0,0.0,0.0,0.0,0.0,0.0,0.0,0.0,0.0,0.0,0.0,0.0,0.0,0.0,0.0,0.0,0.0,0.0,0.0,0.0,0.0,0.0,0.0,0.0,0.0,0.0,0.0,0.0,0.0,0.0,0.0,0.0,0.0,0.0,0.0,0.0,0.0,0.0,0.0,0.0,0.0,0.0,0.0,0.0,0.0,0.0,0.0,0.0,0.0,0.0,0.0,0.0,0.0,0.0,0.0,0.0,0.0,0.0,0.0,0.0,0.0,0.0,0.0,0.0,0.0,0.0,0.0,0.0,0.0,0.0,0.0,0.0,-3.8362,-3.9088,-3.9131,-3.8565,-3.8202,-3.8202,-3.7114,-3.6402,-3.6315,-3.3964,0.0,0.0,0.0,0.0,0.0,0.0,0.0,0.0,0.0,0.0,0.0,0.0,0.0,0.0,0.0,0.0,0.0,0.0,0.0,0.0,0.0,0.0,0.0,0.0,0.0,0.0,0.0,0.0,0.0,0.0,0.0,0.0,0.0,0.0,0.0,0.0,0.0,0.0,0.0,0.0,0.0,0.0,0.0,0.0,0.0,0.0,0.0,0.0,0.0,0.0,0.0,0.0,0.0,0.0,0.0,0.0,0.0,0.0,0.0,0.0,0.0,0.0,0.0,0.0,0.0,0.0,0.0,0.0,0.0,0.0,0.0,0.0,0.0,0.0,0.0,0.0,0.0,0.0,0.0,0.0,0.0,0.0,0.0,0.0,0.0,0.0,0.0,0.0,0.0,0.0,0.0,0.0,0.0,0.0,0.0,0.0,0.0,0.0,0.0,0.0,0.0,0.0,-3.8057,-3.8739,-3.916,-3.8609,-3.8202,-3.8202,-3.7252,-3.6405,-3.5793,0.0,0.0,0.0,0.0,0.0,0.0,0.0,0.0,0.0,0.0,0.0,0.0,0.0,0.0,0.0,0.0,0.0,0.0,0.0,0.0,0.0,0.0,0.0,0.0,0.0,0.0,0.0,0.0,0.0,0.0,0.0,0.0,0.0,0.0,0.0,0.0,0.0,0.0,0.0,0.0,0.0,0.0,0.0,0.0,0.0,0.0,0.0,0.0,0.0,0.0,0.0,0.0,0.0,0.0,0.0,0.0,0.0,0.0,0.0,0.0,0.0,0.0,0.0,0.0,0.0,0.0,0.0,0.0,0.0,0.0,0.0,0.0,0.0,0.0,0.0,0.0,0.0,0.0,0.0,0.0,0.0,0.0,0.0,0.0,0.0,0.0,0.0,0.0,0.0,0.0,0.0,0.0,0.0,0.0,0.0,0.0,0.0,0.0,0.0,0.0,0.0,0.0,-3.7114,-3.8188,-3.8913,-3.9175,-3.8609,-3.8202,-3.8202,-3.6859,-3.5867,-3.5444,0.0,0.0,0.0,0.0,0.0,0.0,0.0,0.0,0.0,0.0,0.0,0.0,0.0,0.0,0.0,0.0,0.0,0.0,0.0,0.0,0.0,0.0,0.0,0.0,0.0,0.0,0.0,0.0,0.0,0.0,0.0,0.0,0.0,0.0,0.0,0.0,0.0,0.0,0.0,0.0,0.0,0.0,0.0,0.0,0.0,0.0,0.0,0.0,0.0,0.0,0.0,0.0,0.0,0.0,0.0,0.0,0.0,0.0,0.0,0.0,0.0,0.0,0.0,0.0,0.0,0.0,0.0,0.0,0.0,0.0,0.0,0.0,0.0,0.0,0.0,0.0,0.0,0.0,0.0,0.0,0.0,0.0,0.0,0.0,0.0,0.0,0.0,0.0,0.0,0.0,0.0,0.0,0.0,0.0,0.0,0.0,0.0,0.0,0.0,0.0,0.0,0.0,-3.7215,-3.8942,-3.9871,-3.9262,-3.8609,-3.8202,-3.8202,-3.5758,-3.4533,0.0,0.0,0.0,0.0,0.0,0.0,0.0,0.0,0.0,0.0,0.0,0.0,0.0,0.0,0.0,0.0,0.0,0.0,0.0,0.0,0.0,0.0,0.0,0.0,0.0,0.0,0.0,0.0,0.0,0.0,0.0,0.0,0.0,0.0,0.0,0.0,0.0,0.0,0.0,0.0,0.0,0.0,0.0,0.0,0.0,0.0,0.0,0.0,0.0,0.0,0.0,0.0,0.0,0.0,0.0,0.0,0.0,0.0,0.0,0.0,0.0,0.0,0.0,0.0,0.0,0.0,0.0,0.0,0.0,0.0,0.0,0.0,0.0,0.0,0.0,0.0,0.0,0.0,0.0,0.0,0.0,0.0,0.0,0.0,0.0,0.0,0.0,0.0,0.0,0.0,0.0,0.0,0.0,0.0,0.0,0.0,0.0,0.0,0.0,0.0,0.0,0.0,0.0,-3.7142,-3.8374,-3.913,-3.9185,-3.8609,-3.7962,-3.7323,-3.5628,-3.4367,-3.3804,0.0,0.0,0.0,0.0,0.0,0.0,0.0,0.0,0.0,0.0,0.0,0.0,0.0,0.0,0.0,0.0,0.0,0.0,0.0,0.0,0.0,0.0,0.0,0.0,0.0,0.0,0.0,0.0,0.0,0.0,0.0,0.0,0.0,0.0,0.0,0.0,0.0,0.0,0.0,0.0,0.0,0.0,0.0,0.0,0.0,0.0,0.0,0.0,0.0,0.0,0.0,0.0,0.0,0.0,0.0,0.0,0.0,0.0,0.0,0.0,0.0,0.0,0.0,0.0,0.0,0.0,0.0,0.0,0.0,0.0,0.0,0.0,0.0,0.0,0.0,0.0,0.0,0.0,0.0,0.0,0.0,0.0,0.0,0.0,0.0,0.0,0.0,0.0,0.0,0.0,0.0,0.0,0.0,0.0,0.0,0.0,0.0,0.0,0.0,0.0,0.0,0.0,-3.6262,-3.7445,-3.8059,-3.778,-3.7381,-3.6947,-3.6439,-3.5086,-3.3927,-3.3068,0.0,0.0,0.0,0.0,0.0,0.0,0.0,0.0,0.0,0.0,0.0,0.0,0.0,0.0,0.0,0.0,0.0,0.0,0.0,0.0,0.0,0.0,0.0,0.0,0.0,0.0,0.0,0.0,0.0,0.0,0.0,0.0,0.0,0.0,0.0,0.0,0.0,0.0,0.0,0.0,0.0,0.0,0.0,0.0,0.0,0.0,0.0,0.0,0.0,0.0,0.0,0.0,0.0,0.0,0.0,0.0,0.0,0.0,0.0,0.0,0.0,0.0,0.0,0.0,0.0,0.0,0.0,0.0,0.0,0.0,0.0,0.0,0.0,0.0,0.0,0.0,0.0,0.0,0.0,0.0,0.0,0.0,0.0,0.0,0.0,0.0,0.0,0.0,0.0,0.0,0.0,0.0,0.0,0.0,0.0,0.0,0.0,0.0,0.0,0.0,0.0,0.0,-3.498,-3.6344,-3.6846,-3.571,-3.5615,-3.5574,-3.5494,-3.4257,-3.3344,-3.2893,0.0,0.0,0.0,0.0,0.0,0.0,0.0,0.0,0.0,0.0,0.0,0.0,0.0,0.0,0.0,0.0,0.0,0.0,0.0,0.0,0.0,0.0,0.0,0.0,0.0,0.0,0.0,0.0,0.0,0.0,0.0,0.0,0.0,0.0,0.0,0.0,0.0,0.0,0.0,0.0,0.0,0.0,0.0,0.0,0.0,0.0,0.0,0.0,0.0,0.0,0.0,0.0,0.0,0.0,0.0,0.0,0.0,0.0,0.0,0.0,-3.1209,-3.1712,0.0,0.0,0.0,0.0,0.0,0.0,0.0,0.0,0.0,0.0,0.0,0.0,0.0,0.0,0.0,0.0,0.0,0.0,0.0,0.0,0.0,0.0,0.0,0.0,0.0,0.0,0.0,0.0,0.0,0.0,0.0,0.0,0.0,0.0,0.0,0.0,0.0,0.0,0.0,0.0,-3.4962,-3.5764,-3.6114,-3.567,-3.5615,-3.5346,-3.4703,-3.3958,-3.3235,-3.2542,-3.1323,0.0,0.0,0.0,0.0,0.0,0.0,0.0,0.0,0.0,0.0,0.0,0.0,0.0,0.0,0.0,0.0,0.0,0.0,0.0,0.0,0.0,0.0,0.0,0.0,0.0,0.0,0.0,0.0,0.0,0.0,0.0,0.0,0.0,0.0,0.0,0.0,0.0,0.0,0.0,0.0,0.0,0.0,0.0,0.0,0.0,0.0,0.0,0.0,0.0,0.0,0.0,0.0,0.0,0.0,0.0,0.0,0.0,0.0,0.0,-3.204,-3.1988,0.0,0.0,0.0,0.0,0.0,0.0,0.0,0.0,0.0,0.0,0.0,0.0,0.0,0.0,0.0,0.0,0.0,0.0,0.0,0.0,0.0,0.0,0.0,0.0,0.0,0.0,0.0,0.0,0.0,0.0,0.0,0.0,0.0,0.0,0.0,0.0,0.0,0.0,0.0,0.0,-3.4785,-3.4943,-3.4822,-3.4437,-3.4387,-3.4233,-3.3823,-3.3498,-3.3034,-3.2363,-3.1551,0.0,0.0,0.0,0.0,0.0,0.0,0.0,0.0,0.0,0.0,0.0,0.0,0.0,0.0,0.0,0.0,0.0,0.0,0.0,0.0,0.0,0.0,0.0,0.0,0.0,0.0,0.0,0.0,0.0,0.0,0.0,0.0,0.0,0.0,0.0,0.0,0.0,0.0,0.0,0.0,0.0,0.0,0.0,0.0,0.0,0.0,0.0,0.0,0.0,0.0,0.0,0.0,0.0,-3.3097,-3.3352,-3.4354,-3.4354,-3.44,-3.439,-3.3011,-3.254,-3.2701,-3.3369,0.0,0.0,0.0,0.0,0.0,0.0,0.0,0.0,0.0,0.0,0.0,0.0,0.0,0.0,0.0,0.0,0.0,0.0,0.0,0.0,0.0,0.0,-3.4342,-3.3437,-3.3908,-3.4499,-3.4265,0.0,0.0,0.0,0.0,0.0,0.0,0.0,0.0,0.0,0.0,0.0,-3.4338,-3.4078,-3.364,-3.3131,-3.3124,-3.3124,-3.3124,-3.3124,-3.2867,-3.239,-3.1886,-3.1641,0.0,0.0,0.0,0.0,0.0,0.0,0.0,0.0,0.0,0.0,0.0,0.0,0.0,0.0,0.0,0.0,0.0,0.0,0.0,0.0,0.0,0.0,0.0,0.0,0.0,0.0,0.0,0.0,0.0,0.0,0.0,0.0,-2.8686,-2.9625,0.0,0.0,0.0,0.0,0.0,0.0,0.0,0.0,0.0,0.0,0.0,0.0,0.0,-3.316,-3.3892,-3.3547,-3.3456,-3.3608,-3.336,-3.3317,-3.3469,-3.3469,-3.3497,-3.3504,-3.3681,0.0,-3.3739,-3.4286,0.0,0.0,0.0,0.0,0.0,0.0,0.0,0.0,0.0,0.0,0.0,0.0,0.0,0.0,0.0,0.0,0.0,0.0,0.0,0.0,0.0,0.0,-3.4727,-3.4583,-3.4655,-3.4763,-3.4714,-3.3798,-3.3178,-3.3931,-3.3544,-3.3478,0.0,0.0,0.0,0.0,0.0,0.0,-3.337,-3.3439,-3.3464,-3.3131,-3.3124,-3.3124,-3.3124,-3.3124,-3.3086,-3.3011,-3.2437,-3.2043,-3.1889,-3.1248,0.0,0.0,0.0,0.0,0.0,0.0,0.0,0.0,0.0,0.0,0.0,0.0,0.0,0.0,0.0,0.0,0.0,0.0,0.0,0.0,0.0,0.0,0.0,0.0,0.0,0.0,0.0,0.0,0.0,-2.8831,-2.9858,-3.0325,-3.0861,-3.1207,0.0,0.0,0.0,0.0,0.0,0.0,0.0,0.0,0.0,-3.2979,-3.2864,-3.3138,-3.3928,-3.3603,-3.3556,-3.3834,-3.3752,-3.3861,-3.415,-3.415,-3.4318,-3.4607,-3.4835,-3.4715,-3.4431,-3.4554,-3.4742,-3.4952,0.0,0.0,0.0,0.0,-3.5694,-3.5381,-3.5339,-3.5111,-3.4749,-3.4444,0.0,0.0,0.0,0.0,0.0,0.0,0.0,-3.5537,-3.5094,-3.4899,-3.4775,-3.4775,-3.4775,-3.4775,-3.4775,-3.4375,-3.398,-3.409,-3.3625,-3.3395,-3.4029,-3.3845,0.0,0.0,0.0,-3.3597,-3.3479,-3.3106,-3.2822,-3.2717,-3.2692,-3.2692,-3.2692,-3.2692,-3.2692,-3.2692,-3.2457,-3.2413,-3.2593,-3.2074,-3.1556,0.0,0.0,0.0,0.0,0.0,0.0,0.0,0.0,0.0,0.0,0.0,0.0,0.0,0.0,0.0,0.0,0.0,0.0,0.0,0.0,0.0,0.0,0.0,0.0,0.0,0.0,0.0,0.0,-3.0271,-3.0914,-3.0949,-3.1656,-3.196,0.0,0.0,0.0,0.0,0.0,0.0,-3.2157,-3.2637,-3.3346,-3.4267,-3.392,-3.4066,-3.4787,-3.4342,-3.421,-3.439,-3.4258,-3.4402,-3.4775,-3.4775,-3.504,-3.5425,-3.5557,-3.5316,-3.4824,-3.4777,-3.4819,-3.4911,-3.4833,-3.5067,-3.547,-3.6043,-3.5919,-3.5605,-3.5834,-3.5633,-3.5189,-3.4734,-3.4549,-3.4517,-3.4428,0.0,0.0,0.0,0.0,-3.5578,-3.5298,-3.5038,-3.4775,-3.4775,-3.4775,-3.4775,-3.4775,-3.4775,-3.4667,-3.427,-3.3933,-3.3681,-3.374,-3.3464,0.0,-3.3953,-3.3524,-3.3134,-3.3262,-3.2711,-3.23,-3.24,-3.24,-3.24,-3.24,-3.24,-3.24,-3.24,-3.24,-3.2528,-3.2889,-3.2453,-3.2232,-3.2232,0.0,0.0,0.0,0.0,0.0,0.0,0.0,0.0,0.0,0.0,0.0,0.0,0.0,0.0,0.0,0.0,0.0,0.0,0.0,0.0,0.0,0.0,0.0,0.0,0.0,0.0,0.0,0.0,0.0,-3.1734,-3.3244,0.0,0.0,0.0,0.0,-3.1952,-3.2913,-3.3589,-3.3849,-3.4859,-3.5677,-3.623,-3.6711,-3.6988,-3.7036,-3.6507,-3.6014,-3.5533,-3.4979,-3.4751,-3.4775,-3.4775,-3.4799,-3.4847,-3.54,-3.5316,-3.4859,-3.5354,-3.5513,-3.5504,-3.6015,-3.6798,-3.7547,-3.6629,-3.6267,-3.6113,-3.5223,-3.486,-3.4836,-3.48,-3.4668,-3.4595,-3.5149,-3.5602,0.0,0.0,-3.5784,-3.6046,-3.5066,-3.4811,-3.4775,-3.4775,-3.4775,-3.4775,-3.4775,-3.4775,-3.4775,-3.4751,-3.4715,-3.4883,-3.5462,0.0,-3.3703,-3.4059,-3.294,-3.2069,-3.2069,-3.2038,-3.2125,-3.2344,-3.24,-3.24,-3.24,-3.24,-3.24,-3.24,-3.24,-3.2313,-3.2074,-3.205,-3.2038,-3.2038,-3.1478,0.0,0.0,0.0,0.0,0.0,0.0,0.0,0.0,0.0,0.0,0.0,0.0,0.0,0.0,0.0,0.0,0.0,0.0,0.0,0.0,0.0,0.0,0.0,0.0,0.0,0.0,0.0,0.0,-3.1985,-3.1716,0.0,-3.2735,-3.2259,-3.2239,-3.321,-3.3956,-3.4547,-3.5028,-3.5737,-3.6206,-3.6398,-3.6591,-3.6687,-3.6687,-3.6158,-3.5809,-3.5605,-3.5088,-3.4775,-3.4775,-3.4775,-3.4775,-3.4787,-3.4979,-3.5004,-3.4799,-3.504,-3.5066,-3.5075,-3.527,-3.5523,-3.581,-3.5475,-3.5343,-3.5295,-3.492,-3.4775,-3.4775,-3.4775,-3.4763,-3.4723,-3.4954,-3.5106,-3.5172,-3.5049,-3.5149,-3.5247,-3.4872,-3.4775,-3.4775,-3.4775,-3.4775,-3.4775,-3.4775,-3.4775,-3.4775,-3.4775,-3.4498,-3.4342,-3.455,-3.3924,-3.3322,-3.3114,-3.2625,-3.2216,-3.1854,-3.1805,-3.1849,-3.1937,-3.1937,-3.1937,-3.1937,-3.1937,-3.1937,-3.1937,-3.1937,-3.2051,-3.2325,-3.2304,-3.2461,-3.2844,-3.1974,-3.1209,0.0,0.0,0.0,0.0,0.0,0.0,0.0,0.0,0.0,0.0,0.0,0.0,0.0,0.0,0.0,0.0,0.0,0.0,0.0,0.0,0.0,0.0,0.0,0.0,0.0,-3.0268,-3.0515,-3.1692,-3.1666,-3.1874,-3.2924,-3.3121,-3.3582,-3.4462,-3.5183,-3.5773,-3.6134,-3.6651,-3.694,-3.694,-3.694,-3.6855,-3.6675,-3.6146,-3.5797,-3.5605,-3.5088,-3.4775,-3.4775,-3.4775,-3.4775,-3.4775,-3.4775,-3.4775,-3.4775,-3.4775,-3.4775,-3.4775,-3.4775,-3.4775,-3.4775,-3.4775,-3.4775,-3.4775,-3.4775,-3.4775,-3.4775,-3.4775,-3.4775,-3.4775,-3.4775,-3.4775,-3.4775,-3.4775,-3.4775,-3.4775,-3.4775,-3.4775,-3.4775,-3.4775,-3.4775,-3.4775,-3.4775,-3.4775,-3.4775,-3.4775,-3.4498,-3.4258,-3.4258,-3.3885,-3.3368,-3.2851,-3.2611,-3.2298,-3.1777,-3.1705,-3.1705,-3.1705,-3.1705,-3.1705,-3.1705,-3.1536,-3.1524,-3.1705,-3.1705,-3.1958,-3.2478,-3.2503,-3.2671,-3.3008,-3.2175,-3.1536,-3.1187,0.0,0.0,0.0,0.0,0.0,0.0,0.0,0.0,0.0,0.0,0.0,0.0,0.0,0.0,0.0,0.0,0.0,0.0,0.0,0.0,0.0,0.0,0.0,-2.9132,-3.0921,-3.1758,-3.0895,-3.3061,-3.4056,-3.2589,-3.4763,-3.6093,-3.5701,-3.6615,-3.7204,-3.7216,-3.7709,-3.7986,-3.7986,-3.7986,-3.7733,-3.7228,-3.6699,-3.617,-3.5653,-3.5112,-3.4799,-3.4799,-3.4787,-3.4775,-3.4775,-3.4775,-3.4775,-3.4775,-3.4775,-3.4775,-3.4775,-3.4775,-3.4775,-3.4775,-3.4775,-3.4775,-3.4775,-3.4775,-3.4775,-3.4775,-3.4775,-3.4775,-3.4775,-3.4775,-3.4775,-3.4775,-3.4775,-3.4775,-3.4775,-3.4775,-3.4775,-3.4775,-3.4775,-3.4775,-3.4775,-3.4775,-3.4775,-3.4775,-3.4775,-3.4775,-3.4775,-3.4775,-3.433,-3.3802,-3.3368,-3.2827,0.0,-3.1777,-3.1705,-3.1705,-3.1705,-3.1705,-3.1705,-3.1705,-3.1235,-3.1163,-3.1705,-3.1729,-3.1982,-3.2503,-3.2527,-3.2527,-3.2527,-3.1985,-3.1753,-3.1729,0.0,0.0,0.0,0.0,0.0,0.0,0.0,0.0,0.0,0.0,0.0,0.0,0.0,0.0,0.0,0.0,0.0,0.0,0.0,0.0,0.0,-2.8756,-2.9208,-2.917,-2.929,-2.9562,-3.0078,-3.0356,-3.1317,-3.3366,-3.377,-3.4733,-3.6633,-3.7024,-3.736,-3.7745,-3.7902,-3.7986,-3.7986,-3.7986,-3.7914,-3.7769,-3.724,-3.6904,-3.6747,-3.5833,-3.54,-3.5388,-3.5004,-3.4775,-3.4775,-3.4775,-3.4775,-3.4775,-3.4775,-3.4775,-3.4775,-3.4775,-3.4775,-3.4775,-3.4775,-3.4775,-3.4775,-3.4775,-3.4775,-3.4775,-3.4775,-3.4677,-3.4531,-3.4726,-3.4677,-3.4531,-3.4726,-3.4677,-3.4531,-3.4726,-3.4677,-3.4531,-3.4531,-3.4531,-3.4531,-3.4531,-3.4531,-3.458,-3.4775,-3.4775,-3.4775,-3.4775,-3.409,-3.3452,-3.3308,-3.2491,-3.1886,-3.1729,-3.1705,-3.1705,-3.1705,-3.1705,-3.1705,-3.1705,-3.1573,-3.1729,-3.2238,-3.2274,-3.2515,-3.3056,-3.308,-3.308,-3.308,-3.2923,-3.2647,0.0,0.0,0.0,0.0,0.0,0.0,0.0,0.0,0.0,0.0,0.0,0.0,0.0,0.0,0.0,0.0,0.0,0.0,0.0,0.0,0.0,0.0,-2.8509,-2.8872,-2.8792,-2.8644,-2.8691,-2.9185,-2.9665,-3.0733,-3.2737,-3.3309,-3.4475,-3.6638,-3.6767,-3.7121,-3.7962,-3.7986,-3.7986,-3.7986,-3.7986,-3.7986,-3.7986,-3.7457,-3.7192,-3.718,-3.635,-3.5833,-3.5605,-3.5304,-3.4991,-3.4775,-3.4775,-3.4775,-3.4775,-3.4775,-3.4775,-3.4775,0.0,0.0,0.0,0.0,-3.4775,-3.4775,-3.4775,-3.4738,-3.4628,-3.4775,-3.4628,-3.4433,-3.4726,-3.4677,-3.458,-3.4628,-3.4531,-3.4433,-3.4494,-3.4396,-3.4249,-3.4249,-3.4249,-3.4298,-3.4384,-3.4384,-3.4482,-3.4726,-3.4775,0.0,-3.4775,-3.433,-3.3861,-3.3633,-3.2887,-3.2307,-3.2046,-3.1849,-3.1801,-3.1985,-3.2066,-3.2151,-3.2322,-3.2142,0.0,0.0,0.0,-3.3068,-3.3585,-3.3404,0.0,0.0,0.0,0.0,0.0,0.0,0.0,0.0,-3.4222,-3.4703,0.0,0.0,0.0,0.0,0.0,0.0,0.0,0.0,0.0,0.0,0.0,0.0,0.0,0.0,0.0,0.0,-2.8121,-2.7939,-2.831,-2.8682,-2.876,-2.834,-2.9995,-3.1233,-3.1397,-3.3219,-3.4836,-3.5904,-3.6122,-3.6677,-3.7761,-3.7814,0.0,0.0,0.0,-3.7986,-3.7986,-3.7517,-3.7276,-3.7276,-3.6747,-3.6242,-3.5797,-3.5737,-3.5449,-3.4955,-3.4955,-3.4955,-3.5004,-3.4944,-3.4835,-3.4775,-3.4775,-3.4775,-3.4775,-3.4775,-3.4775,-3.4775,-3.4775,0.0,0.0,-3.4726,-3.4628,-3.4433,-3.4677,-3.4738,-3.4677,-3.4433,-3.4335,-3.4298,-3.4125,-3.4075,-3.4075,-3.4075,-3.4075,-3.4113,-3.4298,-3.4335,-3.4433,-3.4677,-3.4787,-3.4775,-3.4775,-3.4727,-3.4534,-3.4066,-3.3609,-3.3128,-3.2647,-3.2154,-3.2034,-3.2539,-3.2587,0.0,-3.3248,-3.2851,-3.2815,-3.3344,-3.3428,-3.3669,-3.4066,-3.3705,-3.3669,-3.4066,-3.3753,-3.4234,-3.5617,-3.5677,-3.5978,-3.6483,-3.5954,-3.599,0.0,0.0,0.0,0.0,0.0,0.0,0.0,0.0,0.0,0.0,0.0,0.0,0.0,0.0,0.0,-2.9374,-2.902,-2.8701,-2.8789,-2.8867,-2.876,-2.834,-2.9262,-3.0319,-3.1288,-3.3219,-3.4503,-3.4725,-3.5619,-3.6286,-3.6569,-3.6569,-3.7,-3.7986,-3.7986,-3.7986,-3.7986,-3.7878,-3.7829,-3.7829,-3.7288,0.0,-3.6867,-3.6447,-3.6194,-3.6098,-3.6098,-3.6098,-3.6062,-3.5641,-3.5208,-3.4775,-3.4775,-3.4775,-3.4775,-3.4775,-3.4775,-3.4775,-3.4775,-3.4787,-3.4726,-3.4775,-3.4628,-3.4433,-3.4482,-3.4347,0.0,-3.4162,-3.4014,-3.3878,-3.4075,-3.3927,-3.3779,-3.3779,-3.3779,-3.3779,-3.3817,-3.4026,-3.4211,-3.4433,-3.4628,-3.4775,-3.4775,-3.4426,-3.4114,-3.4006,-3.3609,-3.3248,-3.3152,-3.3044,-3.302,-3.3128,-3.314,-3.3176,-3.3284,-3.3188,-3.3356,-3.3814,-3.4294,-3.4571,-3.4619,-3.4583,-3.4571,-3.4619,-3.5004,-3.5316,-3.5617,-3.6038,-3.6519,-3.7024,-3.6507,-3.6531,0.0,0.0,0.0,0.0,0.0,0.0,0.0,0.0,0.0,0.0,0.0,-2.9031,-2.8513,0.0,-2.9197,-2.9625,-2.9421,-2.9248,-2.9248,-2.9248,-2.9004,-2.8369,-2.9053,-2.9839,-3.0429,-3.1799,-3.2892,-3.3505,-3.4123,-3.4681,-3.5289,-3.585,-3.6231,-3.6208,-3.6773,-3.6827,-3.6208,-3.6773,-3.7108,-3.7108,-3.7445,-3.7118,-3.6309,-3.6038,-3.5416,-3.4705,-3.5235,-3.5493,-3.5509,-3.5571,-3.5461,-3.5147,-3.4883,-3.4775,-3.4775,-3.4775,-3.4775,-3.4775,-3.4775,-3.4726,-3.4628,-3.4775,-3.4628,-3.4384,-3.4384,-3.4347,-3.4211,-3.3977,-3.3779,-3.3679,-3.3679,-3.358,-3.3481,-3.3481,-3.3481,-3.353,-3.3679,-3.3828,-3.3977,-3.4211,-3.4445,-3.458,-3.458,-3.451,-3.439,-3.439,-3.3946,-3.3669,-3.3669,-3.3452,-3.3392,-3.3633,-3.3669,-3.3777,-3.4042,-3.4054,-3.4162,-3.4366,-3.4631,-3.4775,-3.4775,-3.4775,-3.4907,-3.522,-3.5485,-3.5869,-3.6411,-3.6675,-3.7072,-3.7577,-3.7324,-3.7336,0.0,0.0,0.0,0.0,0.0,0.0,0.0,-2.8183,-2.8411,-2.7776,-2.8726,-2.9503,-2.8973,-2.9308,-2.9631,-2.9718,-2.9744,-2.9744,-2.9744,-2.9744,-2.9404,-2.8633,-2.9219,-2.9744,-2.9744,-3.064,-3.1566,-3.2295,-3.2571,-3.3073,-3.4011,-3.5013,-3.5179,-3.4447,-3.5344,-3.5388,-3.4391,-3.5344,-3.5838,-3.5838,-3.6827,-3.654,-3.5213,-3.5213,-3.445,-3.3225,-3.4188,-3.466,-3.4796,-3.5353,-3.5597,-3.5581,-3.5099,-3.4871,-3.4775,-3.4775,-3.4775,-3.4775,-3.4775,-3.4677,-3.4531,-3.4726,-3.4628,-3.4384,-3.4347,-3.4298,-3.415,-3.3729,-3.363,-3.358,-3.3331,-3.3281,-3.3281,-3.3281,-3.3281,-3.3331,-3.358,-3.3679,-3.3779,-3.3977,-3.4211,-3.4347,-3.4384,-3.4543,-3.4689,-3.4775,-3.4414,-3.415,-3.415,-3.3837,-3.3753,-3.4102,-3.415,-3.4318,-3.4739,-3.4775,-3.4775,-3.4775,-3.4775,-3.4775,-3.4775,-3.4775,-3.5027,-3.5605,-3.5713,-3.6242,-3.7192,-3.7288,-3.7625,-3.8142,-3.8034,-3.7986,-2.5527,-2.5341,-2.5645,-2.7672,-2.7976,-2.787,0.0,-2.8623,-2.8757,-2.7879,-2.814,-2.8473,-2.8363,-2.8716,-2.9231,-2.998,-3.0127,-3.0127,-3.0127,-3.0127,-2.9951,-2.9482,-2.9844,-3.0127,-3.0127,-3.159,-3.2123,-3.117,-3.2065,-3.2742,-3.2903,-3.3016,-3.3515,-3.4391,-3.4558,-3.4558,-3.4391,-3.4558,-3.4614,-3.4614,-3.4725,-3.4692,-3.4526,-3.4526,-3.4393,-3.4228,-3.4394,-3.4744,-3.5294,-3.5396,-3.5489,-3.5605,-3.5557,-3.5244,-3.4775,-3.4775,-3.4775,-3.4775,-3.4775,-3.4775,-3.4775,-3.4775,-3.4628,-3.4384,-3.4211,-3.3977,-3.3729,-3.3431,-3.3331,-3.3331,-3.3331,-3.3281,-3.3281,-3.3281,-3.3281,-3.3331,-3.3331,-3.353,-3.3729,-3.3729,-3.3977,-3.4211,-3.4384,-3.4261,-3.431,-3.4738,-3.4727,-3.4691,-3.4691,-3.4643,-3.4631,-3.4679,-3.4691,-3.4715,-3.4775,-3.4775,-3.4775,-3.4775,-3.4775,-3.4775,-3.4775,-3.4775,-3.5027,-3.5605,-3.6074,-3.6603,-3.7192,-3.7661,-3.8178,-3.8707,-3.8214,-3.7986,-2.5857,-2.6079,-2.647,-2.7168,-2.7388,-2.7604,-2.8168,-2.8265,-2.8227,-2.8074,-2.8174,-2.8447,-2.8945,-2.918,-2.9668,-3.0781,-3.0762,-3.0684,-3.0928,-3.0527,-3.0137,-2.9961,-3.0088,-3.0195,-3.0195,-3.1057,-3.156,-3.1289,-3.1711,-3.2104,-3.2364,-3.3062,-3.3162,-3.2731,-3.3393,-3.3335,-3.2399,-3.3063,-3.3402,-3.3402,-3.4056,-3.4067,-3.3402,-3.3402,-3.3402,-3.3402,-3.3402,-3.3948,-3.4767,-3.4467,-3.4378,-3.4373,-3.3856,-3.386,-3.4267,-3.4638,-3.4775,-3.4775,-3.4775,-3.4775,-3.4775,-3.4628,-3.4482,-3.4335,-3.3977,-3.3779,-3.363,-3.3381,-3.3281,-3.3281,-3.3281,-3.3281,-3.3281,-3.3281,-3.3281,-3.3281,-3.3281,-3.3381,-3.3481,-3.3481,-3.3679,-3.3878,-3.3965,-3.4064,-3.4174,-3.4359,-3.4494,-3.4628,-3.4787,-3.4775,-3.4775,-3.4775,-3.4775,-3.4775,-3.4775,-3.4775,-3.4775,-3.4775,-3.4775,-3.4726,-3.458,-3.458,-3.4974,-3.581,-3.6036,-3.6665,-3.7649,-3.8202,-3.8419,-3.8334,-3.8419,-3.8347,-2.6068,-2.6461,-2.6995,-2.6981,-2.7135,-2.7491,-2.814,-2.8057,-2.792,-2.8232,-2.8291,-2.8516,-2.9258,-2.9482,-2.9961,-3.1152,-3.1182,-3.1172,-3.1475,-3.0859,-3.0391,-3.0391,-3.0273,-3.0244,-3.0371,-3.0693,-3.1064,-3.1484,-3.1514,-3.1709,-3.2148,-3.2975,-3.2884,-3.1709,-3.2563,-3.2412,-3.125,-3.216,-3.2486,-3.2364,-3.3194,-3.3131,-3.218,-3.218,-3.218,-3.218,-3.218,-3.2846,-3.3923,-3.3501,-3.343,-3.3508,-3.2822,-3.2922,-3.3419,-3.3897,-3.4393,-3.4775,-3.4775,-3.4775,-3.4775,-3.458,-3.4433,-3.4249,-3.3915,-3.3729,-3.353,-3.3331,-3.3281,-3.3281,-3.3281,-3.3281,-3.3281,-3.3281,-3.3281,-3.3281,-3.3281,-3.3281,-3.3281,-3.3281,-3.3481,-3.363,-3.3679,-3.3779,-3.3927,-3.4075,-3.4162,-3.4298,-3.4592,-3.4592,-3.4592,-3.4592,-3.4592,-3.4592,-3.4592,-3.4592,-3.4592,-3.4592,-3.4723,-3.4696,-3.4499,-3.4641,-3.515,-3.6102,-3.6113,-3.6728,-3.7988,-3.8186,-3.8329,-3.8365,-3.8593,-3.8633,-2.6008,-2.6137,-2.6668,-2.7622,-2.7791,-2.7773,-2.8193,-2.8281,-2.8281,-2.8291,-2.8291,-2.8428,-2.8857,-2.9287,-2.9863,-3.0762,-3.124,-3.1504,-3.1514,-3.1143,-3.0869,-3.0869,-3.0469,-3.0371,-3.083,-3.0889,-3.1064,-3.1484,-3.1514,-3.1709,-3.2148,-3.2229,-3.2219,-3.2148,-3.2209,-3.2199,-3.219,-3.219,-3.1974,-3.1554,-3.1554,-3.1338,-3.0947,-3.0947,-3.0947,-3.0947,-3.0947,-3.1624,-3.2742,-3.2721,-3.3096,-3.3574,-3.3541,-3.3028,-3.2274,-3.2263,-3.335,-3.4775,-3.4775,-3.4775,-3.4775,-3.4775,-3.4494,-3.4125,-3.4075,-3.3729,-3.3331,-3.3281,-3.3281,-3.3281,-3.3281,-3.3281,-3.3281,-3.3281,-3.3281,-3.3281,-3.3281,-3.3281,-3.3281,-3.3281,-3.3292,-3.3381,-3.3679,-3.3481,-3.3481,-3.4026,-3.3878,-3.3828,-3.4075,-3.4125,-3.4125,-3.4125,-3.4125,-3.4125,-3.4125,-3.4125,-3.4125,-3.4125,-3.4572,-3.4781,-3.4781,-3.5298,-3.5827,-3.6367,-3.6379,-3.6873,-3.7884,-3.739,-3.7931,-3.9365,-3.8722,-3.8749,-2.5698,-2.627,-2.7108,-2.741,-2.7651,-2.7893,-2.8208,-2.8291,-2.8291,-2.8291,-2.8857,-2.9295,-2.8947,-2.9854,-3.0822,-3.1231,-3.1426,-3.1719,-3.2285,-3.1758,-3.1309,-3.1309,-3.1172,-3.1133,-3.1289,-3.1055,-3.1191,-3.1894,-3.1953,-3.2256,-3.2959,-3.2998,-3.2871,-3.2598,-3.2588,-3.2451,-3.2229,-3.2229,-3.21,-3.1943,-3.165,-3.1299,-3.0889,-3.0889,-3.0889,-3.0889,-3.0889,-3.1122,-3.1508,-3.1508,-3.1639,-3.1791,-3.1466,-3.1598,-3.1915,-3.1358,-3.1967,-3.313,-3.3565,-3.3758,-3.3819,-3.4372,-3.4347,-3.4075,-3.3878,-3.358,-3.3281,-3.3281,-3.3431,-3.353,-3.3342,-3.3431,-3.353,-3.3331,-3.3281,-3.3281,-3.3281,-3.3281,-3.3281,-3.3281,-3.3281,-3.3331,-3.3431,-3.3331,-3.3381,-3.353,-3.3779,-3.3977,-3.4075,-3.4125,-3.4125,-3.4125,-3.4125,-3.4125,-3.4125,-3.4125,-3.4216,-3.4546,-3.4722,-3.4867,-3.5077,-3.5223,-3.5614,-3.6127,-3.6454,-3.701,-3.7907,-3.8369,-3.8721,-3.8965,-3.901,-3.9073,-2.55,-2.6307,-2.7336,-2.7487,-2.7757,-2.8077,-2.8237,-2.8291,-2.8252,-2.8096,-2.8628,-2.9118,-2.903,-2.9655,-3.055,-3.1668,-3.1643,-3.1816,-3.2676,-3.2187,-3.1748,-3.1748,-3.1611,-3.1582,-3.1738,-3.1504,-3.1641,-3.2334,-3.2393,-3.2695,-3.3389,-3.3418,-3.3301,-3.3027,-3.3018,-3.2891,-3.2617,-3.2617,-3.2539,-3.2383,-3.1797,-3.1377,-3.1103,-3.0957,-3.0889,-3.0889,-3.0889,-3.0889,-3.0889,-3.0889,-3.0889,-3.0859,-3.0566,-3.0789,-3.1238,-3.066,-3.0722,-3.1159,-3.225,-3.2639,-3.27,-3.3212,-3.3534,-3.3595,-3.3457,-3.3469,-3.358,-3.358,-3.3729,-3.3779,-3.353,-3.358,-3.363,-3.3381,-3.3281,-3.3281,-3.3281,-3.3419,-3.3488,-3.3315,-3.3419,-3.3488,-3.3315,-3.3281,-3.3407,-3.3763,-3.3812,-3.3828,-3.3828,-3.3828,-3.3828,-3.3828,-3.3828,-3.3828,-3.3828,-3.3992,-3.4175,-3.4489,-3.4851,-3.5108,-3.53,-3.5485,-3.5832,-3.6341,-3.6653,-3.7272,-3.8136,-3.8614,-3.8871,-3.8929,-3.916,-3.9208,-2.5547,-2.6378,-2.7343,-2.781,-2.8121,-2.8291,-2.8291,-2.8271,-2.8144,-2.7796,-2.7718,-2.8063,-2.9116,-2.887,-2.9352,-3.2045,-3.1956,-3.1875,-3.2705,-3.248,-3.2226,-3.2226,-3.1865,-3.1777,-3.2187,-3.2226,-3.2393,-3.2793,-3.2803,-3.2978,-3.3398,-3.3418,-3.3418,-3.3418,-3.3418,-3.3418,-3.3418,-3.3418,-3.3213,-3.2783,-3.1973,-3.1562,-3.1504,-3.1103,-3.0918,-3.0889,-3.0889,-3.0889,-3.0889,-3.0889,-3.0889,-3.0889,-3.0889,-3.0625,-3.0234,-3.0205,-2.9678,-2.9179,-3.0903,-3.1494,-3.1524,-3.1575,-3.2095,-3.2711,-3.2711,-3.3335,-3.4026,-3.4026,-3.4087,-3.4111,-3.3814,-3.3787,-3.3711,-3.3461,-3.3411,-3.3361,-3.3361,-3.3717,-3.3901,-3.3419,-3.3683,-3.3866,-3.343,-3.3361,-3.3683,-3.4659,-3.3958,-3.3327,-3.3327,-3.3292,-3.3281,-3.3281,-3.3281,-3.3292,-3.3315,-3.374,-3.4027,-3.4073,-3.498,-3.5531,-3.5554,-3.6013,-3.6507,-3.6968,-3.7002,-3.7575,-3.8585,-3.8103,-3.8355,-3.9297,-3.9094,-3.9128,-2.6155,-2.6917,-2.7825,-2.8101,-2.8237,-2.8291,-2.8291,-2.8047,-2.7793,-2.7738,-2.8313,-2.8962,-2.9259,-3.0194,-3.1344,-3.2313,-3.2465,-3.2656,-3.3184,-3.3174,-3.3105,-3.3105,-3.2998,-3.2978,-3.3086,-3.3105,-3.3144,-3.3252,-3.2969,-3.2978,-3.3398,-3.3418,-3.3418,-3.3418,-3.3418,-3.3418,-3.3418,-3.3418,-3.3213,-3.2793,-3.2568,-3.2139,-3.1514,-3.1406,-3.1182,-3.0889,-3.0889,-3.0889,-3.0889,-3.0889,-3.0889,-3.0889,-3.0889,-3.082,-3.0674,-3.0322,-3.0059,-2.9812,-2.9649,-2.9894,-3.0494,-3.1319,-3.1586,-3.1586,-3.1586,-3.2207,-3.2823,-3.2823,-3.3862,-3.4878,-3.4578,-3.4809,-3.5039,-3.4783,-3.4549,-3.4418,-3.4418,-3.4509,-3.444,-3.3912,-3.3912,-3.4085,-3.4372,-3.4418,-3.4498,-3.4762,-3.4245,-3.3821,-3.3821,-3.3511,-3.3281,-3.3281,-3.3281,-3.343,-3.3786,-3.3935,-3.4326,-3.5083,-3.537,-3.568,-3.6059,-3.6208,-3.6507,-3.6968,-3.7402,-3.7919,-3.8585,-3.8803,-3.9055,-3.9297,-3.9229,-3.9241,-2.6415,-2.7191,-2.796,-2.8237,-2.8291,-2.8242,-2.8057,-2.7978,-2.7832,-2.7461,-2.843,-2.9463,-2.991,-3.0559,-3.1477,-3.2931,-3.267,-3.251,-3.331,-3.3418,-3.3418,-3.3418,-3.3418,-3.3418,-3.3418,-3.3418,-3.3418,-3.3418,-3.3203,-3.3174,-3.3408,-3.3418,-3.3418,-3.3418,-3.3418,-3.3418,-3.3418,-3.3418,-3.3301,-3.3066,-3.2881,-3.2539,-3.206,-3.1689,-3.1387,-3.1152,-3.0976,-3.0889,-3.0889,-3.0889,-3.0889,-3.0889,-3.0889,-3.0889,-3.0859,-3.0596,-3.0254,-2.9853,-2.9375,-2.9223,-2.9313,-2.9932,-3.0349,-3.0608,-3.0608,-3.1268,-3.2044,-3.2044,-3.3167,-3.4252,-3.4001,-3.4587,-3.5188,-3.4932,-3.482,-3.4796,-3.4796,-3.4969,-3.5026,-3.4727,-3.4498,-3.4521,-3.5026,-3.4934,-3.4788,-3.4665,-3.4494,-3.421,-3.3922,-3.372,-3.3683,-3.3924,-3.3947,-3.405,-3.4326,-3.4544,-3.4911,-3.5485,-3.5726,-3.5979,-3.6309,-3.632,-3.6622,-3.7356,-3.7643,-3.816,-3.8906,-3.917,-3.9308,-3.9308,-3.9308,-3.9308,-2.666,-2.7361,-2.8014,-2.8237,-2.8252,-2.8125,-2.7875,-2.7939,-2.793,-2.7246,-2.8145,-2.9463,-3.0704,-3.0324,-3.0774,-3.3653,-3.2704,-3.2031,-3.3252,-3.3418,-3.3418,-3.3418,-3.3418,-3.3418,-3.3418,-3.3418,-3.3418,-3.3418,-3.3418,-3.3418,-3.3418,-3.3418,-3.3418,-3.3418,-3.3418,-3.3418,-3.3418,-3.3418,-3.3418,-3.3418,-3.3057,-3.2822,-3.2685,-3.1943,-3.1543,-3.1416,-3.1055,-3.0889,-3.0889,-3.0889,-3.0889,-3.0889,-3.0889,-3.0889,-3.0889,-3.0889,-3.0371,-2.9648,-2.9646,-2.9043,-2.8369,-2.831,-2.89,-2.967,-2.967,-3.0494,-3.1381,-3.1446,-3.2223,-3.3065,-3.2881,-3.3837,-3.4762,-3.4507,-3.4757,-3.5044,-3.4992,-3.5267,-3.5543,-3.5611,-3.5221,-3.5049,-3.5531,-3.5267,-3.496,-3.4748,-3.4713,-3.4468,-3.3879,-3.396,-3.428,-3.475,-3.4796,-3.4831,-3.4888,-3.5279,-3.5543,-3.5611,-3.6025,-3.632,-3.632,-3.632,-3.6748,-3.777,-3.7793,-3.8286,-3.9308,-3.9308,-3.9308,-3.9308,-3.9308,-3.9308,-2.7347,-2.7857,-2.8237,-2.8291,-2.8027,-2.7851,-2.8125,-2.7685,-2.7295,-2.751,-2.7816,-2.8571,-3.0554,-3.0232,-3.0651,-3.3594,-3.297,-3.2373,-3.3291,-3.3418,-3.3418,-3.3418,-3.3418,-3.3418,-3.3418,-3.3418,-3.3418,-3.3418,-3.3418,-3.3418,-3.3418,-3.3418,-3.3418,-3.3418,-3.3418,-3.3418,-3.3418,-3.3418,-3.3418,-3.3418,-3.335,-3.2949,-3.2275,-3.2129,-3.167,-3.0996,-3.0928,-3.0889,-3.0889,-3.0889,-3.0889,-3.0889,-3.0889,-3.0889,-3.0889,-3.0889,-3.0547,-3.0039,-2.9744,-2.9238,-2.875,-2.8408,-2.8451,-2.8601,-2.8601,-2.9313,-3.0266,-3.0652,-3.1642,-3.2616,-3.2908,-3.4031,-3.4956,-3.469,-3.5516,-3.6337,-3.6067,-3.5761,-3.5634,-3.6059,-3.5738,-3.5554,-3.6048,-3.6071,-3.6016,-3.6013,-3.4808,-3.3999,-3.4339,-3.4564,-3.4705,-3.4796,-3.4796,-3.4957,-3.5359,-3.5462,-3.5703,-3.6117,-3.622,-3.632,-3.632,-3.632,-3.6748,-3.777,-3.7793,-3.8286,-3.9308,-3.9308,-3.9308,-3.9308,-3.9308,-3.9308,-2.7549,-2.7969,-2.8291,-2.8291,-2.7978,-2.7767,-2.792,-2.7646,-2.7412,-2.7679,-2.8294,-2.9363,-3.0972,-3.0653,-3.0919,-3.3406,-3.2479,-3.1875,-3.2949,-3.3096,-3.3174,-3.3398,-3.3418,-3.3418,-3.3418,-3.3418,-3.3418,-3.3418,-3.3418,-3.3418,-3.3418,-3.3418,-3.3418,-3.3418,-3.3418,-3.3418,-3.3418,-3.3418,-3.3418,-3.3418,-3.3203,-3.2891,-3.248,-3.2031,-3.1601,-3.1201,-3.0986,-3.0889,-3.0889,-3.0889,-3.0889,-3.0889,-3.0889,-3.0889,-3.0889,-3.0889,-3.0596,-3.0137,-2.9717,-2.9287,-2.8848,-2.8428,-2.8291,-2.8291,-2.8291,-2.8644,-2.9149,-2.9591,-3.0386,-3.1242,-3.1891,-3.2911,-3.3766,-3.3661,-3.4658,-3.5697,-3.6211,-3.6082,-3.5817,-3.5443,-3.5176,-3.4868,-3.4459,-3.438,-3.4157,-3.354,-3.3282,-3.2994,-3.2623,-3.3213,-3.3661,-3.3661,-3.4228,-3.449,-3.4021,-3.3987,-3.4074,-3.437,-3.438,-3.438,-3.438,-3.4575,-3.5338,-3.6834,-3.7092,-3.7888,-3.9308,-3.9308,-3.9308,-3.9308,-3.9308,-3.9308,-2.7656,-2.8047,-2.8291,-2.8291,-2.791,-2.7578,-2.7806,-2.7656,-2.7578,-2.7816,-2.8775,-2.9974,-3.137,-3.08,-3.0952,-3.3475,-3.2112,-3.1339,-3.2957,-3.2969,-3.2949,-3.3369,-3.3418,-3.3418,-3.3418,-3.3418,-3.3418,-3.3418,-3.3418,-3.3418,-3.3418,-3.3418,-3.3418,-3.3418,-3.3418,-3.3418,-3.3418,-3.3418,-3.3418,-3.3418,-3.3086,-3.2832,-3.2637,-3.1963,-3.1553,-3.1367,-3.1035,-3.0889,-3.0889,-3.0889,-3.0889,-3.0889,-3.0889,-3.0889,-3.0889,-3.0889,-3.0596,-3.0146,-2.9824,-2.9424,-2.9004,-2.8672,-2.8506,-2.8408,-2.832,-2.8359,-2.8496,-2.8828,-2.9299,-2.9819,-3.0523,-3.1561,-3.2542,-3.2804,-3.3497,-3.4413,-3.5653,-3.5927,-3.5708,-3.5035,-3.4703,-3.4179,-3.3191,-3.2794,-3.2281,-3.1323,-3.1775,-3.189,-3.0937,-3.1612,-3.2109,-3.1879,-3.3201,-3.3663,-3.267,-3.2613,-3.2613,-3.2613,-3.2613,-3.2664,-3.27,-3.3004,-3.3995,-3.5691,-3.6,-3.7088,-3.8871,-3.8622,-3.8622,-3.886,-3.8563,-3.8622,-2.8018,-2.8262,-2.8291,-2.8291,-2.7676,-2.7275,-2.8057,-2.7627,-2.7295,-2.8076,-2.8368,-2.9112,-3.1216,-2.9921,-2.996,-3.4401,-3.2371,-3.1247,-3.4033,-3.3514,-3.2949,-3.3369,-3.3418,-3.3418,-3.3418,-3.3418,-3.3418,-3.3418,-3.3418,-3.3418,-3.3418,-3.3418,-3.3418,-3.3418,-3.3418,-3.3418,-3.3418,-3.3418,-3.3418,-3.3418,-3.3379,-3.2969,-3.2226,-3.2148,-3.168,-3.0947,-3.0908,-3.0889,-3.0889,-3.0889,-3.0889,-3.0889,-3.0889,-3.0889,-3.0889,-3.0889,-3.0596,-3.0185,-3.0156,-2.9863,-2.9502,-2.9463,-2.918,-2.8789,-2.8408,-2.8564,-2.8867,-2.8906,-2.8941,-2.904,-2.9109,-3.0585,-3.2281,-3.3226,-3.3092,-3.3134,-3.4413,-3.4647,-3.498,-3.5938,-3.5256,-3.4469,-3.4357,-3.3371,-3.2556,-3.2442,-3.1612,-3.0937,-3.082,-3.0878,-3.0538,-2.944,-3.1429,-3.2737,-3.2613,-3.2613,-3.2613,-3.2613,-3.2613,-3.2752,-3.3118,-3.3179,-3.3661,-3.47,-3.4762,-3.5667,-3.7489,-3.6348,-3.6348,-3.7489,-3.6287,-3.6409,-2.7685,-2.8096,-2.8291,-2.8291,-2.7646,-2.7246,-2.8096,-2.7627,-2.7256,-2.8115,-2.8291,-2.8751,-3.0287,-2.9313,-2.9303,-3.2329,-3.117,-3.0415,-3.2106,-3.2156,-3.2187,-3.2617,-3.2891,-3.3144,-3.3398,-3.3418,-3.3418,-3.3418,-3.3418,-3.3418,-3.3418,-3.3418,-3.3418,-3.3418,-3.3418,-3.3418,-3.3418,-3.3418,-3.3418,-3.3418,-3.291,-3.249,-3.2148,-3.1631,-3.1221,-3.0889,-3.0889,-3.0889,-3.0889,-3.0889,-3.0889,-3.0889,-3.0889,-3.0889,-3.0889,-3.0889,-3.0771,-3.0576,-3.0293,-3.0088,-2.9902,-2.9704,-2.9619,-2.9609,-2.9189,-2.918,-2.9365,-2.9619,-2.9502,-2.9434,-2.9971,-3.0447,-3.1009,-3.2193,-3.2004,-3.1832,-3.3088,-3.3371,-3.3258,-3.3031,-3.2587,-3.2025,-3.1333,-3.0752,-3.0461,-3.0461,-3.0011,-2.9736,-2.9736,-2.9736,-2.9558,-2.9044,-3.0529,-3.1207,-3.0461,-3.0633,-3.0778,-3.0778,-3.1028,-3.125,-3.1363,-3.1613,-3.2322,-3.3515,-3.3723,-3.4615,-3.6154,-3.5674,-3.5674,-3.6154,-3.5623,-3.5674,-2.7523,-2.7969,-2.8291,-2.8291,-2.7646,-2.7246,-2.8096,-2.7627,-2.7256,-2.8115,-2.8291,-2.8644,-2.9723,-2.9006,-2.8989,-3.1216,-3.0338,-2.9895,-3.1253,-3.1476,-3.168,-3.2119,-3.2539,-3.291,-3.3203,-3.335,-3.3418,-3.3418,-3.3418,-3.3418,-3.3418,-3.3418,-3.3418,-3.3418,-3.3418,-3.3418,-3.3418,-3.3418,-3.3359,-3.3232,-3.2637,-3.2226,-3.1953,-3.1357,-3.1006,-3.0889,-3.0889,-3.0889,-3.0889,-3.0889,-3.0889,-3.0889,-3.0889,-3.0889,-3.0889,-3.0889,-3.0889,-3.084,-3.0518,-3.04,-3.0351,-3.0059,-3.0166,-3.0342,-3.0049,-2.9863,-2.9795,-2.9961,-2.9795,-2.9775,-3.0664,-3.0315,-3.0004,-3.0975,-3.0713,-3.0587,-3.1832,-3.2052,-3.1937,-3.1439,-3.1043,-3.0529,-2.9677,-2.9213,-2.8984,-2.8984,-2.8984,-2.8984,-2.8984,-2.8984,-2.8984,-2.8984,-2.9736,-2.9903,-2.9044,-2.9342,-2.9571,-2.9571,-2.9965,-3.025,-3.0369,-3.0644,-3.1278,-3.2387,-3.2666,-3.3442,-3.4819,-3.4514,-3.4574,-3.5012,-3.4574,-3.4566,-2.7549,-2.7969,-2.8291,-2.8291,-2.7646,-2.7246,-2.8096,-2.7627,-2.7256,-2.8115,-2.8291,-2.8644,-2.9723,-2.9006,-2.9209,-3.1958,-3.0455,-2.9818,-3.2318,-3.1994,-3.168,-3.2119,-3.2539,-3.2793,-3.2803,-3.3174,-3.3418,-3.3418,-3.3418,-3.3418,-3.3418,-3.3418,-3.3418,-3.3418,-3.3418,-3.3418,-3.3418,-3.3418,-3.3213,-3.2803,-3.2793,-3.2344,-3.1523,-3.1514,-3.1289,-3.0889,-3.0889,-3.0889,-3.0889,-3.0889,-3.0889,-3.0889,-3.0889,-3.0889,-3.0889,-3.0889,-3.0889,-3.0889,-3.0889,-3.0889,-3.0889,-3.0879,-3.0879,-3.0889,-3.0879,-3.0557,-3.0107,-2.9744,-2.957,-2.9775,-3.0664,-3.0103,-2.942,-2.9827,-2.945,-2.9331,-3.0538,-3.082,-3.1159,-3.2338,-3.1612,-3.082,-3.0762,-2.9795,-2.8984,-2.8984,-2.8984,-2.8984,-2.8984,-2.8984,-2.8984,-2.8984,-2.8984,-2.8984,-2.8984,-2.9342,-2.9571,-2.9571,-2.9965,-3.0378,-3.0772,-3.0791,-3.0974,-3.1423,-3.1442,-3.2065,-3.3442,-3.2496,-3.2693,-3.4004,-3.2628,-3.2532,-2.6396,-2.709,-2.7861,-2.7861,-2.7441,-2.7246,-2.8096,-2.7861,-2.7617,-2.8174,-2.8291,-2.8398,-2.8751,-2.8731,-2.9164,-3.0651,-3.0558,-3.0623,-3.173,-3.1919,-3.2012,-3.2148,-3.2793,-3.3223,-3.3223,-3.334,-3.3418,-3.3418,-3.3418,-3.3418,-3.3418,-3.3144,-3.2998,-3.2998,-3.2998,-3.2861,-3.2568,-3.2568,-3.25,-3.2363,-3.206,-3.1777,-3.1504,-3.1221,-3.1016,-3.0889,-3.0889,-3.0889,-3.0889,-3.0889,-3.0889,-3.0889,-3.0889,-3.0889,-3.0889,-3.0889,-3.0889,-3.0889,-3.0889,-3.0889,-3.0889,-3.0889,-3.0889,-3.0889,-3.0889,-3.0791,-3.0644,-3.0508,-3.0469,-3.0537,-3.082,-3.0315,-2.9761,-2.9893,-2.9459,-2.9103,-2.9499,-2.9558,-2.9667,-3.007,-2.9844,-2.9558,-2.9558,-2.9272,-2.8984,-2.8984,-2.8984,-2.8984,-2.8984,-2.8984,-2.8984,-2.8984,-2.8984,-2.8984,-2.8984,-2.9608,-3.0002,-3.0002,-3.0635,-3.1066,-3.1185,-3.1194,-3.1249,-3.1377,-3.1662,-3.1995,-3.244,-3.2133,-3.2115,-3.2188,-3.1764,-3.1755,-2.6055,-2.668,-2.7461,-2.7679,-2.7344,-2.7246,-2.8096,-2.7969,-2.7783,-2.8203,-2.8291,-2.834,-2.8496,-2.874,-2.915,-2.9844,-3.0205,-3.0605,-3.1201,-3.165,-3.2041,-3.2363,-3.2871,-3.3184,-3.3184,-3.333,-3.3418,-3.3418,-3.3418,-3.335,-3.3193,-3.2939,-3.2646,-3.2324,-3.2471,-3.2432,-3.2229,-3.2229,-3.209,-3.1924,-3.165,-3.1435,-3.1269,-3.1006,-3.0889,-3.0889,-3.0889,-3.0889,0.0,-3.0889,-3.0889,-3.0889,-3.0889,-3.0889,-3.0889,-3.0889,-3.0889,-3.0889,-3.0889,-3.0889,-3.0889,-3.0889,-3.0889,-3.0889,-3.0889,-3.0889,-3.0889,-3.0889,-3.0889,-3.0889,-3.0889,-3.0528,-3.0039,-2.9922,-2.9509,-2.9153,-2.9044,-2.8984,-2.8984,-2.8984,-2.8984,-2.8984,-2.8984,-2.8984,-2.8984,-2.8984,-2.8984,-2.8984,-2.8984,-2.8984,-2.8984,-2.8984,-2.8984,-2.8984,-2.8984,-2.9727,-3.0204,-3.0204,-3.0937,-3.1377,-3.1377,-3.1533,-3.1616,-3.1616,-3.2019,-3.2157,-3.201,-3.201,-3.1873,-3.1616,-3.1616,-3.1533,0.0,-2.672,-2.717,-2.7601,-2.7415,-2.7275,-2.8158,-2.8041,0.0,-2.8213,-2.8291,-2.8418,-2.8838,-2.8945,-2.9121,-2.959,-2.9717,-3.0039,-3.0869,-3.1348,-3.1914,-3.2744,-3.2842,-3.2842,-3.2842,-3.3193,-3.3418,-3.3418,-3.3389,-3.3203,-3.2822,-3.2734,-3.2344,-3.1543,-3.1885,-3.2141,-3.2141,-3.2141,-3.1875,-3.1475,-3.1475,-3.1269,-3.0889,-3.0889,-3.0889,-3.0889,-3.0889,-3.0889,-3.0889,-3.0889,-3.0889,-3.0889,-3.0889,-3.0889,-3.0889,-3.0889,-3.0889,-3.0889,-3.0889,-3.0889,-3.0889,-3.0889,-3.0889,-3.0889,-3.0889,-3.0889,-3.0889,-3.0889,-3.0889,-3.0889,-3.0889,-3.0635,-3.0333,-3.0039,-2.9745,-2.945,-2.9153,-2.9044,-2.9044,-2.9044,-2.9044,-2.8984,-2.8984,-2.8984,-2.8984,-2.8984,-2.8984,-2.8984,-2.8984,-2.8984,-2.8984,-2.8984,-2.8984,-2.8984,-2.8984,-2.97,-3.0167,-3.0204,-3.091,-3.135,-3.1377,-3.1753,-3.1964,-3.1964,-3.2349,-3.2368,-3.201,-3.201,-3.1992,-3.1964,-3.1964,-3.1753,-2.6512,0.0,-2.7457,-2.8119,-2.8088,-2.8001,0.0,-2.8382,-2.8174,-2.8271,-2.8291,-2.8418,-2.8838,-2.9189,-2.9668,-3.0459,-3.1133,-3.1631,-3.1896,-3.2226,-3.2685,-3.3213,-3.3271,-3.3271,-3.3271,-3.3359,-3.3418,-3.3418,-3.3125,-3.29,-3.2803,-3.2178,-3.1728,-3.1523,-3.1309,-3.1191,-3.1191,-3.1191,-3.1143,-3.1035,-3.1035,-3.0986,-3.0889,-3.0889,-3.0889,-3.0889,-3.0889,-3.0889,-3.0889,-3.0889,-3.0889,-3.0889,-3.0889,-3.0889,-3.0889,-3.0889,-3.0889,-3.0889,-3.0889,-3.0889,-3.0889,-3.0889,-3.0889,-3.0889,-3.0889,-3.0889,-3.0889,-3.0889,-3.0889,-3.0889,-3.0889,-3.0635,-3.0382,-3.0333,-3.0039,-2.9804,-2.9695,-2.9509,-2.939,-2.939,-2.9153,-2.8984,-2.8984,-2.8984,-2.8984,-2.8984,-2.8984,-2.8984,-2.8984,-2.8984,-2.8984,-2.8984,-2.8984,-2.8984,-2.8984,-2.9434,-2.9855,-3.0176,-3.0653,-3.1066,-3.1368,-3.1469,-3.1524,-3.1524,-3.1937,-3.2093,-3.201,-3.201,-3.1836,-3.1524,-3.1524,-3.1469,-2.7185,-2.7442,-2.7772,-2.8367,-2.8535,-2.869,-2.8969,-2.8759,-2.8461,-2.8344,-2.8447,-2.8711,-2.9141,-2.957,-3.0146,-3.1035,-3.1406,-3.1719,-3.2109,-3.2695,-3.3096,-3.3135,-3.3135,-3.3057,-3.2861,-3.2842,-3.2842,-3.2842,-3.2637,-3.2422,-3.2217,-3.1768,-3.1426,-3.124,-3.1006,-3.0889,-3.0889,-3.0889,-3.0889,-3.0889,-3.0889,-3.0889,-3.0889,-3.0889,-3.0889,-3.0889,-3.0889,-3.0889,-3.0889,-3.0889,-3.0889,-3.0889,-3.0889,-3.0889,-3.0889,-3.0889,-3.0889,-3.0889,-3.0889,-3.0889,-3.0889,-3.0889,-3.0889,-3.0889,-3.0889,-3.0889,-3.0889,-3.0889,-3.0889,-3.0889,-3.0889,-3.0762,-3.0577,-3.045,-3.0265,-3.0098,-2.9922,-2.9804,-2.9627,-2.9499,-2.9331,-2.9153,-2.9044,-2.8984,-2.8984,-2.8984,-2.8984,-2.8984,-2.8984,-2.8984,-2.8984,-2.8984,-2.8984,-2.8984,-2.8984,-2.9177,-2.9562,-3.0167,-3.0571,-3.0965,-3.1359,-3.1561,-3.1753,-3.1937,-3.1983,-3.201,-3.201,-3.1808,-3.1598,-3.1377,-3.1377,-3.1377,-2.8001,-2.8218,-2.8228,-2.8653,-2.9025,-2.928,-2.9345,-2.9035,-2.8666,-2.8442,-2.8721,-2.915,-2.959,-3.0019,-3.0566,-3.1387,-3.1269,-3.1387,-3.2236,-3.2861,-3.3115,-3.2832,-3.2744,-3.2559,-3.2207,-3.2229,-3.2229,-3.2229,-3.2109,-3.1904,-3.1533,-3.1455,-3.126,-3.0898,-3.0889,-3.0889,-3.0889,-3.0889,-3.0889,-3.0889,-3.0889,-3.0889,-3.0889,-3.0889,-3.0889,-3.0889,-3.0889,-3.0889,-3.0889,-3.0889,-3.0889,-3.0889,-3.0889,-3.0889,-3.0889,-3.0889,-3.0889,-3.0879,-3.081,-3.0781,-3.0781,-3.0781,-3.0781,-3.0801,-3.0869,-3.0889,-3.0889,-3.0889,-3.0889,-3.0889,-3.0889,-3.0889,-3.083,-3.0509,-3.045,-3.0392,-3.0108,-2.9981,-2.9922,-2.9677,-2.9558,-2.939,-2.9153,-2.9044,-2.8984,-2.8984,-2.8984,-2.8984,-2.8984,-2.8984,-2.8984,-2.8984,-2.8984,-2.8984,-2.8984,-2.8984,-2.9333,-3.0149,-3.0516,-3.0901,-3.1359,-3.1717,-3.2065,-3.2404,-3.2084,-3.1909,-3.1909,-3.1552,-3.1377,-3.1377,-3.1377,-3.1377,-2.8309,-2.8881,-2.9328,-2.9661,-2.9756,-2.9615,-2.925,-2.8981,-2.8883,-2.8828,-2.917,-2.96,-3.0019,-3.0478,-3.0947,-3.1435,-3.1777,-3.2266,-3.3105,-3.2725,-3.2471,-3.2764,-3.248,-3.2297,-3.2238,-3.2229,-3.2229,-3.2229,-3.1826,-3.1592,-3.1523,-3.1182,-3.0957,-3.0889,-3.0889,-3.0889,-3.0889,-3.0889,-3.0889,-3.0889,-3.0889,-3.0889,-3.0889,-3.0889,-3.0889,-3.0889,-3.0889,-3.0889,-3.0889,-3.0889,-3.0889,-3.0889,-3.0889,-3.0889,-3.0889,-3.0889,-3.0889,-3.083,-3.0439,-3.0303,-3.0303,-3.0303,-3.0303,-3.0371,-3.0771,-3.0889,-3.0889,-3.0889,-3.0889,-3.0889,-3.0889,-3.0889,-3.0889,-3.083,-3.083,-3.083,-3.0772,-3.0518,-3.0323,-3.0265,-2.9863,-2.9499,-2.945,-2.9213,-2.8984,-2.8984,-2.8984,-2.8984,-2.8984,-2.8984,-2.8984,-2.8984,-2.8984,-2.8984,-2.8984,-2.8984,-2.9333,-3.0149,-3.0259,-3.0616,-3.135,-3.1442,-3.1506,-3.1561,-3.1506,-3.1469,-3.1469,-3.1405,-3.1377,-3.1377,-3.1377,-3.1377,-2.8084,-2.8817,-2.9476,-2.967,-3.0106,-3.0404,-3.0048,-2.9693,-2.9443,-2.9333,-2.9609,-2.9971,-3.0166,-3.0762,-3.1377,-3.1797,-3.2422,-3.2822,-3.2754,-3.2607,-3.2402,-3.2139,-3.1934,-3.1728,-3.1504,-3.1475,-3.1475,-3.1475,-3.1299,-3.1182,-3.1182,-3.0996,-3.0889,-3.0889,-3.0889,-3.0889,-3.0889,-3.0889,-3.0889,-3.0889,-3.0889,-3.0889,-3.0889,-3.0889,-3.0889,-3.0889,-3.0889,-3.0889,-3.0889,-3.0889,-3.0889,-3.0889,-3.0889,-3.0889,-3.0889,-3.0889,-3.0732,-3.0488,-3.0273,-3.0049,-2.9893,-3.0127,-3.0195,-3.0283,-3.0752,-3.0889,-3.0889,-3.0889,-3.0889,-3.0889,-3.0889,-3.0889,-3.0889,-3.0889,-3.0889,-3.0889,-3.0889,-3.0762,-3.0635,-3.045,-3.0206,-2.9912,-2.9745,-2.945,-2.9272,-2.9272,-2.9103,-2.8984,-2.8984,-2.8984,-2.8984,-2.8984,-2.8984,-2.8984,-2.8984,-2.9177,-2.9553,-3.0167,-3.0598,-3.0992,-3.1359,-3.1377,-3.1377,-3.1377,-3.1377,-3.1377,-3.1377,-3.1377,-3.1377,-3.1377,-3.1377,-3.1377,-2.8042,-2.863,-2.924,-2.9584,-3.0221,-3.076,-3.0697,-3.0366,-3.0066,-3.0047,-3.0283,-3.0508,-3.0508,-3.1143,-3.1777,-3.2119,-3.2793,-3.3047,-3.2412,-3.2422,-3.2256,-3.1592,-3.1435,-3.124,-3.0918,-3.0889,-3.0889,-3.0889,-3.0889,-3.084,-3.0732,-3.0732,-3.0684,-3.0586,-3.0674,-3.0732,-3.0732,-3.084,-3.0889,-3.0889,-3.0889,-3.0889,-3.0889,-3.0889,-3.0889,-3.0889,-3.0889,-3.0889,-3.0889,-3.0889,-3.0889,-3.0889,-3.0889,-3.0889,-3.0879,-3.0771,-3.0576,-3.0332,-3.0127,-2.9834,-2.9675,-2.9941,-3.0049,-3.0137,-3.0596,-3.0801,-3.0889,-3.0889,-3.0889,-3.0889,-3.0889,-3.0889,-3.0889,-3.0889,-3.0889,-3.0889,-3.0889,-3.0889,-3.083,-3.0577,-3.045,-3.0333,-3.0039,-2.9804,-2.9558,-2.9558,-2.939,-2.9213,-2.9103,-2.9103,-2.9103,-2.8984,-2.8984,-2.8984,-2.8984,-2.9434,-2.9855,-3.0176,-3.0855,-3.1277,-3.1377,-3.1377,-3.1377,-3.1377,-3.1377,-3.1377,-3.1377,-3.1377,-3.1377,-3.1377,-3.1377,-3.1377,-2.8439,-2.8665,-2.9053,-2.9929,-2.9998,-2.9998,-3.0482,-3.0413,-3.0391,-3.1211,-3.1406,-3.1426,-3.1426,-3.1807,-3.2129,-3.2158,-3.2549,-3.2822,-3.2764,-3.209,-3.1592,-3.1523,-3.1172,-3.0928,-3.0898,-3.0889,-3.0889,-3.0889,-3.0889,-3.0703,-3.0273,-3.0244,-3.0068,-2.9734,-3.0049,-3.0244,-3.0244,-3.0674,-3.0889,-3.0889,-3.0889,-3.0889,-3.0889,-3.0889,-3.0889,-3.0889,-3.0889,-3.0889,-3.0889,-3.0889,-3.0889,-3.0889,-3.0889,-3.0889,-3.084,-3.04,-3.0498,-3.0723,-2.9902,-2.959,-2.957,-2.96,-2.9619,-2.9697,-3.0117,-3.0547,-3.0889,-3.0889,-3.0889,-3.0889,-3.0889,-3.0889,-3.0889,-3.0889,-3.0889,-3.0889,-3.0889,-3.0889,-3.0889,-3.0889,-3.0635,-3.0382,-3.0392,-3.0098,-2.9863,-2.9863,-2.9863,-2.9745,-2.9509,-2.944,-2.9331,-2.9044,-2.8984,-2.8984,-2.8984,-2.97,-3.0167,-3.0204,-3.0598,-3.0992,-3.1359,-3.1377,-3.1377,-3.1377,-3.1377,-3.1377,-3.1377,-3.1377,-3.1377,-3.1377,-3.1377,-3.1377,-2.7531,-2.8049,-2.8869,-2.9267,-2.9605,-3.0117,-3.0878,-3.1169,-3.1427,-3.1857,-3.1709,-3.1435,-3.1172,-3.1475,-3.1768,-3.1768,-3.2119,-3.2314,-3.2041,-3.1719,-3.1426,-3.1162,-3.0986,-3.0889,-3.0889,-3.0889,-3.0771,-3.0478,-3.0459,-3.0264,-2.9834,-2.9814,-2.9736,-2.957,-2.9726,-2.9932,-3.0195,-3.0371,-3.0605,-3.0889,-3.0889,-3.0889,-3.0889,-3.0889,-3.0889,-3.0889,-3.0889,-3.0889,-3.0889,-3.0889,-3.0889,-3.0889,-3.0889,-3.0889,-3.083,-3.0371,-3.0303,-3.0371,-2.9775,-2.9394,-2.9209,-2.9482,-2.9385,-2.9297,-2.999,-3.0322,-3.0518,-3.081,-3.0889,-3.0889,-3.0889,-3.0889,-3.0889,-3.0889,-3.0889,-3.0889,-3.0889,-3.0889,-3.0889,-3.0889,-3.082,-3.0704,-3.0704,-3.046,-3.0216,-3.0216,-3.0039,-2.9863,-2.9745,-2.9745,-2.9627,-2.9331,-2.9103,-2.9085,-2.9333,-2.9874,-3.0305,-3.0552,-3.0937,-3.1222,-3.1368,-3.1377,-3.1377,-3.1377,-3.1377,-3.1377,-3.1377,-3.1377,-3.1377,-3.1377,-3.1377,-3.1377,-2.7285,-2.7889,-2.8755,-2.9029,-2.9631,-3.0376,-3.1126,-3.1504,-3.1771,-3.2111,-3.1719,-3.1182,-3.0752,-3.1025,-3.1318,-3.1318,-3.168,-3.1865,-3.1562,-3.1406,-3.1152,-3.0723,-3.0674,-3.0625,-3.0488,-3.0469,-3.0342,-3.0019,-3.0,-2.9814,-2.9385,-2.9365,-2.9307,-2.917,-2.9297,-2.9502,-2.9795,-2.9932,-3.0156,-3.0478,-3.0605,-3.0752,-3.0889,-3.0889,-3.0889,-3.0889,-3.0889,-3.0889,-3.0889,-3.0889,-3.0889,-3.0889,-3.0889,-3.0889,-3.083,-3.0371,-3.0195,-3.0137,-2.9717,-2.9287,-2.8965,-2.9268,-2.916,-2.9033,-2.9619,-2.9893,-3.0068,-3.0381,-3.0469,-3.0508,-3.0635,-3.0781,-3.0889,-3.0889,-3.0889,-3.0889,-3.0889,-3.0889,-3.0889,-3.0889,-3.0889,-3.0889,-3.0889,-3.0704,-3.0577,-3.0577,-3.0343,-3.0167,-3.0098,-3.0039,-2.9981,-2.9686,-2.9331,-2.9264,-2.9541,-2.9944,-3.0314,-3.0589,-3.1093,-3.1377,-3.1377,-3.1377,-3.1377,-3.1377,-3.1377,-3.1377,-3.1377,-3.1377,-3.1377,-3.1377,-3.1377,-3.1377,-2.8037,-2.834,-2.8689,-2.9491,-3.0063,-3.0645,-3.1184,-3.1102,-3.1133,-3.2053,-3.1494,-3.0752,-3.0283,-3.0576,-3.0889,-3.0889,-3.123,-3.1504,-3.1504,-3.1143,-3.0703,-3.0244,-3.0185,-3.0029,-2.9665,-2.9626,-2.9626,-2.956,-2.956,-2.9375,-2.8935,-2.8916,-2.8721,-2.8301,-2.8701,-2.8916,-2.8916,-2.9346,-2.9626,-2.957,-2.999,-3.043,-3.0889,-3.0889,-3.0889,-3.0889,-3.0889,-3.0889,-3.0889,-3.0889,-3.0889,-3.0889,-3.0889,-3.0889,-3.083,-3.0361,-3.0185,-3.0127,-2.9707,-2.9277,-2.8916,-2.8916,-2.8916,-2.8916,-2.8916,-2.9219,-2.956,-2.9626,-2.9626,-2.9668,-3.0088,-3.0537,-3.0889,-3.0889,-3.0889,-3.0889,-3.0889,-3.0889,-3.0889,-3.0889,-3.0889,-3.0889,-3.0889,-3.0889,-3.0889,-3.0889,-3.0889,-3.0762,-3.045,-3.0382,-3.0274,-2.9922,-2.9686,-2.9499,-2.9499,-2.9971,-3.0195,-3.0195,-3.0937,-3.1377,-3.1377,-3.1377,-3.1377,-3.1377,-3.1377,-3.1377,-3.1377,-3.1377,-3.1377,-3.1377,-3.1377,-3.1377,-2.729,-2.7545,-2.8197,-2.8876,-2.9449,-3.0053,-3.0673,-3.1238,-3.1702,-3.172,-3.1514,-3.1103,-3.0332,-3.0576,-3.0781,-3.0459,-3.0508,-3.0586,-3.0586,-3.0225,-2.9912,-2.9766,-2.9756,-2.9707,-2.9636,-2.9626,-2.9443,-2.9141,-2.9111,-2.8926,-2.8506,-2.8476,-2.8418,-2.8301,-2.8418,-2.8623,-2.8916,-2.9053,-2.9268,-2.9626,-2.9697,-2.998,-3.042,-3.0742,-3.0889,-3.0889,-3.0889,-3.0889,-3.0889,-3.0889,-3.0889,-3.0889,-3.0889,-3.0693,-3.0351,-2.9912,-2.9756,-2.9697,-2.9258,-2.9023,-2.8916,-2.8916,-2.8721,-2.8535,-2.8828,-2.9014,-2.918,-2.9482,-2.9626,-2.9668,-3.0088,-3.0303,-3.0488,-3.081,-3.0889,-3.0889,-3.0889,-3.0889,-3.0889,-3.0889,-3.0889,-3.0889,-3.0889,-3.0889,-3.0889,-3.0889,-3.0889,-3.0889,-3.0762,-3.0577,-3.0382,-3.0265,-2.9981,-2.9804,-2.9804,-3.0447,-3.0926,-3.0926,-3.1453,-3.1644,-3.1377,-3.1377,-3.1377,-3.1377,-3.1377,-3.1377,-3.1377,-3.1377,-3.1377,-3.1377,-3.1377,-3.1377,-2.7725,-2.7934,-2.8476,-2.9389,-2.9717,-2.9939,-3.0374,-3.0904,-3.123,-3.1055,-3.0723,-3.0371,-3.001,-3.0039,-3.0068,-2.9961,-2.9941,-2.9941,-2.9941,-2.9726,-2.9502,-2.9336,-2.9307,-2.9248,-2.9082,-2.9062,-2.8955,-2.8691,-2.8672,-2.8564,-2.8301,-2.8291,-2.8291,-2.8291,-2.8291,-2.8418,-2.8672,-2.8672,-2.8799,-2.9062,-2.9228,-2.9443,-2.9707,-3.0332,-3.0713,-3.0889,-3.0889,-3.0889,-3.0889,-3.0889,-3.0781,-3.0615,-3.0615,-3.0342,-2.9912,-2.9658,-2.9453,-2.9277,-2.9014,-2.8809,-2.8672,-2.8672,-2.8496,-2.834,-2.8594,-2.8672,-2.873,-2.8984,-2.9062,-2.916,-2.958,-2.9814,-3.0107,-3.0742,-3.0889,-3.0889,-3.0889,-3.0889,-3.0889,-3.0889,-3.0889,-3.0889,-3.0889,-3.0889,-3.0889,-3.0889,-3.0889,-3.0889,-3.0889,-3.0704,-3.0577,-3.0577,-3.0274,-3.0098,-3.0098,-3.0588,-3.0982,-3.1214,-3.1618,-3.187,-3.1827,-3.1506,-3.1377,-3.1377,-3.1377,-3.1377,-3.1377,-3.1377,-3.1377,-3.1377,-3.1377,-3.1377,-2.88,-2.8996,-2.9121,-3.0497,-3.0478,-3.0185,-3.0146,-3.0107,-3.0088,-3.0137,-2.9521,-2.9101,-2.9502,-2.9248,-2.9111,-2.9502,-2.9531,-2.9567,-2.9567,-2.9473,-2.9307,-2.8906,-2.8867,-2.8711,-2.833,-2.8291,-2.8291,-2.8291,-2.8291,-2.8291,-2.8291,-2.8291,-2.8291,-2.8291,-2.8291,-2.8291,-2.8291,-2.8291,-2.8291,-2.8301,-2.8682,-2.8877,-2.8945,-2.9766,-3.0391,-3.083,-3.0869,-3.0869,-3.083,-3.083,-3.0557,-3.0137,-3.0137,-2.9883,-2.9567,-2.9567,-2.9238,-2.8867,-2.8867,-2.8613,-2.8291,-2.8291,-2.8291,-2.8291,-2.8291,-2.8291,-2.8291,-2.8291,-2.8291,-2.8389,-2.8809,-2.9248,-2.9785,-3.0625,-3.0859,-3.0889,-3.0889,-3.0889,-3.0889,-3.0889,-3.0889,-3.0889,-3.0889,-3.0889,-3.0889,-3.0889,-3.0889,-3.0889,-3.0889,-3.0889,-3.0889,-3.0889,-3.0635,-3.045,-3.045,-3.0539,-3.0778,-3.1266,-3.1603,-3.1958,-3.2403,-3.1772,-3.1442,-3.1442,-3.1442,-3.1377,-3.1377,-3.1377,-3.1377,-3.1377,-3.1377,-3.1377,-2.8259,-2.8301,-2.8509,-2.9875,-3.0199,-3.0107,-2.9785,-2.9443,-2.9287,-2.9639,-2.956,-2.9453,-2.9551,-2.9492,-2.9463,-2.9551,-2.9277,-2.9062,-2.9062,-2.8779,-2.8525,-2.8437,-2.8428,-2.8389,-2.8301,-2.8291,-2.8291,-2.8291,-2.8291,-2.8291,-2.8291,-2.8291,-2.8291,-2.8291,-2.8291,-2.8291,-2.8291,-2.8291,-2.8291,-2.8291,-2.8389,-2.8603,-2.8935,-2.9463,-2.9941,-3.0361,-3.0732,-3.0684,-3.0342,-3.0342,-3.0088,-2.9707,-2.9707,-2.9443,-2.9062,-2.9062,-2.8789,-2.8428,-2.8428,-2.8369,-2.8291,-2.8291,-2.8291,-2.8291,-2.8291,-2.8291,-2.8291,-2.8291,-2.8291,-2.8389,-2.8809,-2.9248,-2.9707,-3.0225,-3.0625,-3.0889,-3.0889,-3.0889,-3.0889,-3.0889,-3.0889,-3.0889,-3.0889,-3.0889,-3.0889,-3.0889,-3.0889,-3.0889,-3.0889,-3.0889,-3.0889,-3.0889,-3.083,-3.0762,-3.0762,-3.1092,-3.1519,-3.1956,-3.1757,-3.2018,-3.2765,-3.2166,-3.1782,-3.1782,-3.1515,-3.1377,-3.1377,-3.1377,-3.1377,-3.1377,-3.1377,-3.1377,-2.8176,-2.8413,-2.8736,-3.0108,-3.0486,-3.0361,-2.9717,-2.9394,-2.918,-2.8994,-2.8965,-2.8965,-2.8965,-2.8965,-2.8965,-2.8965,-2.8769,-2.8613,-2.8613,-2.8428,-2.8291,-2.8291,-2.8291,-2.8291,-2.8291,-2.8291,-2.8291,-2.8291,-2.8291,-2.8291,-2.8291,-2.8291,-2.8291,-2.8291,-2.8291,-2.8291,-2.8291,-2.8291,-2.8291,-2.8291,-2.8291,-2.8408,-2.8643,-2.9277,-2.9687,-2.9912,-3.0156,-3.0117,-2.9893,-2.9893,-2.9648,-2.9258,-2.9258,-2.8994,-2.8613,-2.8613,-2.8476,-2.8291,-2.8291,-2.8291,-2.8291,-2.8291,-2.8291,-2.8291,-2.8291,-2.8291,-2.8291,-2.8291,-2.8291,-2.834,-2.8564,-2.9092,-2.9629,-2.9844,-3.041,-3.0889,-3.0889,-3.0889,-3.0889,-3.0889,-3.0889,-3.0889,-3.0889,-3.0889,-3.0889,-3.0889,-3.0889,-3.0889,-3.0889,-3.0889,-3.0889,-3.0889,-3.0889,-3.0889,-3.0889,-3.1094,-3.1406,-3.1836,-3.1859,-3.2206,-3.2845,-3.2562,-3.2294,-3.2166,-3.1974,-3.1772,-3.1644,-3.1644,-3.158,-3.1377,-3.1377,-3.1377,-2.7968,-2.8593,-2.9199,-3.0371,-3.0539,-3.0325,-2.9756,-2.94,-2.9027,-2.8491,-2.834,-2.8291,-2.8291,-2.8291,-2.8291,-2.8291,-2.8291,-2.8291,-2.8291,-2.8291,-2.8291,-2.8291,-2.8291,-2.8291,-2.8291,-2.8291,-2.8291,-2.8291,-2.8291,-2.8291,-2.8291,-2.8291,-2.8291,-2.8291,-2.8291,-2.8291,-2.8291,-2.8291,-2.8291,-2.8291,-2.8291,-2.8291,-2.831,-2.9023,-2.9385,-2.9463,-2.9531,-2.9531,-2.9453,-2.9453,-2.9209,-2.8809,-2.8809,-2.8603,-2.8291,-2.8291,-2.8291,-2.8291,-2.8291,-2.8291,-2.8291,-2.8291,-2.8291,-2.8291,-2.8291,-2.8291,-2.8291,-2.8291,-2.8291,-2.831,-2.8389,-2.8984,-2.9646,-2.9658,-3.0303,-3.0889,-3.0889,-3.0889,-3.0889,-3.0889,-3.0889,-3.0889,-3.0889,-3.0889,-3.0889,-3.0889,-3.0889,-3.0889,-3.0889,-3.0889,-3.0889,-3.0889,-3.0889,-3.0889,-3.0889,-3.0889,-3.1103,-3.1601,-3.1894,-3.2314,-3.2881,-3.2913,-3.279,-3.2603,-3.2485,-3.223,-3.1983,-3.1983,-3.1846,-3.157,-3.157,-3.1506,-2.6687,-2.7823,-2.9053,-2.9609,-2.9203,-2.8818,-2.9453,-2.8434,-2.7632,-2.8639,-2.8545,-2.8291,-2.8291,-2.8291,-2.8291,-2.8291,-2.8291,-2.8291,-2.8291,-2.8291,-2.8291,-2.8291,-2.8291,-2.8291,-2.8291,-2.8291,-2.8291,-2.8291,-2.8291,-2.8291,-2.8291,-2.8291,-2.8291,-2.8291,-2.8291,-2.8291,-2.8291,-2.8291,-2.8291,-2.8291,-2.8291,-2.8291,-2.8301,-2.8408,-2.8662,-2.9023,-2.9404,-2.9355,-2.9004,-2.9004,-2.876,-2.8379,-2.8379,-2.834,-2.8291,-2.8291,-2.8291,-2.8291,-2.8291,-2.8291,-2.8291,-2.8291,-2.8291,-2.8291,-2.8291,-2.8291,-2.8291,-2.8291,-2.8291,-2.8379,-2.874,-2.9199,-2.9658,-3.0029,-3.0508,-3.0889,-3.0889,-3.0889,-3.0889,-3.0889,-3.0889,-3.0889,-3.0889,-3.0889,-3.0889,-3.0889,-3.0889,-3.0889,-3.0889,-3.0889,-3.0889,-3.0889,-3.0889,-3.0889,-3.0889,-3.0889,-3.123,-3.2031,-3.1787,-3.2129,-3.3291,-3.2975,-3.2984,-3.3292,-3.2667,-3.2358,-3.2358,-3.2358,-3.2294,-3.2294,-3.2294,-3.2102,-2.6218,-2.7343,-2.8437,-2.9346,-2.9304,-2.8994,-2.887,-2.7977,-2.7234,-2.7452,-2.7059,-2.6801,-2.721,-2.7853,-2.8067,-2.7413,-2.7853,-2.8291,-2.8291,-2.8291,-2.8291,-2.8291,-2.8291,-2.8291,-2.8291,-2.8291,-2.8291,-2.8291,-2.8291,-2.8291,-2.8291,-2.8291,-2.8291,-2.8291,-2.8291,-2.8291,-2.8291,-2.8291,-2.8291,-2.8291,-2.8291,-2.8291,-2.8291,-2.8291,-2.8398,-2.8584,-2.8769,-2.874,-2.8564,-2.8564,-2.8457,-2.8291,-2.8291,-2.8291,-2.8291,-2.8291,-2.8291,-2.8291,-2.8291,-2.8291,-2.8291,-2.8291,-2.8291,-2.8291,-2.8291,-2.8291,-2.8291,-2.8291,-2.8291,-2.8389,-2.8809,-2.9248,-2.9678,-3.0098,-3.0547,-3.0889,-3.0889,-3.0889,-3.0889,-3.0889,-3.0889,-3.0889,-3.0889,-3.0889,-3.0889,-3.0889,-3.0889,-3.0889,-3.0889,-3.0889,-3.0889,-3.0889,-3.0889,-3.0889,-3.0889,-3.0889,-3.1055,-3.1435,-3.1728,-3.2129,-3.2695,-3.2998,-3.3232,-3.3418,-3.3111,-3.2858,-3.2667,-3.2667,-3.2603,-3.2422,-3.2422,-3.2294,-2.5936,-2.6818,-2.7594,-2.8588,-2.8716,-2.8465,-2.7746,-2.6921,-2.6245,-2.5936,-2.5468,-2.5172,-2.5441,-2.6704,-2.7412,-2.6533,-2.7175,-2.796,-2.8237,-2.8291,-2.8291,-2.8291,-2.8291,-2.8291,-2.8291,-2.8291,-2.8291,-2.8291,-2.8291,-2.8291,-2.8291,-2.8291,-2.8291,-2.8291,-2.8291,-2.8291,-2.8291,-2.8291,-2.8291,-2.8291,-2.8291,-2.8291,-2.8291,-2.8291,-2.8291,-2.8291,-2.8291,-2.8291,-2.8291,-2.8291,-2.8291,-2.8291,-2.8291,-2.8291,-2.8291,-2.8291,-2.8291,-2.8291,-2.8291,-2.8291,-2.8291,-2.8291,-2.8291,-2.8291,-2.8291,-2.8291,-2.8291,-2.8291,-2.8291,-2.8418,-2.8945,-2.9326,-2.9707,-3.0244,-3.0635,-3.0889,-3.0889,-3.0889,-3.0889,-3.0889,-3.0889,-3.0889,-3.0889,-3.0889,-3.0889,-3.0889,-3.0889,-3.0889,-3.0889,-3.0889,-3.0889,-3.0889,-3.0889,-3.0889,-3.0889,-3.0889,-3.0937,-3.1045,-3.165,-3.21,-3.2314,-3.293,-3.331,-3.3418,-3.3418,-3.3292,-3.3048,-3.3048,-3.2921,-3.2667,-3.2667,-3.2603,-2.5702,-2.6291,-2.6495,-2.6621,-2.6359,-2.601,-2.5804,-2.4669,-2.3878,-2.4367,-2.4449,-2.3999,-2.2905,-2.4546,-2.6021,-2.6002,-2.6333,-2.6961,-2.813,-2.8291,-2.8291,-2.8291,-2.8291,-2.8291,-2.8291,-2.8291,-2.8291,-2.8291,-2.8291,-2.8291,-2.8291,-2.8291,-2.8291,-2.8291,-2.8291,-2.8291,-2.8291,-2.8291,-2.8291,-2.8291,-2.8291,-2.8291,-2.8291,-2.8291,-2.8291,-2.8291,-2.8291,-2.8291,-2.8291,-2.8291,-2.8291,-2.8291,-2.8291,-2.8291,-2.8291,-2.8291,-2.8291,-2.8291,-2.8291,-2.8291,-2.8291,-2.8291,-2.8291,-2.8291,-2.8291,-2.8291,-2.8291,-2.8291,-2.8291,-2.8486,-2.9316,-2.9551,-2.9785,-3.0644,-3.0869,-3.0889,-3.0889,-3.0889,-3.0889,-3.0889,-3.0889,-3.0889,-3.0889,-3.0889,-3.0889,-3.0889,-3.0889,-3.0889,-3.0889,-3.0889,-3.0889,-3.0889,-3.0889,-3.0889,-3.0889,-3.0889,-3.1064,-3.1455,-3.1523,-3.1914,-3.2725,-3.2803,-3.3018,-3.3418,-3.3418,-3.3364,-3.3355,-3.3355,-3.3355,-3.3355,-3.3355,-3.3175,-2.4536,-2.5094,-2.5684,-2.6289,-2.5996,-2.5458,-2.5086,-2.3983,-2.2975,-2.3047,-2.2858,-2.2533,-2.2108,-2.3586,-2.4967,-2.5151,-2.5928,-2.6907,-2.8121,-2.8291,-2.8291,-2.8291,-2.8291,-2.8291,-2.8291,-2.8291,-2.8291,-2.8291,-2.8291,-2.8291,-2.8291,-2.8291,-2.8291,-2.8291,-2.8291,-2.8291,-2.8291,-2.8291,-2.8291,-2.8291,-2.8291,-2.8291,-2.8291,-2.8291,-2.8291,-2.8291,-2.8291,-2.8291,-2.8291,-2.8291,-2.8291,-2.8291,-2.8291,-2.8291,-2.8291,-2.8291,-2.8291,-2.8291,-2.8291,-2.8291,-2.8291,-2.8291,-2.8291,-2.8291,-2.8291,-2.8291,-2.8291,-2.8291,-2.8291,-2.8428,-2.9004,-2.9365,-2.9795,-3.0674,-3.0889,-3.0889,-3.0889,-3.0889,-3.0889,-3.0889,-3.0889,-3.0889,-3.0889,-3.0889,-3.0889,-3.0889,-3.0889,-3.0889,-3.0889,-3.0889,-3.0889,-3.0889,-3.0889,-3.0889,-3.0889,-3.0889,-3.0957,-3.1103,-3.1367,-3.1787,-3.2363,-3.2656,-3.2998,-3.3418,-3.3418,-3.3418,-3.3418,-3.3418,-3.3418,-3.3418,-3.3418,-3.3364,-2.3841,-2.4336,-2.5077,-2.5303,-2.5236,-2.4968,-2.4429,-2.3393,-2.2528,-2.2244,-2.1807,-2.1565,-2.1938,-2.261,-2.3283,-2.3844,-2.5044,-2.63,-2.752,-2.8014,-2.8291,-2.8291,-2.8291,-2.8291,-2.8291,-2.8291,-2.8291,-2.8291,-2.8291,-2.8291,-2.8291,-2.8291,-2.8291,-2.8291,-2.8291,-2.8291,-2.8291,-2.8291,-2.8291,-2.8291,-2.8291,-2.8291,-2.8291,-2.8291,-2.8291,-2.8291,-2.8291,-2.8291,-2.8291,-2.8291,-2.8291,-2.8291,-2.8291,-2.8291,-2.8291,-2.8291,-2.8291,-2.8291,-2.8291,-2.8291,-2.8291,-2.8291,-2.8291,-2.8291,-2.8291,-2.8291,-2.8291,-2.8291,-2.8291,-2.8428,-2.8984,-2.957,-3.0166,-3.0752,-3.0889,-3.0889,-3.0889,-3.0889,-3.0889,-3.0889,-3.0889,-3.0889,-3.0889,-3.0889,-3.0889,-3.0889,-3.0889,-3.0889,-3.0889,-3.0889,-3.0889,-3.0889,-3.0889,-3.0889,-3.0889,-3.0889,-3.0889,-3.0889,-3.1152,-3.1504,-3.1934,-3.2363,-3.2783,-3.3203,-3.335,-3.3418,-3.3418,-3.3418,-3.3418,-3.3418,-3.3418,-3.3418,0.0,0.0,0.0,-2.3573,-2.398,-2.441,-2.3748,-2.2967,-2.2268,-2.2097,-2.1353,-2.1104,-2.2356,-2.1605,-2.1167,-2.2356,-2.3781,-2.5113,-2.63,-2.752,-2.8291,-2.8291,-2.8291,-2.8291,-2.8291,-2.8291,-2.8291,-2.8291,-2.8291,-2.8291,-2.8291,-2.8291,-2.8291,-2.8291,-2.8291,-2.8291,-2.8291,-2.8291,-2.8291,-2.8291,-2.8291,-2.8291,-2.8291,-2.8291,-2.8291,-2.8291,-2.8291,-2.8291,-2.8291,-2.8291,-2.8291,-2.8291,-2.8291,-2.8291,-2.8291,-2.8291,-2.8291,-2.8291,-2.8291,-2.8291,-2.8291,-2.8291,-2.8291,-2.8291,-2.8291,-2.8291,-2.8291,-2.8291,-2.8291,-2.8486,-2.9336,-3.0205,-3.0869,-3.0859,-3.0869,-3.0889,-3.0869,-3.0879,-3.0889,-3.0889,-3.0889,-3.0889,-3.0889,-3.0889,-3.0889,-3.0889,-3.0889,-3.0889,-3.0889,-3.0889,-3.0889,-3.0889,-3.0889,-3.0889,-3.0889,-3.0889,-3.0889,-3.0889,-3.0889,-3.1074,-3.1504,-3.1924,-3.2344,-3.2764,-3.3174,-3.3389,-3.3408,-3.3418,-3.3418,-3.3418,-3.3418,-3.3418,-2.396,0.0,0.0,0.0,0.0,0.0,-2.3976,-2.3349,-2.2892,-2.3095,-2.2467,-2.2308,-2.3814,-2.3158,-2.2719,-2.3919,-2.4437,-2.5113,-2.63,-2.752,-2.8291,-2.8291,-2.8291,-2.8291,-2.8291,-2.8291,-2.8291,-2.8291,-2.8291,-2.8291,-2.8291,-2.8291,-2.8291,-2.8291,-2.8291,-2.8291,-2.8291,-2.8291,-2.8291,-2.8291,-2.8291,-2.8291,-2.8291,-2.8291,-2.8291,-2.8291,-2.8291,-2.8291,-2.8291,-2.8291,-2.8291,-2.8291,-2.8291,-2.8291,-2.8291,-2.8291,-2.8291,-2.8291,-2.8291,-2.8291,-2.8291,-2.8291,-2.8291,-2.8291,-2.8291,-2.8291,-2.8291,-2.8291,-2.8291,-2.8418,-2.8955,-2.9736,-3.0312,-3.001,-3.043,-3.0801,-3.0459,-3.0654,-3.0889,-3.0889,-3.0889,-3.0889,-3.0889,-3.0889,-3.0889,-3.0889,-3.0889,-3.0889,-3.0889,-3.0889,-3.0889,-3.0889,-3.0889,-3.0889,-3.0889,-3.0889,-3.0889,-3.0889,-3.0889,-3.1074,-3.1504,-3.1631,-3.1904,-3.2334,-3.2451,-3.2666,-3.2969,-3.3271,-3.3418,-3.3418,-3.3418,-3.3418,-2.4701,-2.4589,-2.4715,-2.4931,0.0,0.0,-2.5334,-2.4665,-2.4061,-2.4668,-2.3984,-2.3764,-2.5188,-2.4514,-2.4078,-2.5232,-2.5452,-2.568,-2.6409,-2.752,-2.8291,-2.8291,-2.8291,-2.8291,-2.8291,-2.8291,-2.8291,-2.8291,-2.8291,-2.8291,-2.8291,-2.8291,-2.8291,-2.8291,-2.8291,-2.8291,-2.8291,-2.8291,-2.8291,-2.8291,-2.8291,-2.8291,-2.8291,-2.8291,-2.8291,-2.8291,-2.8291,-2.8291,-2.8291,-2.8291,-2.8291,-2.8291,-2.8291,-2.8291,-2.8291,-2.8291,-2.8291,-2.8291,-2.8291,-2.8291,-2.8291,-2.8291,-2.8291,-2.8291,-2.8291,-2.8291,-2.8291,-2.8291,-2.8418,-2.8613,-2.8857,-2.9424,-2.9873,-2.9685,-2.9971,-3.0312,-3.0215,-3.041,-3.0664,-3.085,-3.0889,-3.083,-3.0635,-3.0605,-3.0605,-3.0605,-3.0605,-3.0674,-3.0869,-3.0889,-3.0889,-3.0889,-3.0889,-3.0889,-3.0889,-3.0889,-3.0889,-3.0889,-3.0889,-3.0996,-3.124,-3.1426,-3.1641,-3.1894,-3.207,-3.2373,-3.2793,-3.3037,-3.3252,-3.3418,-3.3418,-3.3418,-2.5673,-2.5315,-2.5115,-2.5204,-2.5418,0.0,-2.7023,-2.6248,-2.5537,-2.6375,-2.5539,-2.5049,-2.6326,-2.5583,-2.5208,-2.6399,-2.6635,-2.6636,-2.6527,-2.7558,-2.8359,-2.8359,-2.8359,-2.8359,-2.8359,-2.832,-2.8291,-2.8291,-2.8291,-2.8291,-2.8291,-2.8291,-2.8291,-2.8291,-2.8291,-2.8291,-2.8291,-2.8291,-2.8291,-2.8291,-2.8291,-2.8291,-2.8291,-2.8291,-2.8291,-2.8291,-2.8291,-2.8291,-2.8291,-2.8291,-2.8291,-2.8291,-2.8291,-2.8291,-2.8291,-2.8291,-2.8291,-2.8291,-2.8291,-2.8291,-2.8291,-2.8291,-2.8291,-2.8291,-2.8291,-2.8291,-2.8291,-2.8291,-2.8594,-2.8906,-2.8857,-2.9209,-2.9607,-2.9509,-2.9558,-2.9658,-2.998,-3.0098,-3.0254,-3.0664,-3.0781,-3.0684,-3.0264,-3.0156,-3.0146,-3.0185,-3.0195,-3.0361,-3.083,-3.0889,-3.0889,-3.0889,-3.0889,-3.0889,-3.0889,-3.0889,-3.0889,-3.0889,-3.0889,-3.0889,-3.0889,-3.125,-3.1445,-3.1445,-3.1875,-3.2285,-3.2656,-3.2793,-3.3057,-3.3418,-3.3418,-3.3418,-2.6263,-2.5967,-2.6075,-2.5556,-2.5742,0.0,-2.6569,-2.63,-2.6094,-2.6611,-2.5624,-2.51,-2.6611,-2.62,-2.594,-2.6787,-2.7516,-2.7628,-2.6636,-2.7806,-2.8799,-2.8799,-2.8799,-2.8799,-2.8799,-2.8496,-2.8291,-2.8291,-2.8291,-2.8291,-2.8291,-2.8291,-2.8291,-2.8291,-2.8291,-2.8291,-2.8291,-2.8291,-2.8291,-2.8291,-2.8291,-2.8291,-2.8291,-2.8291,-2.8291,-2.8291,-2.8291,-2.8291,-2.8291,-2.8291,-2.8291,-2.8291,-2.8291,-2.8291,-2.8291,-2.8291,-2.8291,-2.8291,-2.8291,-2.8291,-2.8291,-2.8291,-2.8291,-2.8291,-2.8291,-2.8291,-2.8291,-2.8291,-2.8594,-2.8838,-2.8506,-2.8994,-2.9394,-2.8701,-2.9072,-2.9502,-2.9228,-2.9443,-2.9717,-2.9814,-3.0107,-3.0303,-3.0215,-2.9912,-2.9814,-3.0146,-3.0195,-3.0361,-3.083,-3.0889,-3.0889,-3.0889,-3.0889,-3.0889,-3.0889,-3.0889,-3.0889,-3.0889,-3.0889,-3.0889,-3.0889,-3.0976,-3.1016,-3.1016,-3.1426,-3.1689,-3.1768,-3.2803,-3.334,-3.3418,-3.3418,-3.3418,-2.7782,-2.7284,-2.707,-2.6764,-2.6749,0.0,0.0,-2.6769,-2.6694,-2.7033,-2.6499,-2.6203,-2.6861,-2.6714,-2.665,-2.7231,-2.7705,-2.7835,-2.7438,-2.808,-2.8603,-2.8603,-2.8603,-2.8603,-2.8603,-2.8418,-2.8291,-2.8291,-2.8291,-2.8291,-2.8291,-2.8291,-2.8291,-2.8291,-2.8291,-2.8291,-2.8291,-2.8291,-2.8354,-2.8514,-2.8344,-2.8344,-2.8514,-2.8344,-2.8344,-2.8514,-2.8344,-2.8398,-2.8514,-2.8344,-2.8291,-2.8291,-2.8291,-2.8291,-2.8291,-2.8291,-2.8291,-2.8291,-2.8291,-2.8291,-2.8291,-2.8291,-2.8291,-2.8291,-2.8291,-2.8291,-2.8291,-2.8291,-2.8447,-2.8555,-2.835,-2.8613,-2.8828,-2.8398,-2.8613,-2.8926,-2.8926,-2.9092,-2.9307,-2.9531,-2.956,-2.956,-2.956,-2.9385,-2.9316,-2.9531,-2.9746,-3.0049,-3.0488,-3.0752,-3.0889,-3.0889,-3.0889,-3.0889,-3.0889,-3.0889,-3.0889,-3.0889,-3.0889,-3.0889,-3.0889,-3.0889,-3.0889,-3.0889,-3.1299,-3.1514,-3.1514,-3.2588,-3.3105,-3.3105,-3.3105,-3.3223,-2.9071,-2.8604,-2.821,-2.8066,0.0,-2.8009,0.0,0.0,0.0,-2.7551,-2.7392,-2.7151,-2.696,-2.6988,-2.7125,-2.74,-2.7604,-2.7829,-2.7996,-2.8119,-2.8232,-2.8398,-2.8418,-2.8418,-2.8418,-2.834,-2.8291,-2.8291,-2.8291,-2.8291,-2.8291,-2.8291,-2.8291,-2.8291,-2.8291,-2.8291,-2.8291,-2.8344,-2.8514,-2.8684,-2.8504,-2.8558,-2.8781,-2.8558,-2.8558,-2.8781,-2.8514,-2.8514,-2.8684,-2.8461,-2.8354,-2.8291,-2.8291,-2.8291,-2.8291,-2.8291,-2.8291,-2.8291,-2.8291,-2.8291,-2.8291,-2.8291,-2.8291,-2.8291,-2.8291,-2.8291,-2.8291,-2.8291,-2.8291,-2.8291,-2.8291,-2.8291,-2.8291,-2.8291,-2.8291,-2.8389,-2.8721,-2.8799,-2.8906,-2.9258,-2.9043,-2.8818,-2.8906,-2.8848,-2.8848,-2.9023,-2.9346,-2.9756,-3.0264,-3.0664,-3.0889,-3.0889,-3.0889,-3.0889,-3.0889,-3.0889,-3.0889,-3.0889,-3.0889,-3.0889,-3.0889,-3.0889,-3.0889,-3.0889,-3.1221,-3.1396,-3.1396,-3.209,-3.251,-3.2685,-3.2842,-3.3057,-2.893,-2.915,0.0,0.0,-2.9235,-2.9886,-2.9909,0.0,-2.8181,-2.8188,0.0,-2.6599,-2.655,0.0,0.0,-2.6681,-2.736,-2.7712,-2.7082,-2.7452,-2.8018,-2.876,-2.8848,-2.8848,-2.8848,-2.8506,-2.8291,-2.8291,-2.8291,-2.8291,-2.8291,-2.8291,-2.8291,-2.8291,-2.8291,-2.8291,-2.8291,-2.8514,-2.8684,-2.8684,-2.893,-2.9026,-2.9026,-2.9026,-2.9026,-2.9026,-2.8781,-2.8674,-2.8684,-2.8684,-2.8514,-2.8291,-2.8291,-2.8291,-2.8291,-2.8291,-2.8291,-2.8291,-2.8291,-2.8291,-2.8291,-2.8291,-2.8291,-2.8291,-2.8291,-2.8291,-2.8291,-2.8291,-2.8291,-2.8291,-2.8291,-2.8291,-2.8291,-2.8291,-2.8291,-2.8301,-2.8359,-2.8359,-2.8379,-2.8428,-2.8398,-2.8476,-2.8857,-2.8613,-2.8623,-2.9385,-2.9597,-2.9929,-3.0703,-3.0859,-3.0889,-3.0889,-3.0889,-3.0889,-3.0889,-3.0889,-3.0889,-3.0889,-3.0889,-3.0889,-3.0889,-3.0889,-3.0889,-3.0889,-3.0937,-3.0957,-3.0967,-3.1055,-3.1494,-3.2256,-3.3008,-3.3174,-2.961,-2.9963,0.0,0.0,0.0,0.0,-3.0236,0.0,-2.9383,-2.9177,0.0,0.0,0.0,0.0,0.0,0.0,-2.7192,-2.7462,-2.7402,-2.7611,-2.7873,-2.8178,-2.8193,-2.8291,-2.8535,-2.8559,-2.8353,-2.8002,-2.8323,-2.8353,-2.7992,-2.8164,-2.8291,-2.8291,-2.8291,-2.8344,-2.8514,-2.8621,-2.8887,-2.9248,-2.9132,-2.9185,-2.9396,-2.9185,-2.9185,-2.9396,-2.9089,-2.9036,-2.9195,-2.9036,-2.8877,-2.8761,-2.8621,-2.8461,-2.8291,-2.8291,-2.8291,-2.8291,-2.8291,-2.8291,-2.8291,-2.8291,-2.8291,-2.8291,-2.8291,-2.8291,-2.8291,-2.8291,-2.8291,-2.8291,-2.8291,-2.8291,-2.8291,-2.8291,-2.8291,-2.8291,-2.8291,-2.8291,-2.8291,-2.8291,-2.8291,-2.835,-2.8525,-2.8408,-2.8496,-2.9101,-2.9414,-2.9795,-3.041,-3.0723,-3.0889,-3.0889,-3.0889,-3.0889,-3.0889,-3.0889,-3.0889,-3.0889,-3.0889,-3.0889,-3.0889,-3.0889,-3.0889,-3.0889,-3.0889,-3.0889,-3.0889,-3.1133,-3.1318,-3.1445,-3.2305,-3.2734,-3.0419,0.0,0.0,0.0,0.0,0.0,0.0,0.0,0.0,0.0,-2.9161,0.0,0.0,0.0,-2.6825,-2.7229,0.0,-2.7129,-2.7511,-2.7563,-2.7642,-2.7754,-2.7816,-2.8065,-2.8475,-2.8621,-2.8493,-2.8019,-2.839,-2.843,-2.7904,-2.8125,-2.8291,-2.8291,-2.8291,-2.8408,-2.8684,-2.8781,-2.9089,-2.9606,-2.9448,-2.9448,-2.9722,-2.9459,-2.9501,-2.9669,-2.9396,-2.9396,-2.9606,-2.9343,-2.9185,-2.9079,-2.8983,-2.8771,-2.8504,-2.8344,-2.8291,-2.8291,-2.8291,-2.8291,-2.8291,-2.8291,-2.8291,-2.8291,-2.8291,-2.8291,-2.8291,-2.8291,-2.8291,-2.8291,-2.8291,-2.8291,-2.8291,-2.8291,-2.8291,-2.8291,-2.8291,-2.8291,-2.8291,-2.8291,-2.8291,-2.8291,-2.8291,-2.8291,-2.8437,-2.8857,-2.9189,-2.959,-3.0127,-3.0488,-3.0752,-3.0879,-3.0889,-3.0889,-3.0889,-3.0889,-3.0889,-3.0889,-3.0889,-3.0889,-3.0889,-3.0889,-3.0889,-3.0889,-3.0889,-3.0889,-3.0889,-3.1201,-3.1191,-3.0918,-3.1885,-3.2441,0.0,0.0,0.0,-3.0593,0.0,0.0,0.0,0.0,-3.1249,0.0,0.0,0.0,0.0,0.0,0.0,0.0,-2.7301,0.0,0.0,-2.7055,-2.7342,-2.7912,-2.8176,-2.8485,-2.9026,-2.8834,-2.8674,-2.8664,-2.8674,-2.8568,-2.8271,-2.8281,-2.8291,-2.8291,-2.8291,-2.8408,-2.8684,-2.8983,-2.9237,-2.9606,-2.9827,-2.9994,-2.9994,-2.9994,-2.9994,-2.9994,-2.9722,-2.9606,-2.9606,-2.9606,-2.9396,-2.9132,-2.9448,-2.9396,-2.9026,-2.8504,-2.8291,-2.8291,-2.8291,-2.8291,-2.8291,-2.8291,-2.8291,-2.8291,-2.8291,-2.8291,-2.8291,-2.8291,-2.8291,-2.8291,-2.8291,-2.8291,-2.8291,-2.8291,-2.8291,-2.8291,-2.8291,-2.8291,-2.8291,-2.8291,-2.8291,-2.8291,-2.8291,-2.8291,-2.8437,-2.8857,-2.8926,-2.9248,-3.0088,-3.0205,-3.0391,-3.084,-3.0889,-3.0889,-3.0889,-3.0889,-3.0889,-3.0889,-3.0889,-3.0889,-3.0889,-3.0889,-3.0889,-3.0889,-3.0889,-3.0889,-3.0889,-3.0898,-3.0898,-3.0918,-3.2187,-3.2559,0.0,0.0,-3.1758,-3.1162,0.0,0.0,0.0,0.0,0.0,0.0,0.0,0.0,0.0,0.0,0.0,0.0,0.0,-2.745,0.0,-2.7268,-2.7619,-2.8319,-2.8438,-2.8558,-2.8804,-2.893,-2.8704,-2.8058,-2.8463,-2.8449,-2.7943,-2.8144,-2.8291,-2.8291,-2.8291,-2.8408,-2.8684,-2.8781,-2.9089,-2.9606,-2.9711,-2.9827,-2.9994,-2.9994,-2.9994,-2.9994,-2.9889,-2.9879,-2.9879,-2.9879,-2.9774,-2.9669,-2.9606,-2.9554,-2.9396,-2.8973,-2.8814,-2.8814,-2.8621,-2.8568,-2.8514,-2.8344,-2.8291,-2.8291,-2.8291,-2.8291,-2.8291,-2.8291,-2.8291,-2.8291,-2.8291,-2.8291,-2.8291,-2.8291,-2.8291,-2.8291,-2.8291,-2.8291,-2.8291,-2.8291,-2.8291,-2.8291,-2.8291,-2.8291,-2.8437,-2.8857,-2.8916,-2.9131,-2.9707,-2.9785,-2.9951,-3.0381,-3.043,-3.0557,-3.0859,-3.0889,-3.0889,-3.0889,-3.0889,-3.0889,-3.0889,-3.0889,-3.0889,-3.0889,-3.0889,-3.0889,-3.0889,-3.0889,-3.0889,-3.0908,-3.1621,-3.2031,-3.1993,-3.2072,0.0,-3.1056,-3.1074,0.0,-3.0619,0.0,-3.1185,0.0,0.0,0.0,0.0,0.0,0.0,0.0,0.0,0.0,0.0,-2.8432,-2.8556,-2.8849,-2.8665,-2.8659,-2.8996,-2.9195,-2.8916,-2.8121,-2.8569,-2.8555,-2.7963,-2.8144,-2.8291,-2.8291,-2.8291,-2.8408,-2.8684,-2.8781,-2.9089,-2.9606,-2.9722,-2.9827,-2.9984,-2.9829,-2.9839,-2.9984,-2.9818,-2.9849,-2.9994,-2.9994,-2.9994,-2.9994,-2.9827,-2.9722,-2.9669,-2.9237,-2.9079,-2.9079,-2.8877,-2.8781,-2.8674,-2.8514,-2.8398,-2.8291,-2.8398,-2.8461,-2.8461,-2.8461,-2.8461,-2.8408,-2.8291,-2.8291,-2.8291,-2.8291,-2.8291,-2.8291,-2.8291,-2.8291,-2.8291,-2.8291,-2.8291,-2.8344,-2.8408,-2.8344,-2.8389,-2.8662,-2.8701,-2.8857,-2.9277,-2.9336,-2.9502,-2.9932,-3.0107,-3.0391,-3.085,-3.0889,-3.0889,-3.0889,-3.0889,-3.0889,-3.0889,-3.0889,-3.0889,-3.0889,-3.0889,-3.0889,-3.0889,-3.0889,-3.0889,-3.0898,-3.1172,-3.1523]},{"header":{"parameterUnit":"m.s-1","parameterCategory":1,"la1":30.6,"la2":29.2853,"lo1":-89.7004,"lo2":-87.6739,"dy":0.0162,"dx":0.0183,"nx":112,"ny":82,"refTime":"2024-08-30T18:00:00:Z","depth":0,"parameterNumber":3,"parameterNumberName":"V-component_of_WINDS"},"data":[0.0,0.0,0.0,0.0,0.0,0.0,0.0,0.0,0.0,0.0,0.0,0.0,0.0,0.0,0.0,0.0,0.0,0.0,0.0,0.0,0.0,0.0,0.0,0.0,0.0,0.0,0.0,0.0,0.0,0.0,0.0,0.0,0.0,0.0,0.0,0.0,0.0,0.0,0.0,0.0,0.0,0.0,0.0,0.0,0.0,0.0,0.0,0.0,0.0,0.0,0.0,0.0,0.0,0.0,0.0,0.0,0.0,0.0,0.0,0.0,0.0,0.0,0.0,0.0,0.0,0.0,0.0,0.0,0.0,0.0,0.0,0.0,0.0,0.0,0.0,0.0,0.0,0.0,0.0,0.0,0.0,0.0,0.0,0.0,0.0,0.0,0.0,0.0,0.0,0.0,3.3692,3.4332,3.5351,3.594,3.5848,3.5417,3.4672,3.3522,0.0,0.0,0.0,0.0,0.0,0.0,0.0,0.0,0.0,0.0,0.0,0.0,0.0,0.0,0.0,0.0,0.0,0.0,0.0,0.0,0.0,0.0,0.0,0.0,0.0,0.0,0.0,0.0,0.0,0.0,0.0,0.0,0.0,0.0,0.0,0.0,0.0,0.0,0.0,0.0,0.0,0.0,0.0,0.0,0.0,0.0,0.0,0.0,0.0,0.0,0.0,0.0,0.0,0.0,0.0,0.0,0.0,0.0,0.0,0.0,0.0,0.0,0.0,0.0,0.0,0.0,0.0,0.0,0.0,0.0,0.0,0.0,0.0,0.0,0.0,0.0,0.0,0.0,0.0,0.0,0.0,0.0,0.0,0.0,0.0,0.0,0.0,0.0,0.0,0.0,0.0,0.0,0.0,0.0,0.0,0.0,0.0,0.0,0.0,0.0,0.0,0.0,0.0,0.0,3.3234,3.428,3.5012,3.5208,3.4698,3.458,3.4045,3.2894,0.0,0.0,0.0,0.0,0.0,0.0,0.0,0.0,0.0,0.0,0.0,0.0,0.0,0.0,0.0,0.0,0.0,0.0,0.0,0.0,0.0,0.0,0.0,0.0,0.0,0.0,0.0,0.0,0.0,0.0,0.0,0.0,0.0,0.0,0.0,0.0,0.0,0.0,0.0,0.0,0.0,0.0,0.0,0.0,0.0,0.0,0.0,0.0,0.0,0.0,0.0,0.0,0.0,0.0,0.0,0.0,0.0,0.0,0.0,0.0,0.0,0.0,0.0,0.0,0.0,0.0,0.0,0.0,0.0,0.0,0.0,0.0,0.0,0.0,0.0,0.0,0.0,0.0,0.0,0.0,0.0,0.0,0.0,0.0,0.0,0.0,0.0,0.0,0.0,0.0,0.0,0.0,0.0,0.0,0.0,0.0,0.0,0.0,0.0,0.0,0.0,0.0,0.0,3.2868,3.3496,3.4306,3.4646,3.4698,3.4424,3.4397,3.3914,3.2764,3.1326,0.0,0.0,0.0,0.0,0.0,0.0,0.0,0.0,0.0,0.0,0.0,0.0,0.0,0.0,0.0,0.0,0.0,0.0,0.0,0.0,0.0,0.0,0.0,0.0,0.0,0.0,0.0,0.0,0.0,0.0,0.0,0.0,0.0,0.0,0.0,0.0,0.0,0.0,0.0,0.0,0.0,0.0,0.0,0.0,0.0,0.0,0.0,0.0,0.0,0.0,0.0,0.0,0.0,0.0,0.0,0.0,0.0,0.0,0.0,0.0,0.0,0.0,0.0,0.0,0.0,0.0,0.0,0.0,0.0,0.0,0.0,0.0,0.0,0.0,0.0,0.0,0.0,0.0,0.0,0.0,0.0,0.0,0.0,0.0,0.0,0.0,0.0,0.0,0.0,0.0,0.0,0.0,0.0,0.0,0.0,0.0,0.0,0.0,0.0,0.0,0.0,0.0,3.4084,3.4149,3.4567,3.4476,3.4397,3.4397,3.4149,3.3626,3.2751,3.096,0.0,0.0,0.0,0.0,0.0,0.0,0.0,0.0,0.0,0.0,0.0,0.0,0.0,0.0,0.0,0.0,0.0,0.0,0.0,0.0,0.0,0.0,0.0,0.0,0.0,0.0,0.0,0.0,0.0,0.0,0.0,0.0,0.0,0.0,0.0,0.0,0.0,0.0,0.0,0.0,0.0,0.0,0.0,0.0,0.0,0.0,0.0,0.0,0.0,0.0,0.0,0.0,0.0,0.0,0.0,0.0,0.0,0.0,0.0,0.0,0.0,0.0,0.0,0.0,0.0,0.0,0.0,0.0,0.0,0.0,0.0,0.0,0.0,0.0,0.0,0.0,0.0,0.0,0.0,0.0,0.0,0.0,0.0,0.0,0.0,0.0,0.0,0.0,0.0,0.0,0.0,0.0,0.0,0.0,0.0,0.0,0.0,0.0,0.0,0.0,0.0,0.0,3.4541,3.5195,3.5234,3.4724,3.4397,3.4397,3.3417,3.2777,3.2698,3.0581,0.0,0.0,0.0,0.0,0.0,0.0,0.0,0.0,0.0,0.0,0.0,0.0,0.0,0.0,0.0,0.0,0.0,0.0,0.0,0.0,0.0,0.0,0.0,0.0,0.0,0.0,0.0,0.0,0.0,0.0,0.0,0.0,0.0,0.0,0.0,0.0,0.0,0.0,0.0,0.0,0.0,0.0,0.0,0.0,0.0,0.0,0.0,0.0,0.0,0.0,0.0,0.0,0.0,0.0,0.0,0.0,0.0,0.0,0.0,0.0,0.0,0.0,0.0,0.0,0.0,0.0,0.0,0.0,0.0,0.0,0.0,0.0,0.0,0.0,0.0,0.0,0.0,0.0,0.0,0.0,0.0,0.0,0.0,0.0,0.0,0.0,0.0,0.0,0.0,0.0,0.0,0.0,0.0,0.0,0.0,0.0,0.0,0.0,0.0,0.0,0.0,0.0,3.4267,3.4881,3.526,3.4763,3.4397,3.4397,3.4511,3.3874,3.2228,0.0,0.0,0.0,0.0,0.0,0.0,0.0,0.0,0.0,0.0,0.0,0.0,0.0,0.0,0.0,0.0,0.0,0.0,0.0,0.0,0.0,0.0,0.0,0.0,0.0,0.0,0.0,0.0,0.0,0.0,0.0,0.0,0.0,0.0,0.0,0.0,0.0,0.0,0.0,0.0,0.0,0.0,0.0,0.0,0.0,0.0,0.0,0.0,0.0,0.0,0.0,0.0,0.0,0.0,0.0,0.0,0.0,0.0,0.0,0.0,0.0,0.0,0.0,0.0,0.0,0.0,0.0,0.0,0.0,0.0,0.0,0.0,0.0,0.0,0.0,0.0,0.0,0.0,0.0,0.0,0.0,0.0,0.0,0.0,0.0,0.0,0.0,0.0,0.0,0.0,0.0,0.0,0.0,0.0,0.0,0.0,0.0,0.0,0.0,0.0,0.0,0.0,3.3417,3.4384,3.5038,3.5273,3.4763,3.4397,3.4397,3.4674,3.3962,3.1914,0.0,0.0,0.0,0.0,0.0,0.0,0.0,0.0,0.0,0.0,0.0,0.0,0.0,0.0,0.0,0.0,0.0,0.0,0.0,0.0,0.0,0.0,0.0,0.0,0.0,0.0,0.0,0.0,0.0,0.0,0.0,0.0,0.0,0.0,0.0,0.0,0.0,0.0,0.0,0.0,0.0,0.0,0.0,0.0,0.0,0.0,0.0,0.0,0.0,0.0,0.0,0.0,0.0,0.0,0.0,0.0,0.0,0.0,0.0,0.0,0.0,0.0,0.0,0.0,0.0,0.0,0.0,0.0,0.0,0.0,0.0,0.0,0.0,0.0,0.0,0.0,0.0,0.0,0.0,0.0,0.0,0.0,0.0,0.0,0.0,0.0,0.0,0.0,0.0,0.0,0.0,0.0,0.0,0.0,0.0,0.0,0.0,0.0,0.0,0.0,0.0,0.0,3.3509,3.5064,3.59,3.5351,3.4763,3.4397,3.4397,3.3564,3.2699,0.0,0.0,0.0,0.0,0.0,0.0,0.0,0.0,0.0,0.0,0.0,0.0,0.0,0.0,0.0,0.0,0.0,0.0,0.0,0.0,0.0,0.0,0.0,0.0,0.0,0.0,0.0,0.0,0.0,0.0,0.0,0.0,0.0,0.0,0.0,0.0,0.0,0.0,0.0,0.0,0.0,0.0,0.0,0.0,0.0,0.0,0.0,0.0,0.0,0.0,0.0,0.0,0.0,0.0,0.0,0.0,0.0,0.0,0.0,0.0,0.0,0.0,0.0,0.0,0.0,0.0,0.0,0.0,0.0,0.0,0.0,0.0,0.0,0.0,0.0,0.0,0.0,0.0,0.0,0.0,0.0,0.0,0.0,0.0,0.0,0.0,0.0,0.0,0.0,0.0,0.0,0.0,0.0,0.0,0.0,0.0,0.0,0.0,0.0,0.0,0.0,0.0,0.0,3.359,3.5628,3.665,3.5437,3.4763,3.4634,3.5264,3.5164,3.4217,3.2219,0.0,0.0,0.0,0.0,0.0,0.0,0.0,0.0,0.0,0.0,0.0,0.0,0.0,0.0,0.0,0.0,0.0,0.0,0.0,0.0,0.0,0.0,0.0,0.0,0.0,0.0,0.0,0.0,0.0,0.0,0.0,0.0,0.0,0.0,0.0,0.0,0.0,0.0,0.0,0.0,0.0,0.0,0.0,0.0,0.0,0.0,0.0,0.0,0.0,0.0,0.0,0.0,0.0,0.0,0.0,0.0,0.0,0.0,0.0,0.0,0.0,0.0,0.0,0.0,0.0,0.0,0.0,0.0,0.0,0.0,0.0,0.0,0.0,0.0,0.0,0.0,0.0,0.0,0.0,0.0,0.0,0.0,0.0,0.0,0.0,0.0,0.0,0.0,0.0,0.0,0.0,0.0,0.0,0.0,0.0,0.0,0.0,0.0,0.0,0.0,0.0,0.0,3.3741,3.6239,3.7483,3.6088,3.5629,3.5602,3.6122,3.6332,3.5441,3.314,0.0,0.0,0.0,0.0,0.0,0.0,0.0,0.0,0.0,0.0,0.0,0.0,0.0,0.0,0.0,0.0,0.0,0.0,0.0,0.0,0.0,0.0,0.0,0.0,0.0,0.0,0.0,0.0,0.0,0.0,0.0,0.0,0.0,0.0,0.0,0.0,0.0,0.0,0.0,0.0,0.0,0.0,0.0,0.0,0.0,0.0,0.0,0.0,0.0,0.0,0.0,0.0,0.0,0.0,0.0,0.0,0.0,0.0,0.0,0.0,0.0,0.0,0.0,0.0,0.0,0.0,0.0,0.0,0.0,0.0,0.0,0.0,0.0,0.0,0.0,0.0,0.0,0.0,0.0,0.0,0.0,0.0,0.0,0.0,0.0,0.0,0.0,0.0,0.0,0.0,0.0,0.0,0.0,0.0,0.0,0.0,0.0,0.0,0.0,0.0,0.0,0.0,3.3927,3.6823,3.8406,3.706,3.688,3.6919,3.6996,3.7141,3.6389,3.4511,0.0,0.0,0.0,0.0,0.0,0.0,0.0,0.0,0.0,0.0,0.0,0.0,0.0,0.0,0.0,0.0,0.0,0.0,0.0,0.0,0.0,0.0,0.0,0.0,0.0,0.0,0.0,0.0,0.0,0.0,0.0,0.0,0.0,0.0,0.0,0.0,0.0,0.0,0.0,0.0,0.0,0.0,0.0,0.0,0.0,0.0,0.0,0.0,0.0,0.0,0.0,0.0,0.0,0.0,0.0,0.0,0.0,0.0,0.0,0.0,3.2744,3.1096,0.0,0.0,0.0,0.0,0.0,0.0,0.0,0.0,0.0,0.0,0.0,0.0,0.0,0.0,0.0,0.0,0.0,0.0,0.0,0.0,0.0,0.0,0.0,0.0,0.0,0.0,0.0,0.0,0.0,0.0,0.0,0.0,0.0,0.0,0.0,0.0,0.0,0.0,0.0,0.0,3.4058,3.736,3.9068,3.7099,3.688,3.7165,3.7872,3.7467,3.6831,3.5983,3.4636,0.0,0.0,0.0,0.0,0.0,0.0,0.0,0.0,0.0,0.0,0.0,0.0,0.0,0.0,0.0,0.0,0.0,0.0,0.0,0.0,0.0,0.0,0.0,0.0,0.0,0.0,0.0,0.0,0.0,0.0,0.0,0.0,0.0,0.0,0.0,0.0,0.0,0.0,0.0,0.0,0.0,0.0,0.0,0.0,0.0,0.0,0.0,0.0,0.0,0.0,0.0,0.0,0.0,0.0,0.0,0.0,0.0,0.0,0.0,3.5119,3.3782,0.0,0.0,0.0,0.0,0.0,0.0,0.0,0.0,0.0,0.0,0.0,0.0,0.0,0.0,0.0,0.0,0.0,0.0,0.0,0.0,0.0,0.0,0.0,0.0,0.0,0.0,0.0,0.0,0.0,0.0,0.0,0.0,0.0,0.0,0.0,0.0,0.0,0.0,0.0,0.0,3.5014,3.805,3.9706,3.8246,3.8107,3.8271,3.8738,3.8451,3.8001,3.7393,3.5898,0.0,0.0,0.0,0.0,0.0,0.0,0.0,0.0,0.0,0.0,0.0,0.0,0.0,0.0,0.0,0.0,0.0,0.0,0.0,0.0,0.0,0.0,0.0,0.0,0.0,0.0,0.0,0.0,0.0,0.0,0.0,0.0,0.0,0.0,0.0,0.0,0.0,0.0,0.0,0.0,0.0,0.0,0.0,0.0,0.0,0.0,0.0,0.0,0.0,0.0,0.0,0.0,0.0,3.8411,3.8707,3.866,3.866,3.966,4.1258,3.7891,3.7187,3.8288,3.5941,0.0,0.0,0.0,0.0,0.0,0.0,0.0,0.0,0.0,0.0,0.0,0.0,0.0,0.0,0.0,0.0,0.0,0.0,0.0,0.0,0.0,0.0,4.1753,4.0652,4.1225,4.1573,3.9854,0.0,0.0,0.0,0.0,0.0,0.0,0.0,0.0,0.0,0.0,0.0,3.6344,3.8774,4.0179,3.9484,3.9388,3.9388,3.9388,3.9388,3.917,3.8601,3.7005,3.6079,0.0,0.0,0.0,0.0,0.0,0.0,0.0,0.0,0.0,0.0,0.0,0.0,0.0,0.0,0.0,0.0,0.0,0.0,0.0,0.0,0.0,0.0,0.0,0.0,0.0,0.0,0.0,0.0,0.0,0.0,0.0,0.0,3.7982,3.9402,0.0,0.0,0.0,0.0,0.0,0.0,0.0,0.0,0.0,0.0,0.0,0.0,0.0,4.0677,4.139,4.152,4.1593,4.1596,4.1845,4.1979,4.1983,4.1983,4.2111,4.2404,4.2438,0.0,3.9942,4.0144,0.0,0.0,0.0,0.0,0.0,0.0,0.0,0.0,0.0,0.0,0.0,0.0,0.0,0.0,0.0,0.0,0.0,0.0,0.0,0.0,0.0,0.0,4.4151,4.3966,4.4058,4.4097,4.3838,4.1366,3.8933,3.8017,3.8333,3.7923,0.0,0.0,0.0,0.0,0.0,0.0,3.747,3.9326,4.0326,3.9484,3.9388,3.9388,3.9388,3.9388,3.9343,3.9254,3.8486,3.8103,3.8257,3.7571,0.0,0.0,0.0,0.0,0.0,0.0,0.0,0.0,0.0,0.0,0.0,0.0,0.0,0.0,0.0,0.0,0.0,0.0,0.0,0.0,0.0,0.0,0.0,0.0,0.0,0.0,0.0,0.0,0.0,3.8435,3.9984,4.061,4.0401,3.9763,0.0,0.0,0.0,0.0,0.0,0.0,0.0,0.0,0.0,4.1275,4.1316,4.1847,4.2941,4.2625,4.2661,4.3015,4.3104,4.334,4.371,4.371,4.3925,4.4295,4.4587,4.3937,4.2614,4.1731,4.032,3.8649,0.0,0.0,0.0,0.0,3.8445,3.8443,4.0474,4.0929,4.0596,4.024,0.0,0.0,0.0,0.0,0.0,0.0,0.0,4.1516,4.1916,4.329,4.461,4.461,4.461,4.461,4.461,4.3409,4.2149,4.1354,4.1155,4.0332,3.7876,3.7754,0.0,0.0,0.0,3.8649,3.826,3.9454,4.0172,3.9777,3.9747,3.9747,3.9747,3.9747,3.9747,3.9747,3.9461,3.9496,3.998,3.9344,3.8709,0.0,0.0,0.0,0.0,0.0,0.0,0.0,0.0,0.0,0.0,0.0,0.0,0.0,0.0,0.0,0.0,0.0,0.0,0.0,0.0,0.0,0.0,0.0,0.0,0.0,0.0,0.0,0.0,4.0723,4.1778,4.1826,4.22,4.1651,0.0,0.0,0.0,0.0,0.0,0.0,4.0156,4.1122,4.2205,4.337,4.322,4.3602,4.4625,4.3956,4.3787,4.4117,4.3947,4.4132,4.461,4.461,4.4849,4.5341,4.5511,4.5203,4.4472,4.3138,4.2145,4.133,3.9982,3.9203,3.9049,4.0294,4.051,4.0422,4.28,4.3322,4.2878,4.2418,4.1912,4.1227,3.9868,0.0,0.0,0.0,0.0,4.2683,4.2915,4.3754,4.461,4.461,4.461,4.461,4.461,4.461,4.4471,4.3963,4.3433,4.2438,4.0299,3.9969,0.0,3.7709,3.848,3.9226,3.9118,3.9681,4.0066,4.0011,4.0011,4.0011,4.0011,4.0011,4.0011,4.0011,4.0011,4.0259,4.0796,4.0345,4.0071,4.0071,0.0,0.0,0.0,0.0,0.0,0.0,0.0,0.0,0.0,0.0,0.0,0.0,0.0,0.0,0.0,0.0,0.0,0.0,0.0,0.0,0.0,0.0,0.0,0.0,0.0,0.0,0.0,0.0,0.0,4.3479,4.3324,0.0,0.0,0.0,0.0,4.017,4.1377,4.2512,4.3325,4.4618,4.5664,4.6372,4.6988,4.7342,4.7404,4.6726,4.6095,4.548,4.4872,4.4579,4.461,4.461,4.4641,4.4702,4.5311,4.5203,4.4618,4.5149,4.415,4.2312,4.2826,4.2518,4.1884,4.2792,4.3125,4.3229,4.4182,4.4518,4.4488,4.4441,4.3099,4.1595,4.2074,4.1228,0.0,0.0,4.274,4.3437,4.4282,4.4556,4.461,4.461,4.461,4.461,4.461,4.461,4.461,4.4579,4.4533,4.3953,4.2168,0.0,4.162,4.0055,4.0049,4.0226,4.0226,4.0277,4.0207,4.0031,4.0011,4.0011,4.0011,4.0011,4.0011,4.0011,4.0011,4.0081,4.0323,4.0292,4.0277,4.0277,3.9574,0.0,0.0,0.0,0.0,0.0,0.0,0.0,0.0,0.0,0.0,0.0,0.0,0.0,0.0,0.0,0.0,0.0,0.0,0.0,0.0,0.0,0.0,0.0,0.0,0.0,0.0,0.0,0.0,4.443,4.5507,0.0,4.2088,4.2136,4.2396,4.2412,4.3267,4.4119,4.4833,4.5741,4.6342,4.6588,4.6834,4.6957,4.6957,4.628,4.5834,4.5572,4.491,4.461,4.461,4.461,4.461,4.4625,4.4872,4.4803,4.4641,4.4849,4.4481,4.38,4.4044,4.3966,4.3732,4.4004,4.4135,4.4174,4.4496,4.461,4.461,4.461,4.4097,4.3556,4.3747,4.3449,4.3144,4.367,4.3991,4.4212,4.4534,4.461,4.461,4.461,4.461,4.461,4.461,4.461,4.461,4.461,4.4255,4.3758,4.3145,4.2744,4.2174,4.1167,4.1107,4.0957,4.0497,4.0436,4.0401,4.0331,4.0331,4.0331,4.0331,4.0331,4.0331,4.0331,4.0331,4.0565,4.1096,4.1162,4.1361,4.1756,4.065,3.9588,0.0,0.0,0.0,0.0,0.0,0.0,0.0,0.0,0.0,0.0,0.0,0.0,0.0,0.0,0.0,0.0,0.0,0.0,0.0,0.0,0.0,0.0,0.0,0.0,0.0,4.5406,4.6765,4.5261,4.6726,4.6703,4.3593,4.4153,4.4564,4.4308,4.5133,4.5788,4.6249,4.6911,4.7281,4.7281,4.7281,4.7173,4.6942,4.6265,4.5818,4.5572,4.491,4.461,4.461,4.461,4.461,4.461,4.461,4.461,4.461,4.461,4.461,4.461,4.461,4.461,4.461,4.461,4.461,4.461,4.461,4.461,4.461,4.461,4.461,4.461,4.461,4.461,4.461,4.461,4.461,4.461,4.461,4.461,4.461,4.461,4.461,4.461,4.461,4.461,4.461,4.461,4.4255,4.3947,4.3947,4.3371,4.2709,4.2048,4.174,4.134,4.0582,4.0489,4.0489,4.0489,4.0489,4.0489,4.0489,4.0274,4.0259,4.0489,4.0489,4.0812,4.1571,4.1601,4.1817,4.2248,4.1089,4.0274,3.9828,0.0,0.0,0.0,0.0,0.0,0.0,0.0,0.0,0.0,0.0,0.0,0.0,0.0,0.0,0.0,0.0,0.0,0.0,0.0,0.0,0.0,0.0,0.0,4.391,4.6168,4.7418,4.6021,4.6997,4.6982,4.4958,4.5924,4.6405,4.5695,4.6865,4.7619,4.7635,4.8266,4.862,4.862,4.862,4.8296,4.765,4.6973,4.6296,4.5634,4.4941,4.4641,4.4641,4.4625,4.461,4.461,4.461,4.461,4.461,4.461,4.461,4.461,4.461,4.461,4.461,4.461,4.461,4.461,4.461,4.461,4.461,4.461,4.461,4.461,4.461,4.461,4.461,4.461,4.461,4.461,4.461,4.461,4.461,4.461,4.461,4.461,4.461,4.461,4.461,4.461,4.461,4.461,4.461,4.404,4.3362,4.2709,4.2017,0.0,4.0582,4.0489,4.0489,4.0489,4.0489,4.0489,4.0489,3.989,3.9797,4.0489,4.052,4.0843,4.1601,4.1632,4.1632,4.1632,4.094,4.0551,4.052,0.0,0.0,0.0,0.0,0.0,0.0,0.0,0.0,0.0,0.0,0.0,0.0,0.0,0.0,0.0,0.0,0.0,0.0,0.0,0.0,0.0,4.4599,4.6857,4.612,4.7564,4.836,4.7441,4.858,4.8572,4.6348,4.7453,4.7915,4.7099,4.7388,4.7819,4.8312,4.8512,4.862,4.862,4.862,4.8527,4.8343,4.7665,4.7234,4.7034,4.5865,4.5311,4.5295,4.4803,4.461,4.461,4.461,4.461,4.461,4.461,4.461,4.461,4.461,4.461,4.461,4.461,4.461,4.461,4.461,4.461,4.461,4.461,4.4685,4.4799,4.4648,4.4685,4.4799,4.4648,4.4685,4.4799,4.4648,4.4685,4.4799,4.4799,4.4799,4.4799,4.4799,4.4799,4.4761,4.461,4.461,4.461,4.461,4.3633,4.2817,4.2633,4.1586,4.072,4.052,4.0489,4.0489,4.0489,4.0489,4.0489,4.0489,4.032,4.052,4.1263,4.1309,4.1617,4.2309,4.234,4.234,4.234,4.214,4.1786,0.0,0.0,0.0,0.0,0.0,0.0,0.0,0.0,0.0,0.0,0.0,0.0,0.0,0.0,0.0,0.0,0.0,0.0,0.0,0.0,0.0,0.0,4.5958,4.7933,4.7799,4.875,4.9198,4.8452,4.9371,4.9543,4.8194,4.9151,4.9464,4.862,4.8571,4.8596,4.8589,4.862,4.862,4.862,4.862,4.862,4.862,4.7942,4.7604,4.7588,4.6526,4.5865,4.5572,4.5187,4.4887,4.461,4.461,4.461,4.461,4.461,4.461,4.461,0.0,0.0,0.0,0.0,4.461,4.461,4.461,4.4663,4.4723,4.461,4.4723,4.4874,4.4648,4.4685,4.4761,4.4723,4.4799,4.4874,4.4852,4.4927,4.5039,4.5039,4.5039,4.5002,4.4911,4.4911,4.4836,4.4648,4.461,0.0,4.461,4.3941,4.334,4.3048,4.2094,4.1258,4.1016,4.0674,4.0612,4.094,4.0951,4.1058,4.137,4.114,0.0,0.0,0.0,4.2325,4.2987,4.2756,0.0,0.0,0.0,0.0,0.0,0.0,0.0,0.0,4.3802,4.4418,0.0,0.0,0.0,0.0,0.0,0.0,0.0,0.0,0.0,0.0,0.0,0.0,0.0,0.0,0.0,0.0,4.7267,4.8392,4.9035,4.9678,4.9813,4.9086,4.9674,5.0105,5.0003,5.0667,5.0805,5.0104,4.9947,4.9566,4.8769,4.8728,0.0,0.0,0.0,4.862,4.862,4.8019,4.7711,4.7711,4.7034,4.6388,4.5818,4.5741,4.5372,4.4841,4.4841,4.4841,4.4803,4.4726,4.4687,4.461,4.461,4.461,4.461,4.461,4.461,4.461,4.461,0.0,0.0,4.4648,4.4723,4.4874,4.4685,4.4663,4.4685,4.4874,4.4949,4.5002,4.5182,4.522,4.522,4.522,4.522,4.5167,4.5002,4.4949,4.4874,4.4685,4.4625,4.461,4.461,4.4548,4.4302,4.3701,4.3017,4.2402,4.1786,4.1155,4.1001,4.1648,4.1709,0.0,4.2556,4.2048,4.2001,4.2679,4.2786,4.3094,4.3701,4.314,4.3094,4.3701,4.3202,4.3818,4.5588,4.5664,4.6049,4.6696,4.6018,4.6065,0.0,0.0,0.0,0.0,0.0,0.0,0.0,0.0,0.0,0.0,0.0,0.0,0.0,0.0,0.0,4.7352,4.8778,4.9712,4.9864,4.9999,4.9813,4.9086,5.0177,5.0709,5.0071,5.0667,5.1032,5.0881,5.0283,4.9829,4.9646,4.9646,4.9325,4.862,4.862,4.862,4.862,4.8481,4.8419,4.8419,4.7727,0.0,4.7188,4.665,4.6326,4.6203,4.6203,4.6203,4.6157,4.5618,4.5064,4.461,4.461,4.461,4.461,4.461,4.461,4.461,4.461,4.4625,4.4648,4.461,4.4723,4.4874,4.4836,4.4964,0.0,4.5129,4.5241,4.5368,4.522,4.5331,4.5442,4.5442,4.5442,4.5442,4.5389,4.5257,4.5092,4.4874,4.4723,4.461,4.461,4.4163,4.3762,4.3624,4.3017,4.2556,4.2432,4.2294,4.2263,4.2402,4.2417,4.2463,4.2602,4.2479,4.2694,4.3377,4.3895,4.4249,4.4409,4.4264,4.4249,4.4409,4.4803,4.5203,4.5588,4.6126,4.6742,4.7388,4.6726,4.6757,0.0,0.0,0.0,0.0,0.0,0.0,0.0,0.0,0.0,0.0,0.0,4.386,4.4222,0.0,4.7529,4.9304,5.0197,5.0659,5.0659,5.0659,5.0236,4.9137,5.0321,5.1038,5.0643,5.1639,5.2131,5.1716,5.1311,5.0935,5.0515,5.0143,4.9868,4.9837,4.947,4.943,4.9837,4.947,4.9244,4.9244,4.847,4.8156,4.8183,4.7824,4.7753,4.7767,4.7401,4.7208,4.7123,4.6044,4.5387,4.5087,4.4748,4.461,4.461,4.461,4.461,4.461,4.461,4.4648,4.4723,4.461,4.4723,4.4911,4.4911,4.4964,4.5092,4.5294,4.5442,4.5515,4.5515,4.5589,4.5662,4.5662,4.5662,4.5625,4.5515,4.5405,4.5294,4.5092,4.4889,4.4761,4.4761,4.437,4.4117,4.4117,4.3547,4.3094,4.3094,4.2817,4.274,4.3048,4.3094,4.3233,4.3571,4.3587,4.3725,4.4086,4.4425,4.461,4.461,4.461,4.4779,4.508,4.5418,4.5911,4.6603,4.6942,4.745,4.8096,4.7773,4.7788,0.0,0.0,0.0,0.0,0.0,0.0,0.0,4.3295,4.3333,4.2977,4.434,4.5977,4.7163,4.7943,4.9072,5.1086,5.1388,5.1388,5.1388,5.1388,5.093,4.9593,5.0608,5.1388,5.1388,5.2539,5.3058,5.2572,5.2378,5.204,5.1385,5.0707,5.0592,5.107,5.0477,5.0422,5.1107,5.0477,5.0128,5.0128,4.943,4.9157,4.9254,4.9254,4.9315,4.9374,4.8712,4.8257,4.7893,4.6702,4.5974,4.5541,4.5026,4.4733,4.461,4.461,4.461,4.461,4.461,4.4685,4.4799,4.4648,4.4723,4.4911,4.4964,4.5002,4.5114,4.5478,4.5552,4.5589,4.5771,4.5807,4.5807,4.5807,4.5807,4.5771,4.5589,4.5515,4.5442,4.5294,4.5092,4.4964,4.4911,4.4814,4.4701,4.461,4.4148,4.3809,4.3809,4.331,4.3202,4.3747,4.3809,4.4024,4.4564,4.461,4.461,4.461,4.461,4.461,4.461,4.461,4.4933,4.5572,4.5711,4.6388,4.7604,4.7727,4.8158,4.882,4.8681,4.862,4.4215,4.3781,4.3536,4.4936,4.4771,4.4929,0.0,4.7285,4.6585,4.7093,4.7891,4.8579,4.8757,4.9364,5.0375,5.1928,5.2181,5.2181,5.2181,5.2181,5.1877,5.1065,5.1691,5.2181,5.2181,5.2315,5.2677,5.3314,5.2712,5.2272,5.2148,5.2076,5.1733,5.1107,5.0995,5.0995,5.1107,5.0995,5.0957,5.0957,5.0881,5.0833,5.0828,5.0828,5.087,5.0864,5.0752,4.9967,4.869,4.8495,4.7309,4.5572,4.5511,4.511,4.461,4.461,4.461,4.461,4.461,4.461,4.461,4.461,4.4723,4.4911,4.5092,4.5294,4.5478,4.5698,4.5771,4.5771,4.5771,4.5807,4.5807,4.5807,4.5807,4.5771,4.5771,4.5625,4.5478,4.5478,4.5294,4.5092,4.4911,4.5055,4.5017,4.4663,4.4548,4.4502,4.4502,4.444,4.4425,4.4486,4.4502,4.4533,4.461,4.461,4.461,4.461,4.461,4.461,4.461,4.461,4.4933,4.5572,4.6172,4.685,4.7604,4.8204,4.8866,4.9543,4.8912,4.862,4.5241,4.5744,4.6196,4.6469,4.6612,4.7096,4.8666,4.8225,4.7681,4.8382,4.8798,4.9272,5.0135,5.0541,5.1386,5.3315,5.3281,5.3145,5.3568,5.2875,5.2198,5.1894,5.2114,5.23,5.23,5.2724,5.3312,5.4059,5.3835,5.3829,5.4265,5.382,5.346,5.3152,5.267,5.2452,5.2485,5.2023,5.1806,5.1806,5.1331,5.1348,5.1806,5.1806,5.1806,5.1806,5.1806,5.1169,5.0117,4.9684,4.8984,4.8078,4.7247,4.6497,4.5784,4.4938,4.461,4.461,4.461,4.461,4.461,4.4723,4.4836,4.4949,4.5294,4.5442,4.5552,4.5735,4.5807,4.5807,4.5807,4.5807,4.5807,4.5807,4.5807,4.5807,4.5807,4.5735,4.5662,4.5662,4.5515,4.5368,4.5278,4.5204,4.5145,4.498,4.4852,4.4723,4.4625,4.461,4.461,4.461,4.461,4.461,4.461,4.461,4.461,4.461,4.461,4.4648,4.4761,4.4761,4.5271,4.6353,4.6647,4.7247,4.8189,4.8897,4.9174,4.9066,4.9174,4.9304,4.5841,4.6651,4.7471,4.7568,4.784,4.8222,4.8863,4.8595,4.8359,4.89,4.9001,4.939,5.0676,5.1065,5.1894,5.3957,5.4008,5.3991,5.4515,5.345,5.2638,5.2638,5.2435,5.2384,5.2604,5.3162,5.3805,5.4532,5.4583,5.4921,5.5683,5.5152,5.4864,5.4921,5.4328,5.4077,5.4126,5.3523,5.3142,5.2942,5.2356,5.2257,5.2642,5.2642,5.2642,5.2642,5.2642,5.2183,5.1373,5.0855,5.0387,4.9913,4.8891,4.7902,4.6959,4.5913,4.5126,4.461,4.461,4.461,4.461,4.4761,4.4874,4.5039,4.5315,4.5478,4.5625,4.5771,4.5807,4.5807,4.5807,4.5807,4.5807,4.5807,4.5807,4.5807,4.5807,4.5807,4.5807,4.5807,4.5662,4.5552,4.5515,4.5442,4.5331,4.522,4.5129,4.5002,4.4776,4.4776,4.4776,4.4776,4.4776,4.4776,4.4776,4.4776,4.4776,4.4776,4.4946,4.5115,4.5266,4.5452,4.612,4.7262,4.7277,4.7865,4.9063,4.9429,4.9614,4.9661,4.9731,5.012,4.5852,4.5846,4.6307,4.8574,4.8501,4.8105,4.8832,4.8984,4.8984,4.9001,4.9001,4.9238,4.9982,5.0727,5.1725,5.3281,5.411,5.4566,5.4583,5.394,5.3467,5.3467,5.2773,5.2604,5.3399,5.3501,5.3805,5.4532,5.4583,5.4921,5.5683,5.5681,5.5664,5.5683,5.5647,5.5631,5.5614,5.5614,5.5242,5.4515,5.4515,5.4143,5.3467,5.3467,5.3467,5.3467,5.3467,5.3024,5.2272,5.2238,5.133,5.001,4.9961,4.9082,4.7848,4.7831,4.6432,4.461,4.461,4.461,4.461,4.461,4.4852,4.5182,4.522,4.5478,4.5771,4.5807,4.5807,4.5807,4.5807,4.5807,4.5807,4.5807,4.5807,4.5807,4.5807,4.5807,4.5807,4.5807,4.5823,4.5735,4.5515,4.5662,4.5662,4.5257,4.5368,4.5405,4.522,4.5182,4.5182,4.5182,4.5182,4.5182,4.5182,4.5182,4.5182,4.5182,4.5775,4.6155,4.6155,4.6842,4.7544,4.8261,4.8277,4.8932,5.0273,4.9618,5.0336,5.2239,5.0692,5.0843,4.5422,4.6669,4.8281,4.8447,4.8625,4.8802,4.8981,4.9001,4.9001,4.9001,4.8625,4.8636,4.9886,5.0304,5.1296,5.3822,5.4431,5.4938,5.5919,5.5006,5.4228,5.4228,5.3991,5.3923,5.4194,5.3788,5.4025,5.5243,5.5344,5.5869,5.7087,5.7154,5.6934,5.6461,5.6444,5.6207,5.5681,5.5681,5.5598,5.5327,5.482,5.4211,5.3501,5.3501,5.3501,5.3501,5.3501,5.3365,5.3093,5.3093,5.2787,5.2262,5.1728,5.0937,4.9976,4.8987,4.7842,4.6661,4.5672,4.5311,4.529,4.4896,4.4964,4.522,4.5368,4.5589,4.5807,4.5807,4.5698,4.5625,4.5787,4.5698,4.5625,4.5771,4.5807,4.5807,4.5807,4.5807,4.5807,4.5807,4.5807,4.5771,4.5698,4.5771,4.5735,4.5625,4.5442,4.5294,4.522,4.5182,4.5182,4.5182,4.5182,4.5182,4.5182,4.5182,4.5407,4.5843,4.6077,4.6481,4.7081,4.7385,4.7801,4.849,4.8929,4.9562,5.0305,5.1033,5.1501,5.1708,5.165,5.1969,4.5533,4.7096,4.8937,4.8583,4.8812,4.9124,4.9032,4.9001,4.8934,4.8663,4.8238,4.8104,4.8795,4.9354,5.0593,5.3361,5.426,5.5108,5.6596,5.575,5.4989,5.4989,5.4752,5.4702,5.4972,5.4566,5.4803,5.6004,5.6105,5.663,5.7831,5.7881,5.7679,5.7205,5.7188,5.6968,5.6494,5.6494,5.6359,5.6089,5.5074,5.4346,5.3873,5.3619,5.3501,5.3501,5.3501,5.3501,5.3501,5.3501,5.3501,5.345,5.2942,5.227,5.1478,5.0527,4.9526,4.8442,4.6705,4.6076,4.6056,4.5713,4.5526,4.5505,4.563,4.5646,4.5589,4.5589,4.5478,4.5442,4.5625,4.5589,4.5552,4.5735,4.5807,4.5807,4.5807,4.5997,4.6092,4.5855,4.5997,4.6092,4.5855,4.5807,4.5981,4.6471,4.5903,4.5405,4.5405,4.5405,4.5405,4.5405,4.5405,4.5405,4.5405,4.5624,4.5975,4.6398,4.6884,4.7446,4.8033,4.8285,4.8757,4.945,4.9874,5.0486,5.1304,5.1947,5.2292,5.237,5.2441,5.2746,4.6088,4.7101,4.8328,4.9029,4.9077,4.9001,4.9001,4.8968,4.8748,4.8024,4.7889,4.7642,4.6937,4.8048,4.983,5.2038,5.3713,5.5209,5.6647,5.6258,5.5818,5.5818,5.5192,5.504,5.575,5.5818,5.6105,5.6799,5.6816,5.712,5.7848,5.7881,5.7881,5.7881,5.7881,5.7881,5.7881,5.7881,5.7526,5.6782,5.5378,5.4668,5.4566,5.3873,5.3551,5.3501,5.3501,5.3501,5.3501,5.3501,5.3501,5.3501,5.3501,5.3044,5.2367,5.2317,5.1403,4.9909,4.77,4.6913,4.6846,4.6811,4.648,4.6072,4.6072,4.5672,4.5257,4.5257,4.5235,4.5266,4.5489,4.5557,4.5662,4.5845,4.5882,4.5918,4.5918,4.6408,4.6661,4.5997,4.636,4.6613,4.6013,4.5918,4.636,4.7703,4.674,4.5871,4.5871,4.5823,4.5807,4.5807,4.5807,4.5823,4.5855,4.6439,4.6834,4.6898,4.8146,4.8904,4.8936,4.9568,5.0247,5.0999,5.1046,5.1717,5.3107,5.2444,5.2791,5.4087,5.3195,5.3242,4.5994,4.7335,4.8931,4.9043,4.9032,4.9001,4.9001,4.8578,4.8139,4.7922,4.7471,4.7032,4.6825,4.8911,5.1024,5.2217,5.4569,5.6562,5.7476,5.7459,5.734,5.734,5.7154,5.712,5.7306,5.734,5.7408,5.7594,5.7103,5.712,5.7848,5.7881,5.7881,5.7881,5.7881,5.7881,5.7881,5.7881,5.7526,5.6799,5.641,5.5666,5.4583,5.4397,5.4008,5.3501,5.3501,5.3501,5.3501,5.3501,5.3501,5.3501,5.3501,5.3382,5.3129,5.252,5.2063,5.1506,4.9835,4.8545,4.7522,4.6983,4.6828,4.6828,4.6828,4.6426,4.6017,4.6017,4.5866,4.5763,4.599,4.6403,4.6816,4.7007,4.7227,4.7372,4.7372,4.7498,4.7403,4.6676,4.6676,4.6913,4.7308,4.7372,4.7482,4.7846,4.7135,4.655,4.655,4.6123,4.5807,4.5807,4.5807,4.6013,4.6503,4.6708,4.7245,4.8288,4.8683,4.911,4.9631,4.9837,5.0247,5.0999,5.148,5.2191,5.3107,5.3408,5.3755,5.4087,5.3871,5.3886,4.6452,4.7696,4.9168,4.9032,4.9001,4.8917,4.8595,4.846,4.8206,4.7564,4.7082,4.6697,4.6389,4.8199,5.0252,5.1691,5.4104,5.6308,5.7695,5.7881,5.7881,5.7881,5.7881,5.7881,5.7881,5.7881,5.7881,5.7881,5.7509,5.7459,5.7865,5.7881,5.7881,5.7881,5.7881,5.7881,5.7881,5.7881,5.7679,5.7273,5.6951,5.6359,5.553,5.4888,5.4363,5.3957,5.3653,5.3501,5.3501,5.3501,5.3501,5.3501,5.3501,5.3501,5.345,5.2993,5.2401,5.1708,5.0879,4.9611,4.8306,4.7901,4.7638,4.7472,4.7472,4.7017,4.6515,4.6515,4.6179,4.5869,4.6055,4.6423,4.6802,4.6993,4.7489,4.7893,4.7893,4.813,4.8209,4.7798,4.7482,4.7514,4.8209,4.8083,4.8213,4.9164,4.8136,4.7521,4.811,4.7056,4.636,4.6692,4.6724,4.6866,4.7245,4.7545,4.8051,4.8841,4.9173,4.9521,4.986,4.9876,5.0405,5.1417,5.1812,5.2523,5.355,5.3913,5.4103,5.4103,5.4103,5.4103,4.7121,4.8116,4.9138,4.9032,4.8934,4.8714,4.8159,4.8392,4.8376,4.7192,4.6957,4.6697,4.5843,4.7144,4.901,5.0966,5.3238,5.548,5.7594,5.7881,5.7881,5.7881,5.7881,5.7881,5.7881,5.7881,5.7881,5.7881,5.7881,5.7881,5.7881,5.7881,5.7881,5.7881,5.7881,5.7881,5.7881,5.7881,5.7881,5.7881,5.7256,5.685,5.6613,5.5327,5.4634,5.4414,5.3788,5.3501,5.3501,5.3501,5.3501,5.3501,5.3501,5.3501,5.3501,5.3501,5.2604,5.1352,5.1219,5.0304,4.9137,4.9035,4.8576,4.8064,4.8064,4.7522,4.6965,4.7062,4.6558,4.6036,4.6311,4.6466,4.6658,4.6847,4.7511,4.8123,4.8162,4.8541,4.892,4.9015,4.8478,4.8241,4.8904,4.8541,4.8787,5.0677,4.9345,4.8658,4.9992,4.8275,4.7182,4.783,4.7893,4.794,4.8019,4.8557,4.892,4.9015,4.9584,4.9876,4.9876,4.9876,5.0579,5.1986,5.2017,5.2697,5.4103,5.4103,5.4103,5.4103,5.4103,5.4103,4.7606,4.8372,4.9032,4.9001,4.8545,4.824,4.8714,4.7953,4.7276,4.7648,4.7696,4.7316,4.5944,4.8382,5.076,5.1239,5.367,5.6072,5.7662,5.7881,5.7881,5.7881,5.7881,5.7881,5.7881,5.7881,5.7881,5.7881,5.7881,5.7881,5.7881,5.7881,5.7881,5.7881,5.7881,5.7881,5.7881,5.7881,5.7881,5.7881,5.7763,5.707,5.5902,5.5649,5.4854,5.3687,5.3568,5.3501,5.3501,5.3501,5.3501,5.3501,5.3501,5.3501,5.3501,5.3501,5.2909,5.2029,5.1388,5.0642,4.9796,4.9204,4.8909,4.8798,4.8798,4.8306,4.7853,4.8464,4.8034,4.7568,4.8219,4.8488,4.8669,4.8859,4.9108,4.9331,4.9529,4.922,4.9047,4.9631,4.9189,4.8936,4.9615,4.9647,4.9686,5.0026,4.9827,4.9934,5.079,4.902,4.7767,4.7893,4.7893,4.8114,4.8667,4.881,4.9141,4.971,4.9852,4.9876,4.9876,4.9876,5.0579,5.1986,5.2017,5.2697,5.4103,5.4103,5.4103,5.4103,5.4103,5.4103,4.7716,4.8443,4.9001,4.9001,4.846,4.7973,4.8359,4.7885,4.7479,4.7821,4.7914,4.7565,4.6463,4.8348,5.0208,5.0591,5.2871,5.5209,5.707,5.7323,5.7459,5.7848,5.7881,5.7881,5.7881,5.7881,5.7881,5.7881,5.7881,5.7881,5.7881,5.7881,5.7881,5.7881,5.7881,5.7881,5.7881,5.7881,5.7881,5.7881,5.7509,5.6968,5.6258,5.548,5.4735,5.4042,5.367,5.3501,5.3501,5.3501,5.3501,5.3501,5.3501,5.3501,5.3501,5.3501,5.2993,5.2198,5.1471,5.0727,4.9965,4.9238,4.9001,4.9001,4.9001,4.875,4.8632,4.937,4.8746,4.8109,4.9225,4.9372,4.936,4.9904,5.0193,5.0276,4.9955,4.9663,4.9638,5.0384,5.0237,5.0262,5.0968,5.1091,5.1241,5.1647,5.1372,5.1418,5.2208,5.1021,5.014,5.014,4.9802,4.9834,5.0556,5.0626,5.0756,5.1075,5.1091,5.1091,5.1091,5.1502,5.2023,5.2605,5.2973,5.3487,5.4103,5.4103,5.4103,5.4103,5.4103,5.4103,4.7902,4.8578,4.9001,4.9001,4.8342,4.7767,4.8041,4.7902,4.7767,4.8058,4.8128,4.7852,4.6949,4.7999,4.9175,4.9746,5.1767,5.4007,5.6229,5.6674,5.707,5.7797,5.7881,5.7881,5.7881,5.7881,5.7881,5.7881,5.7881,5.7881,5.7881,5.7881,5.7881,5.7881,5.7881,5.7881,5.7881,5.7881,5.7881,5.7881,5.7306,5.6867,5.6528,5.5361,5.4651,5.4329,5.3754,5.3501,5.3501,5.3501,5.3501,5.3501,5.3501,5.3501,5.3501,5.3501,5.2993,5.2215,5.1657,5.0963,5.0236,4.9661,4.9373,4.9204,4.9052,4.912,4.9357,4.9932,4.9248,4.866,4.9809,4.99,4.9872,5.0634,5.1092,5.114,5.0331,5.0136,5.0292,5.0739,5.0968,5.1273,5.1849,5.2101,5.242,5.3043,5.2751,5.2682,5.3315,5.2872,5.2526,5.2665,5.1865,5.159,5.2156,5.2191,5.2191,5.2191,5.2191,5.2274,5.2459,5.3075,5.349,5.3669,5.4261,5.4471,5.437,5.4523,5.4523,5.4354,5.4565,5.4523,4.8528,4.8951,4.9001,4.9001,4.7936,4.7242,4.8595,4.7851,4.7276,4.8629,4.8889,4.845,4.7051,4.8,4.9009,4.9016,5.0935,5.3179,5.5401,5.6331,5.707,5.7797,5.7881,5.7881,5.7881,5.7881,5.7881,5.7881,5.7881,5.7881,5.7881,5.7881,5.7881,5.7881,5.7881,5.7881,5.7881,5.7881,5.7881,5.7881,5.7814,5.7103,5.5818,5.5683,5.4871,5.3602,5.3534,5.3501,5.3501,5.3501,5.3501,5.3501,5.3501,5.3501,5.3501,5.3501,5.2993,5.2283,5.2232,5.1725,5.1099,5.1031,5.0541,4.9864,4.9204,4.9475,4.9999,5.0067,5.0002,4.9921,5.004,5.0527,5.1039,5.1408,5.1819,5.1885,5.114,5.1005,5.0778,5.0152,5.0586,5.1102,5.1177,5.1756,5.2227,5.2298,5.2872,5.3315,5.3382,5.3349,5.3566,5.4222,5.2958,5.2137,5.2191,5.2191,5.2191,5.2191,5.2191,5.2542,5.3257,5.3357,5.4,5.5263,5.5362,5.5318,5.519,5.5971,5.5971,5.519,5.6011,5.5932,4.7953,4.8663,4.9001,4.9001,4.7885,4.7192,4.8663,4.7851,4.7208,4.8697,4.9001,4.8688,4.7655,4.8306,4.9132,4.9545,5.0741,5.2285,5.41,5.5001,5.575,5.6494,5.6968,5.7408,5.7848,5.7881,5.7881,5.7881,5.7881,5.7881,5.7881,5.7881,5.7881,5.7881,5.7881,5.7881,5.7881,5.7881,5.7881,5.7881,5.7002,5.6275,5.5683,5.4786,5.4076,5.3501,5.3501,5.3501,5.3501,5.3501,5.3501,5.3501,5.3501,5.3501,5.3501,5.3501,5.3298,5.2959,5.2469,5.2114,5.1792,5.132,5.1302,5.1285,5.0557,5.0541,5.0862,5.1302,5.1099,5.098,5.1911,5.247,5.2775,5.2405,5.2612,5.2717,5.1938,5.1756,5.1829,5.1974,5.2277,5.2646,5.306,5.3399,5.3566,5.3566,5.3864,5.4061,5.4061,5.4061,5.4158,5.448,5.355,5.3112,5.3566,5.4007,5.4262,5.4262,5.4703,5.5094,5.5434,5.5876,5.6124,5.6194,5.6684,5.6625,5.6074,5.6403,5.6403,5.6074,5.6459,5.6403,4.7551,4.8443,4.9001,4.9001,4.7885,4.7192,4.8663,4.7851,4.7208,4.8697,4.9001,4.875,4.8032,4.8513,4.9091,4.9355,5.0242,5.139,5.2926,5.3973,5.4871,5.5632,5.6359,5.7002,5.7509,5.7763,5.7881,5.7881,5.7881,5.7881,5.7881,5.7881,5.7881,5.7881,5.7881,5.7881,5.7881,5.7881,5.778,5.756,5.6528,5.5818,5.5344,5.4313,5.3704,5.3501,5.3501,5.3501,5.3501,5.3501,5.3501,5.3501,5.3501,5.3501,5.3501,5.3501,5.3501,5.3416,5.2858,5.2655,5.257,5.2063,5.2249,5.2553,5.2046,5.1725,5.1606,5.1894,5.1606,5.1572,5.3112,5.3581,5.3577,5.3247,5.3466,5.3516,5.2717,5.2561,5.263,5.2975,5.323,5.355,5.4093,5.4367,5.4512,5.4512,5.4512,5.4512,5.4512,5.4512,5.4512,5.4512,5.4061,5.3946,5.448,5.5184,5.5615,5.5615,5.6357,5.6891,5.7116,5.7633,5.7758,5.739,5.7884,5.7777,5.6958,5.744,5.7541,5.7275,5.7541,5.7386,4.7716,4.8443,4.9001,4.9001,4.7885,4.7192,4.8663,4.7851,4.7208,4.8697,4.9001,4.875,4.8032,4.8513,4.8733,4.7942,4.9094,5.0621,5.2099,5.3644,5.4871,5.5632,5.6359,5.6799,5.6816,5.7459,5.7881,5.7881,5.7881,5.7881,5.7881,5.7881,5.7881,5.7881,5.7881,5.7881,5.7881,5.7881,5.7526,5.6816,5.6799,5.6021,5.46,5.4583,5.4194,5.3501,5.3501,5.3501,5.3501,5.3501,5.3501,5.3501,5.3501,5.3501,5.3501,5.3501,5.3501,5.3501,5.3501,5.3501,5.3501,5.3484,5.3484,5.3501,5.3484,5.2926,5.2147,5.1388,5.1217,5.1572,5.3112,5.3207,5.3075,5.3809,5.4239,5.4303,5.3566,5.3382,5.3163,5.2385,5.2872,5.3382,5.3416,5.4028,5.4512,5.4512,5.4512,5.4512,5.4512,5.4512,5.4512,5.4512,5.4512,5.4512,5.4512,5.5184,5.5615,5.5615,5.6357,5.7133,5.7874,5.7909,5.8254,5.8944,5.8978,5.8597,5.7777,5.9386,5.9745,5.8896,5.9781,5.9299,4.572,4.6921,4.8257,4.8257,4.753,4.7192,4.8663,4.8257,4.7834,4.8798,4.9001,4.894,4.8688,4.9266,5.0008,5.076,5.1748,5.2774,5.3733,5.4732,5.5446,5.5683,5.6799,5.7543,5.7543,5.7746,5.7881,5.7881,5.7881,5.7881,5.7881,5.7408,5.7154,5.7154,5.7154,5.6917,5.641,5.641,5.6292,5.6055,5.553,5.504,5.4566,5.4076,5.3721,5.3501,5.3501,5.3501,5.3501,5.3501,5.3501,5.3501,5.3501,5.3501,5.3501,5.3501,5.3501,5.3501,5.3501,5.3501,5.3501,5.3501,5.3501,5.3501,5.3501,5.3331,5.3078,5.2841,5.2773,5.2892,5.3382,5.3581,5.369,5.3929,5.4257,5.4448,5.419,5.4158,5.4076,5.3831,5.3979,5.4158,5.4158,5.4335,5.4512,5.4512,5.4512,5.4512,5.4512,5.4512,5.4512,5.4512,5.4512,5.4512,5.4512,5.5684,5.6426,5.6426,5.7616,5.8426,5.865,5.8668,5.8771,5.9012,5.9547,5.9701,5.9438,5.996,5.977,5.8975,5.9271,5.9099,4.5128,4.621,4.7564,4.7821,4.7361,4.7192,4.8663,4.8443,4.8122,4.8849,4.9001,4.9086,4.9357,4.9779,5.049,5.1691,5.2317,5.301,5.4042,5.482,5.5497,5.6055,5.6934,5.7476,5.7476,5.7729,5.7881,5.7881,5.7881,5.7763,5.7492,5.7053,5.6545,5.5987,5.6241,5.6173,5.5681,5.5681,5.5581,5.5294,5.482,5.4448,5.416,5.3704,5.3501,5.3501,5.3501,5.3501,0.0,5.3501,5.3501,5.3501,5.3501,5.3501,5.3501,5.3501,5.3501,5.3501,5.3501,5.3501,5.3501,5.3501,5.3501,5.3501,5.3501,5.3501,5.3501,5.3501,5.3501,5.3501,5.3501,5.3685,5.3915,5.398,5.4207,5.4399,5.448,5.4512,5.4512,5.4512,5.4512,5.4512,5.4512,5.4512,5.4512,5.4512,5.4512,5.4512,5.4512,5.4512,5.4512,5.4512,5.4512,5.4512,5.4512,5.5908,5.6805,5.6805,5.8185,5.9012,5.9012,5.9306,5.9461,5.9461,6.022,6.0478,6.0202,6.0202,5.9944,5.9461,5.9461,5.9306,0.0,4.6164,4.6942,4.7686,4.7365,4.7242,4.8649,4.8446,0.0,4.8866,4.9001,4.9221,4.9949,5.0135,5.0439,5.1251,5.1471,5.2029,5.3467,5.4296,5.5277,5.6714,5.6884,5.6884,5.6884,5.7492,5.7881,5.7881,5.7831,5.7509,5.685,5.6697,5.6021,5.4634,5.5226,5.5529,5.5529,5.5529,5.5209,5.4515,5.4515,5.416,5.3501,5.3501,5.3501,5.3501,5.3501,5.3501,5.3501,5.3501,5.3501,5.3501,5.3501,5.3501,5.3501,5.3501,5.3501,5.3501,5.3501,5.3501,5.3501,5.3501,5.3501,5.3501,5.3501,5.3501,5.3501,5.3501,5.3501,5.3501,5.3501,5.3601,5.375,5.3915,5.4078,5.4239,5.4399,5.448,5.448,5.448,5.448,5.4512,5.4512,5.4512,5.4512,5.4512,5.4512,5.4512,5.4512,5.4512,5.4512,5.4512,5.4512,5.4512,5.4512,5.5857,5.6736,5.6805,5.8133,5.8961,5.9012,5.972,6.0116,6.0116,6.084,6.0875,6.0202,6.0202,6.0168,6.0116,6.0116,5.972,4.4452,0.0,4.6729,4.7382,4.7446,4.7656,0.0,4.879,4.8798,4.8968,4.9001,4.9221,4.9949,5.0557,5.1386,5.2756,5.3923,5.4786,5.5107,5.5818,5.6613,5.7526,5.7628,5.7628,5.7628,5.778,5.7881,5.7881,5.7374,5.6985,5.6816,5.5733,5.4955,5.46,5.4228,5.4025,5.4025,5.4025,5.394,5.3754,5.3754,5.367,5.3501,5.3501,5.3501,5.3501,5.3501,5.3501,5.3501,5.3501,5.3501,5.3501,5.3501,5.3501,5.3501,5.3501,5.3501,5.3501,5.3501,5.3501,5.3501,5.3501,5.3501,5.3501,5.3501,5.3501,5.3501,5.3501,5.3501,5.3501,5.3501,5.3601,5.37,5.375,5.3915,5.4045,5.4127,5.4207,5.4271,5.4271,5.4399,5.4512,5.4512,5.4512,5.4512,5.4512,5.4512,5.4512,5.4512,5.4512,5.4512,5.4512,5.4512,5.4512,5.4512,5.5357,5.615,5.6753,5.765,5.8426,5.8995,5.9185,5.9288,5.9288,6.0064,6.0358,6.0202,6.0202,5.9875,5.9288,5.9288,5.9185,4.4799,4.5671,4.6566,4.7211,4.7725,4.8224,4.9058,4.9068,4.8925,4.897,4.9272,4.9729,5.0473,5.1217,5.2215,5.3754,5.4397,5.4938,5.5615,5.663,5.7323,5.7391,5.7391,5.7256,5.6917,5.6884,5.6884,5.6884,5.6528,5.6156,5.5801,5.5023,5.4431,5.411,5.3704,5.3501,5.3501,5.3501,5.3501,5.3501,5.3501,5.3501,5.3501,5.3501,5.3501,5.3501,5.3501,5.3501,5.3501,5.3501,5.3501,5.3501,5.3501,5.3501,5.3501,5.3501,5.3501,5.3501,5.3501,5.3501,5.3501,5.3501,5.3501,5.3501,5.3501,5.3501,5.3501,5.3501,5.3501,5.3501,5.3501,5.3551,5.3634,5.3684,5.3766,5.3882,5.398,5.4045,5.4143,5.419,5.4303,5.4399,5.448,5.4512,5.4512,5.4512,5.4512,5.4512,5.4512,5.4512,5.4512,5.4512,5.4512,5.4512,5.4512,5.4874,5.5598,5.6736,5.7495,5.8236,5.8978,5.9357,5.972,6.0064,6.0151,6.0202,6.0202,5.9823,5.9426,5.9012,5.9012,5.9012,4.5582,4.6274,4.6748,4.7335,4.8069,4.885,4.9448,4.9291,4.9032,4.914,4.9746,5.049,5.1251,5.1995,5.2942,5.4363,5.416,5.4363,5.5835,5.6917,5.7357,5.6867,5.6714,5.6393,5.5784,5.5681,5.5681,5.5681,5.5615,5.526,5.4617,5.4482,5.4143,5.3518,5.3501,5.3501,5.3501,5.3501,5.3501,5.3501,5.3501,5.3501,5.3501,5.3501,5.3501,5.3501,5.3501,5.3501,5.3501,5.3501,5.3501,5.3501,5.3501,5.3501,5.3501,5.3501,5.3501,5.3484,5.3365,5.3315,5.3315,5.3315,5.3315,5.3348,5.3467,5.3501,5.3501,5.3501,5.3501,5.3501,5.3501,5.3501,5.3534,5.3651,5.3684,5.3717,5.3899,5.3948,5.398,5.4093,5.4158,5.4271,5.4399,5.448,5.4512,5.4512,5.4512,5.4512,5.4512,5.4512,5.4512,5.4512,5.4512,5.4512,5.4512,5.4512,5.5167,5.6702,5.7391,5.8116,5.8978,5.9651,6.0306,6.0944,6.034,6.0013,6.0013,5.934,5.9012,5.9012,5.9012,5.9012,4.5415,4.6899,4.7976,4.7932,4.8676,4.9287,4.88,4.9323,4.99,4.9932,5.0524,5.1268,5.1995,5.279,5.3602,5.4448,5.504,5.5886,5.734,5.6681,5.6241,5.6748,5.6258,5.58,5.5698,5.5681,5.5681,5.5681,5.5124,5.4718,5.46,5.4008,5.3619,5.3501,5.3501,5.3501,5.3501,5.3501,5.3501,5.3501,5.3501,5.3501,5.3501,5.3501,5.3501,5.3501,5.3501,5.3501,5.3501,5.3501,5.3501,5.3501,5.3501,5.3501,5.3501,5.3501,5.3501,5.3399,5.2723,5.2486,5.2486,5.2486,5.2486,5.2604,5.3298,5.3501,5.3501,5.3501,5.3501,5.3501,5.3501,5.3501,5.3501,5.3534,5.3534,5.3534,5.3568,5.3668,5.3733,5.3766,5.4013,5.419,5.4239,5.4367,5.4512,5.4512,5.4512,5.4512,5.4512,5.4512,5.4512,5.4512,5.4512,5.4512,5.4512,5.4512,5.5167,5.6702,5.6909,5.7581,5.8961,5.9133,5.9254,5.9357,5.9254,5.9185,5.9185,5.9064,5.9012,5.9012,5.9012,5.9012,4.4726,4.6341,4.7633,4.8064,4.9492,5.0726,5.0507,5.0535,5.0614,5.0678,5.1285,5.1911,5.2249,5.3281,5.4346,5.5074,5.6156,5.685,5.6731,5.6478,5.6122,5.5666,5.531,5.4955,5.4566,5.4515,5.4515,5.4515,5.4211,5.4008,5.4008,5.3687,5.3501,5.3501,5.3501,5.3501,5.3501,5.3501,5.3501,5.3501,5.3501,5.3501,5.3501,5.3501,5.3501,5.3501,5.3501,5.3501,5.3501,5.3501,5.3501,5.3501,5.3501,5.3501,5.3501,5.3501,5.323,5.2807,5.2435,5.2046,5.1775,5.2181,5.23,5.2452,5.3264,5.3501,5.3501,5.3501,5.3501,5.3501,5.3501,5.3501,5.3501,5.3501,5.3501,5.3501,5.3501,5.3551,5.3601,5.3684,5.3799,5.3963,5.4078,5.4239,5.4335,5.4335,5.4448,5.4512,5.4512,5.4512,5.4512,5.4512,5.4512,5.4512,5.4512,5.4874,5.5581,5.6736,5.7547,5.8288,5.8978,5.9012,5.9012,5.9012,5.9012,5.9012,5.9012,5.9012,5.9012,5.9012,5.9012,5.9012,4.4337,4.5928,4.7251,4.8277,4.9925,5.1447,5.1984,5.168,5.1426,5.1912,5.2452,5.2841,5.2841,5.394,5.504,5.5632,5.6799,5.7239,5.6139,5.6156,5.5869,5.4718,5.4448,5.411,5.3551,5.3501,5.3501,5.3501,5.3501,5.3416,5.323,5.323,5.3145,5.2976,5.3129,5.323,5.323,5.3416,5.3501,5.3501,5.3501,5.3501,5.3501,5.3501,5.3501,5.3501,5.3501,5.3501,5.3501,5.3501,5.3501,5.3501,5.3501,5.3501,5.3484,5.3298,5.2959,5.2536,5.2181,5.1674,5.1269,5.186,5.2046,5.2198,5.2993,5.3348,5.3501,5.3501,5.3501,5.3501,5.3501,5.3501,5.3501,5.3501,5.3501,5.3501,5.3501,5.3501,5.3534,5.3634,5.3684,5.375,5.3915,5.4045,5.4158,5.4158,5.4271,5.4367,5.4448,5.4448,5.4448,5.4512,5.4512,5.4512,5.4512,5.5357,5.615,5.6753,5.803,5.8823,5.9012,5.9012,5.9012,5.9012,5.9012,5.9012,5.9012,5.9012,5.9012,5.9012,5.9012,5.9012,4.4964,4.6435,4.7526,4.8959,4.9557,5.0173,5.1748,5.2151,5.2638,5.4059,5.4397,5.4431,5.4431,5.5091,5.5649,5.57,5.6376,5.685,5.6748,5.5581,5.4718,5.46,5.3991,5.3568,5.3518,5.3501,5.3501,5.3501,5.3501,5.3179,5.2435,5.2384,5.208,5.1371,5.2046,5.2384,5.2384,5.3129,5.3501,5.3501,5.3501,5.3501,5.3501,5.3501,5.3501,5.3501,5.3501,5.3501,5.3501,5.3501,5.3501,5.3501,5.3501,5.3501,5.3416,5.2655,5.2824,5.3213,5.1792,5.1251,5.1217,5.1268,5.1302,5.1437,5.2164,5.2909,5.3501,5.3501,5.3501,5.3501,5.3501,5.3501,5.3501,5.3501,5.3501,5.3501,5.3501,5.3501,5.3501,5.3501,5.3601,5.37,5.3717,5.3882,5.4013,5.4013,5.4013,5.4078,5.4207,5.4222,5.4303,5.448,5.4512,5.4512,5.4512,5.5857,5.6736,5.6805,5.7547,5.8288,5.8978,5.9012,5.9012,5.9012,5.9012,5.9012,5.9012,5.9012,5.9012,5.9012,5.9012,5.9012,4.3111,4.5438,4.7341,4.7876,4.927,5.0875,5.2421,5.3179,5.3888,5.5039,5.4921,5.4448,5.3991,5.4515,5.5023,5.5023,5.5632,5.597,5.5497,5.4938,5.4431,5.3974,5.367,5.3501,5.3501,5.3501,5.3298,5.279,5.2756,5.2418,5.1674,5.164,5.1505,5.1217,5.1488,5.1843,5.23,5.2604,5.301,5.3501,5.3501,5.3501,5.3501,5.3501,5.3501,5.3501,5.3501,5.3501,5.3501,5.3501,5.3501,5.3501,5.3501,5.3501,5.3399,5.2604,5.2486,5.2604,5.1572,5.0913,5.0591,5.1065,5.0896,5.0744,5.1944,5.252,5.2858,5.3365,5.3501,5.3501,5.3501,5.3501,5.3501,5.3501,5.3501,5.3501,5.3501,5.3501,5.3501,5.3501,5.3517,5.3584,5.3584,5.3701,5.3816,5.3816,5.3915,5.4013,5.4078,5.4078,5.4143,5.4303,5.4448,5.4701,5.5167,5.6184,5.6995,5.746,5.8185,5.8719,5.8995,5.9012,5.9012,5.9012,5.9012,5.9012,5.9012,5.9012,5.9012,5.9012,5.9012,5.9012,4.3036,4.5399,4.7387,4.7838,4.9437,5.1312,5.2842,5.3617,5.4343,5.5478,5.4938,5.4008,5.3264,5.3737,5.4245,5.4245,5.4871,5.5192,5.4668,5.4397,5.3957,5.3213,5.3129,5.3044,5.2807,5.2773,5.2553,5.1995,5.1961,5.164,5.0896,5.0862,5.076,5.0524,5.0744,5.1099,5.1606,5.1843,5.2232,5.279,5.301,5.3264,5.3501,5.3501,5.3501,5.3501,5.3501,5.3501,5.3501,5.3501,5.3501,5.3501,5.3501,5.3501,5.3399,5.2604,5.23,5.2198,5.1471,5.0727,5.0168,5.0693,5.0507,5.0287,5.1302,5.1775,5.208,5.2621,5.2773,5.2841,5.3061,5.3315,5.3501,5.3501,5.3501,5.3501,5.3501,5.3501,5.3501,5.3501,5.3501,5.3501,5.3501,5.3584,5.3634,5.3634,5.3767,5.3866,5.3882,5.3915,5.3948,5.411,5.4303,5.4606,5.5122,5.6169,5.7012,5.7529,5.8478,5.9012,5.9012,5.9012,5.9012,5.9012,5.9012,5.9012,5.9012,5.9012,5.9012,5.9012,5.9012,5.9012,4.5308,4.6703,4.7747,4.9202,5.0157,5.1129,5.2808,5.3332,5.3923,5.5377,5.4549,5.3264,5.2452,5.2959,5.3501,5.3501,5.4093,5.4566,5.4566,5.394,5.3179,5.2384,5.2283,5.2012,5.1252,5.1185,5.1185,5.12,5.12,5.0879,5.0118,5.0084,4.9746,4.9018,4.9712,5.0084,5.0084,5.0828,5.1185,5.1217,5.1944,5.2706,5.3501,5.3501,5.3501,5.3501,5.3501,5.3501,5.3501,5.3501,5.3501,5.3501,5.3501,5.3501,5.3399,5.2587,5.2283,5.2181,5.1454,5.071,5.0084,5.0084,5.0084,5.0084,5.0084,5.0608,5.12,5.1185,5.1185,5.1386,5.2114,5.2892,5.3501,5.3501,5.3501,5.3501,5.3501,5.3501,5.3501,5.3501,5.3501,5.3501,5.3501,5.3501,5.3501,5.3501,5.3501,5.3551,5.3684,5.37,5.3783,5.398,5.411,5.419,5.419,5.5778,5.6788,5.6788,5.8185,5.9012,5.9012,5.9012,5.9012,5.9012,5.9012,5.9012,5.9012,5.9012,5.9012,5.9012,5.9012,5.9012,4.3357,4.506,4.6812,4.7703,4.95,5.1275,5.2202,5.3297,5.4225,5.4802,5.4583,5.3873,5.2536,5.2959,5.3315,5.2756,5.2841,5.2976,5.2976,5.235,5.1809,5.1555,5.1539,5.1454,5.1202,5.1185,5.0997,5.0473,5.0422,5.0101,4.9373,4.9323,4.9221,4.9018,4.9221,4.9576,5.0084,5.0321,5.0693,5.1185,5.1437,5.1928,5.2689,5.3247,5.3501,5.3501,5.3501,5.3501,5.3501,5.3501,5.3501,5.3501,5.3501,5.3162,5.257,5.1809,5.1539,5.1437,5.0676,5.027,5.0084,5.0084,4.9746,4.9424,4.9932,5.0253,5.0541,5.1065,5.1185,5.1386,5.2114,5.2486,5.2807,5.3365,5.3501,5.3501,5.3501,5.3501,5.3501,5.3501,5.3501,5.3501,5.3501,5.3501,5.3501,5.3501,5.3501,5.3501,5.3551,5.3634,5.37,5.3766,5.3948,5.4045,5.4045,5.5497,5.6371,5.6371,5.793,5.8892,5.9012,5.9012,5.9012,5.9012,5.9012,5.9012,5.9012,5.9012,5.9012,5.9012,5.9012,5.9012,4.5133,4.6605,4.8102,4.9399,5.0702,5.1726,5.2083,5.2859,5.3551,5.3653,5.3213,5.2604,5.1978,5.2029,5.208,5.1894,5.186,5.186,5.186,5.1488,5.1099,5.0811,5.076,5.0659,5.0371,5.0338,5.0152,4.9695,4.9661,4.9475,4.9018,4.9001,4.9001,4.9001,4.9001,4.9221,4.9661,4.9661,4.9881,5.0338,5.0625,5.0997,5.1454,5.2536,5.3196,5.3501,5.3501,5.3501,5.3501,5.3501,5.3315,5.3027,5.3027,5.2553,5.1809,5.1369,5.1014,5.071,5.0253,4.9898,4.9661,4.9661,4.9357,4.9086,4.9526,4.9661,4.9763,5.0202,5.0338,5.0507,5.1234,5.164,5.2147,5.3247,5.3501,5.3501,5.3501,5.3501,5.3501,5.3501,5.3501,5.3501,5.3501,5.3501,5.3501,5.3501,5.3501,5.3501,5.3501,5.3584,5.3634,5.3634,5.3783,5.3882,5.3882,5.504,5.5894,5.6167,5.7483,5.8392,5.8771,5.8944,5.9012,5.9012,5.9012,5.9012,5.9012,5.9012,5.9012,5.9012,5.9012,5.9012,4.8772,4.9721,5.0439,5.2689,5.279,5.2283,5.2215,5.2147,5.2114,5.2198,5.1133,5.0405,5.1099,5.0659,5.0422,5.1099,5.115,5.1083,5.1083,5.1048,5.076,5.0067,4.9999,4.9729,4.9069,4.9001,4.9001,4.9001,4.9001,4.9001,4.9001,4.9001,4.9001,4.9001,4.9001,4.9001,4.9001,4.9001,4.9001,4.9018,4.9678,5.0016,5.0135,5.1555,5.2638,5.3399,5.3467,5.3467,5.3399,5.3399,5.2926,5.2198,5.2198,5.1758,5.1083,5.1083,5.0642,4.9999,4.9999,4.956,4.9001,4.9001,4.9001,4.9001,4.9001,4.9001,4.9001,4.9001,4.9001,4.9171,4.9898,5.0659,5.1589,5.3044,5.345,5.3501,5.3501,5.3501,5.3501,5.3501,5.3501,5.3501,5.3501,5.3501,5.3501,5.3501,5.3501,5.3501,5.3501,5.3501,5.3501,5.3501,5.3601,5.3684,5.3684,5.4531,5.5382,5.6116,5.6867,5.7653,5.8456,5.8823,5.8978,5.8978,5.8978,5.9012,5.9012,5.9012,5.9012,5.9012,5.9012,5.9012,4.6569,4.7569,4.8762,5.0972,5.1914,5.2147,5.1589,5.0997,5.0727,5.1336,5.12,5.1014,5.1183,5.1082,5.1031,5.1183,5.071,5.0338,5.0338,4.9847,4.9407,4.9255,4.9238,4.9171,4.9018,4.9001,4.9001,4.9001,4.9001,4.9001,4.9001,4.9001,4.9001,4.9001,4.9001,4.9001,4.9001,4.9001,4.9001,4.9001,4.9171,4.9543,5.0118,5.1031,5.186,5.2587,5.323,5.3145,5.2553,5.2553,5.2114,5.1454,5.1454,5.0997,5.0338,5.0338,4.9864,4.9238,4.9238,4.9137,4.9001,4.9001,4.9001,4.9001,4.9001,4.9001,4.9001,4.9001,4.9001,4.9171,4.9898,5.0659,5.1454,5.235,5.3044,5.3501,5.3501,5.3501,5.3501,5.3501,5.3501,5.3501,5.3501,5.3501,5.3501,5.3501,5.3501,5.3501,5.3501,5.3501,5.3501,5.3501,5.3534,5.3551,5.3551,5.4262,5.5008,5.5771,5.6131,5.6881,5.8209,5.8631,5.884,5.884,5.8961,5.9012,5.9012,5.9012,5.9012,5.9012,5.9012,5.9012,4.6893,4.8116,4.9398,5.1628,5.2538,5.2587,5.1471,5.0913,5.0541,5.0219,5.0168,5.0168,5.0168,5.0168,5.0168,5.0168,4.983,4.956,4.956,4.9238,4.9001,4.9001,4.9001,4.9001,4.9001,4.9001,4.9001,4.9001,4.9001,4.9001,4.9001,4.9001,4.9001,4.9001,4.9001,4.9001,4.9001,4.9001,4.9001,4.9001,4.9001,4.9204,4.961,5.071,5.142,5.1809,5.2232,5.2164,5.1775,5.1775,5.1352,5.0676,5.0676,5.0219,4.956,4.956,4.9323,4.9001,4.9001,4.9001,4.9001,4.9001,4.9001,4.9001,4.9001,4.9001,4.9001,4.9001,4.9001,4.9086,4.9475,5.0388,5.1319,5.1691,5.2672,5.3501,5.3501,5.3501,5.3501,5.3501,5.3501,5.3501,5.3501,5.3501,5.3501,5.3501,5.3501,5.3501,5.3501,5.3501,5.3501,5.3501,5.3501,5.3501,5.3501,5.3856,5.4397,5.5141,5.5601,5.6348,5.7467,5.8144,5.8561,5.8631,5.8736,5.8823,5.8892,5.8892,5.8927,5.9012,5.9012,5.9012,4.7244,4.9029,5.0574,5.2604,5.3296,5.3058,5.1539,5.118,5.0786,4.9472,4.9086,4.9001,4.9001,4.9001,4.9001,4.9001,4.9001,4.9001,4.9001,4.9001,4.9001,4.9001,4.9001,4.9001,4.9001,4.9001,4.9001,4.9001,4.9001,4.9001,4.9001,4.9001,4.9001,4.9001,4.9001,4.9001,4.9001,4.9001,4.9001,4.9001,4.9001,4.9001,4.9035,5.027,5.0896,5.1031,5.115,5.115,5.1014,5.1014,5.0591,4.9898,4.9898,4.9543,4.9001,4.9001,4.9001,4.9001,4.9001,4.9001,4.9001,4.9001,4.9001,4.9001,4.9001,4.9001,4.9001,4.9001,4.9001,4.9035,4.9171,5.0202,5.1219,5.1369,5.2486,5.3501,5.3501,5.3501,5.3501,5.3501,5.3501,5.3501,5.3501,5.3501,5.3501,5.3501,5.3501,5.3501,5.3501,5.3501,5.3501,5.3501,5.3501,5.3501,5.3501,5.3501,5.3873,5.4735,5.5243,5.597,5.6951,5.7586,5.8105,5.8367,5.8455,5.8596,5.8753,5.8753,5.8806,5.8909,5.8909,5.8944,4.4415,4.7353,5.0321,5.1285,5.2413,5.2938,5.1532,5.1165,5.0892,5.0108,4.9441,4.9001,4.9001,4.9001,4.9001,4.9001,4.9001,4.9001,4.9001,4.9001,4.9001,4.9001,4.9001,4.9001,4.9001,4.9001,4.9001,4.9001,4.9001,4.9001,4.9001,4.9001,4.9001,4.9001,4.9001,4.9001,4.9001,4.9001,4.9001,4.9001,4.9001,4.9001,4.9018,4.9204,4.9644,5.027,5.093,5.0845,5.0236,5.0236,4.9813,4.9154,4.9154,4.9086,4.9001,4.9001,4.9001,4.9001,4.9001,4.9001,4.9001,4.9001,4.9001,4.9001,4.9001,4.9001,4.9001,4.9001,4.9001,4.9154,4.9779,5.0574,5.1369,5.2012,5.2841,5.3501,5.3501,5.3501,5.3501,5.3501,5.3501,5.3501,5.3501,5.3501,5.3501,5.3501,5.3501,5.3501,5.3501,5.3501,5.3501,5.3501,5.3501,5.3501,5.3501,5.3501,5.4093,5.548,5.5057,5.5649,5.7662,5.7258,5.7275,5.7954,5.8331,5.8525,5.8525,5.8525,5.8561,5.8561,5.8561,5.8666,4.4399,4.6887,4.9255,5.0828,5.1662,5.2172,5.2352,5.1661,5.0818,5.0168,4.9068,4.8475,4.9342,4.9229,4.9107,4.9453,4.9229,4.9001,4.9001,4.9001,4.9001,4.9001,4.9001,4.9001,4.9001,4.9001,4.9001,4.9001,4.9001,4.9001,4.9001,4.9001,4.9001,4.9001,4.9001,4.9001,4.9001,4.9001,4.9001,4.9001,4.9001,4.9001,4.9001,4.9001,4.9187,4.9509,4.983,4.9779,4.9475,4.9475,4.9289,4.9001,4.9001,4.9001,4.9001,4.9001,4.9001,4.9001,4.9001,4.9001,4.9001,4.9001,4.9001,4.9001,4.9001,4.9001,4.9001,4.9001,4.9001,4.9171,4.9898,5.0659,5.1403,5.2131,5.2909,5.3501,5.3501,5.3501,5.3501,5.3501,5.3501,5.3501,5.3501,5.3501,5.3501,5.3501,5.3501,5.3501,5.3501,5.3501,5.3501,5.3501,5.3501,5.3501,5.3501,5.3501,5.3788,5.4448,5.4955,5.5649,5.663,5.7154,5.756,5.7881,5.808,5.8224,5.8331,5.8331,5.8367,5.849,5.849,5.8561,4.4474,4.6333,4.7915,5.0272,5.1276,5.1884,5.2736,5.2131,5.1095,5.009,4.8924,4.8484,4.9795,4.944,4.9074,4.951,4.9406,4.9168,4.9032,4.9001,4.9001,4.9001,4.9001,4.9001,4.9001,4.9001,4.9001,4.9001,4.9001,4.9001,4.9001,4.9001,4.9001,4.9001,4.9001,4.9001,4.9001,4.9001,4.9001,4.9001,4.9001,4.9001,4.9001,4.9001,4.9001,4.9001,4.9001,4.9001,4.9001,4.9001,4.9001,4.9001,4.9001,4.9001,4.9001,4.9001,4.9001,4.9001,4.9001,4.9001,4.9001,4.9001,4.9001,4.9001,4.9001,4.9001,4.9001,4.9001,4.9001,4.9221,5.0135,5.0794,5.1454,5.2384,5.3061,5.3501,5.3501,5.3501,5.3501,5.3501,5.3501,5.3501,5.3501,5.3501,5.3501,5.3501,5.3501,5.3501,5.3501,5.3501,5.3501,5.3501,5.3501,5.3501,5.3501,5.3501,5.3585,5.3771,5.482,5.5598,5.597,5.7036,5.7695,5.7881,5.7881,5.7954,5.8116,5.8116,5.8188,5.8331,5.8331,5.8367,4.3525,4.5081,4.6474,4.9286,5.1454,5.2744,5.2039,5.2306,5.2093,4.996,4.9441,4.9618,5.0261,4.9502,4.881,4.8775,4.9396,4.9656,4.9094,4.9001,4.9001,4.9001,4.9001,4.9001,4.9001,4.9001,4.9001,4.9001,4.9001,4.9001,4.9001,4.9001,4.9001,4.9001,4.9001,4.9001,4.9001,4.9001,4.9001,4.9001,4.9001,4.9001,4.9001,4.9001,4.9001,4.9001,4.9001,4.9001,4.9001,4.9001,4.9001,4.9001,4.9001,4.9001,4.9001,4.9001,4.9001,4.9001,4.9001,4.9001,4.9001,4.9001,4.9001,4.9001,4.9001,4.9001,4.9001,4.9001,4.9001,4.934,5.0777,5.1183,5.1589,5.3078,5.3467,5.3501,5.3501,5.3501,5.3501,5.3501,5.3501,5.3501,5.3501,5.3501,5.3501,5.3501,5.3501,5.3501,5.3501,5.3501,5.3501,5.3501,5.3501,5.3501,5.3501,5.3501,5.3805,5.4482,5.46,5.5277,5.6681,5.6816,5.7188,5.7881,5.7881,5.7935,5.7918,5.7918,5.7918,5.7918,5.7918,5.8044,4.1967,4.3247,4.471,4.6703,4.838,4.983,5.0869,5.114,5.1002,5.0282,4.9724,4.9443,4.9656,4.9448,4.94,4.9899,4.994,4.9686,4.9077,4.9001,4.9001,4.9001,4.9001,4.9001,4.9001,4.9001,4.9001,4.9001,4.9001,4.9001,4.9001,4.9001,4.9001,4.9001,4.9001,4.9001,4.9001,4.9001,4.9001,4.9001,4.9001,4.9001,4.9001,4.9001,4.9001,4.9001,4.9001,4.9001,4.9001,4.9001,4.9001,4.9001,4.9001,4.9001,4.9001,4.9001,4.9001,4.9001,4.9001,4.9001,4.9001,4.9001,4.9001,4.9001,4.9001,4.9001,4.9001,4.9001,4.9001,4.9238,5.0236,5.0862,5.1606,5.3129,5.3501,5.3501,5.3501,5.3501,5.3501,5.3501,5.3501,5.3501,5.3501,5.3501,5.3501,5.3501,5.3501,5.3501,5.3501,5.3501,5.3501,5.3501,5.3501,5.3501,5.3501,5.3501,5.3619,5.3873,5.4329,5.5057,5.6055,5.6562,5.7154,5.7881,5.7881,5.7881,5.7881,5.7881,5.7881,5.7881,5.7881,5.7935,4.0676,4.1835,4.3325,4.4837,4.6237,4.7709,4.9538,5.0165,5.0303,5.0109,5.0002,4.9894,4.971,4.9902,5.0216,5.0558,5.0367,4.9988,4.9394,4.9138,4.9001,4.9001,4.9001,4.9001,4.9001,4.9001,4.9001,4.9001,4.9001,4.9001,4.9001,4.9001,4.9001,4.9001,4.9001,4.9001,4.9001,4.9001,4.9001,4.9001,4.9001,4.9001,4.9001,4.9001,4.9001,4.9001,4.9001,4.9001,4.9001,4.9001,4.9001,4.9001,4.9001,4.9001,4.9001,4.9001,4.9001,4.9001,4.9001,4.9001,4.9001,4.9001,4.9001,4.9001,4.9001,4.9001,4.9001,4.9001,4.9001,4.9238,5.0202,5.1217,5.2249,5.3264,5.3501,5.3501,5.3501,5.3501,5.3501,5.3501,5.3501,5.3501,5.3501,5.3501,5.3501,5.3501,5.3501,5.3501,5.3501,5.3501,5.3501,5.3501,5.3501,5.3501,5.3501,5.3501,5.3501,5.3501,5.3957,5.4566,5.531,5.6055,5.6782,5.7509,5.7763,5.7881,5.7881,5.7881,5.7881,5.7881,5.7881,5.7881,0.0,0.0,0.0,4.3872,4.5338,4.6767,4.8023,4.9394,5.0162,4.934,5.0304,5.1107,5.0508,5.0897,5.1102,5.0508,5.0566,5.0507,4.9988,4.9394,4.9001,4.9001,4.9001,4.9001,4.9001,4.9001,4.9001,4.9001,4.9001,4.9001,4.9001,4.9001,4.9001,4.9001,4.9001,4.9001,4.9001,4.9001,4.9001,4.9001,4.9001,4.9001,4.9001,4.9001,4.9001,4.9001,4.9001,4.9001,4.9001,4.9001,4.9001,4.9001,4.9001,4.9001,4.9001,4.9001,4.9001,4.9001,4.9001,4.9001,4.9001,4.9001,4.9001,4.9001,4.9001,4.9001,4.9001,4.9001,4.9001,4.934,5.0811,5.2317,5.3467,5.345,5.3467,5.3501,5.3467,5.3484,5.3501,5.3501,5.3501,5.3501,5.3501,5.3501,5.3501,5.3501,5.3501,5.3501,5.3501,5.3501,5.3501,5.3501,5.3501,5.3501,5.3501,5.3501,5.3501,5.3501,5.3501,5.3822,5.4566,5.5294,5.6021,5.6748,5.7459,5.7831,5.7865,5.7881,5.7881,5.7881,5.7881,5.7881,3.9582,0.0,0.0,0.0,0.0,0.0,4.5935,4.7218,4.8264,4.8557,4.9731,5.07,5.0637,5.1111,5.1329,5.0716,5.0664,5.0507,4.9988,4.9394,4.9001,4.9001,4.9001,4.9001,4.9001,4.9001,4.9001,4.9001,4.9001,4.9001,4.9001,4.9001,4.9001,4.9001,4.9001,4.9001,4.9001,4.9001,4.9001,4.9001,4.9001,4.9001,4.9001,4.9001,4.9001,4.9001,4.9001,4.9001,4.9001,4.9001,4.9001,4.9001,4.9001,4.9001,4.9001,4.9001,4.9001,4.9001,4.9001,4.9001,4.9001,4.9001,4.9001,4.9001,4.9001,4.9001,4.9001,4.9001,4.9001,4.9221,5.0152,5.1505,5.2503,5.1978,5.2706,5.3348,5.2756,5.3095,5.3501,5.3501,5.3501,5.3501,5.3501,5.3501,5.3501,5.3501,5.3501,5.3501,5.3501,5.3501,5.3501,5.3501,5.3501,5.3501,5.3501,5.3501,5.3501,5.3501,5.3501,5.3822,5.4566,5.4786,5.526,5.6004,5.6207,5.6579,5.7103,5.7628,5.7881,5.7881,5.7881,5.7881,3.9055,3.9931,4.0929,4.1802,0.0,0.0,4.5469,4.6633,4.7736,4.8808,4.9864,5.053,5.0382,5.0822,5.1052,5.047,5.0359,5.0265,4.993,4.9394,4.9001,4.9001,4.9001,4.9001,4.9001,4.9001,4.9001,4.9001,4.9001,4.9001,4.9001,4.9001,4.9001,4.9001,4.9001,4.9001,4.9001,4.9001,4.9001,4.9001,4.9001,4.9001,4.9001,4.9001,4.9001,4.9001,4.9001,4.9001,4.9001,4.9001,4.9001,4.9001,4.9001,4.9001,4.9001,4.9001,4.9001,4.9001,4.9001,4.9001,4.9001,4.9001,4.9001,4.9001,4.9001,4.9001,4.9001,4.9001,4.9221,4.956,4.9982,5.0963,5.1742,5.1286,5.1911,5.2503,5.2334,5.2672,5.3112,5.3433,5.3501,5.3399,5.3061,5.301,5.301,5.301,5.301,5.3129,5.3467,5.3501,5.3501,5.3501,5.3501,5.3501,5.3501,5.3501,5.3501,5.3501,5.3501,5.3687,5.411,5.4431,5.4803,5.5243,5.5547,5.6072,5.6799,5.7222,5.7594,5.7881,5.7881,5.7881,3.8423,3.9451,4.0685,4.1638,4.2512,0.0,4.5761,4.6749,4.7651,4.9085,4.9855,5.0103,4.9643,5.0074,5.0285,4.9648,4.97,4.9832,4.989,4.9462,4.912,4.912,4.912,4.912,4.912,4.9052,4.9001,4.9001,4.9001,4.9001,4.9001,4.9001,4.9001,4.9001,4.9001,4.9001,4.9001,4.9001,4.9001,4.9001,4.9001,4.9001,4.9001,4.9001,4.9001,4.9001,4.9001,4.9001,4.9001,4.9001,4.9001,4.9001,4.9001,4.9001,4.9001,4.9001,4.9001,4.9001,4.9001,4.9001,4.9001,4.9001,4.9001,4.9001,4.9001,4.9001,4.9001,4.9001,4.9526,5.0067,4.9982,5.0591,5.1151,5.0982,5.1067,5.1369,5.1928,5.2131,5.2401,5.3112,5.3315,5.3145,5.2418,5.2232,5.2215,5.2283,5.23,5.2587,5.3399,5.3501,5.3501,5.3501,5.3501,5.3501,5.3501,5.3501,5.3501,5.3501,5.3501,5.3501,5.3501,5.4126,5.4465,5.4465,5.5209,5.5919,5.6562,5.6799,5.7256,5.7881,5.7881,5.7881,3.8212,3.8955,3.996,4.1399,4.2317,0.0,4.4327,4.4759,4.5196,4.6092,4.6827,4.7331,4.7396,4.8381,4.8786,4.7588,4.8388,4.9333,4.9832,4.9905,4.9881,4.9881,4.9881,4.9881,4.9881,4.9357,4.9001,4.9001,4.9001,4.9001,4.9001,4.9001,4.9001,4.9001,4.9001,4.9001,4.9001,4.9001,4.9001,4.9001,4.9001,4.9001,4.9001,4.9001,4.9001,4.9001,4.9001,4.9001,4.9001,4.9001,4.9001,4.9001,4.9001,4.9001,4.9001,4.9001,4.9001,4.9001,4.9001,4.9001,4.9001,4.9001,4.9001,4.9001,4.9001,4.9001,4.9001,4.9001,4.9526,4.9949,4.9373,5.0219,5.0913,4.9712,5.0355,5.1099,5.0625,5.0997,5.1471,5.164,5.2147,5.2486,5.2334,5.1809,5.164,5.2215,5.23,5.2587,5.3399,5.3501,5.3501,5.3501,5.3501,5.3501,5.3501,5.3501,5.3501,5.3501,5.3501,5.3501,5.3501,5.3653,5.3721,5.3721,5.4431,5.4888,5.5023,5.6816,5.7746,5.7881,5.7881,5.7881,3.7803,3.8428,3.9387,4.1213,4.1988,0.0,0.0,4.4662,4.498,4.5778,4.6247,4.655,4.676,4.7338,4.771,4.7403,4.7986,4.87,4.9372,4.9505,4.9543,4.9543,4.9543,4.9543,4.9543,4.9221,4.9001,4.9001,4.9001,4.9001,4.9001,4.9001,4.9001,4.9001,4.9001,4.9001,4.9001,4.9001,4.8987,4.8894,4.897,4.897,4.8894,4.897,4.897,4.8894,4.897,4.894,4.8894,4.897,4.9001,4.9001,4.9001,4.9001,4.9001,4.9001,4.9001,4.9001,4.9001,4.9001,4.9001,4.9001,4.9001,4.9001,4.9001,4.9001,4.9001,4.9001,4.9272,4.9458,4.9103,4.956,4.9932,4.9187,4.956,5.0101,5.0101,5.0388,5.076,5.115,5.12,5.12,5.12,5.0896,5.0777,5.115,5.1522,5.2046,5.2807,5.3264,5.3501,5.3501,5.3501,5.3501,5.3501,5.3501,5.3501,5.3501,5.3501,5.3501,5.3501,5.3501,5.3501,5.3501,5.4211,5.4583,5.4583,5.6444,5.734,5.734,5.734,5.7543,3.7293,3.7873,3.8917,4.0741,0.0,4.2217,0.0,0.0,0.0,4.5628,4.5928,4.6094,4.6229,4.6393,4.6629,4.7102,4.7571,4.796,4.8247,4.8582,4.89,4.9187,4.9221,4.9221,4.9221,4.9086,4.9001,4.9001,4.9001,4.9001,4.9001,4.9001,4.9001,4.9001,4.9001,4.9001,4.9001,4.897,4.8894,4.8818,4.8877,4.8846,4.8738,4.8846,4.8846,4.8738,4.8894,4.8894,4.8818,4.8925,4.8987,4.9001,4.9001,4.9001,4.9001,4.9001,4.9001,4.9001,4.9001,4.9001,4.9001,4.9001,4.9001,4.9001,4.9001,4.9001,4.9001,4.9001,4.9001,4.9001,4.9001,4.9001,4.9001,4.9001,4.9001,4.9171,4.9746,4.9881,5.0067,5.0676,5.0304,4.9915,5.0067,4.9965,4.9965,5.027,5.0828,5.1539,5.2418,5.3112,5.3501,5.3501,5.3501,5.3501,5.3501,5.3501,5.3501,5.3501,5.3501,5.3501,5.3501,5.3501,5.3501,5.3501,5.4076,5.438,5.438,5.5581,5.6308,5.6613,5.6884,5.7256,3.6534,3.7479,0.0,0.0,4.061,4.161,4.1834,0.0,4.3086,4.3199,0.0,4.4377,4.4406,0.0,0.0,4.4624,4.6333,4.7282,4.5976,4.7072,4.8528,4.9813,4.9965,4.9965,4.9965,4.9373,4.9001,4.9001,4.9001,4.9001,4.9001,4.9001,4.9001,4.9001,4.9001,4.9001,4.9001,4.8894,4.8818,4.8818,4.8627,4.8547,4.8547,4.8547,4.8547,4.8547,4.8738,4.8801,4.8818,4.8818,4.8894,4.9001,4.9001,4.9001,4.9001,4.9001,4.9001,4.9001,4.9001,4.9001,4.9001,4.9001,4.9001,4.9001,4.9001,4.9001,4.9001,4.9001,4.9001,4.9001,4.9001,4.9001,4.9001,4.9001,4.9001,4.9018,4.912,4.912,4.9154,4.9238,4.9187,4.9323,4.9982,4.956,4.9576,5.0896,5.1134,5.1709,5.3179,5.345,5.3501,5.3501,5.3501,5.3501,5.3501,5.3501,5.3501,5.3501,5.3501,5.3501,5.3501,5.3501,5.3501,5.3501,5.3585,5.3619,5.3636,5.3788,5.4549,5.5869,5.7171,5.7459,3.5681,3.6429,0.0,0.0,0.0,0.0,4.1332,0.0,4.2062,4.2157,0.0,0.0,0.0,0.0,0.0,0.0,4.5593,4.6159,4.5945,4.6525,4.7437,4.8683,4.8832,4.9001,4.9424,4.9094,4.874,4.8379,4.8689,4.874,4.8362,4.8781,4.9001,4.9001,4.9001,4.897,4.8894,4.8832,4.8675,4.8436,4.8483,4.8452,4.8324,4.8452,4.8452,4.8324,4.8532,4.8564,4.8468,4.8564,4.8658,4.8704,4.8832,4.8925,4.9001,4.9001,4.9001,4.9001,4.9001,4.9001,4.9001,4.9001,4.9001,4.9001,4.9001,4.9001,4.9001,4.9001,4.9001,4.9001,4.9001,4.9001,4.9001,4.9001,4.9001,4.9001,4.9001,4.9001,4.9001,4.9001,4.9001,4.9103,4.9407,4.9204,4.9357,5.0405,5.0947,5.1606,5.2672,5.3213,5.3501,5.3501,5.3501,5.3501,5.3501,5.3501,5.3501,5.3501,5.3501,5.3501,5.3501,5.3501,5.3501,5.3501,5.3501,5.3501,5.3501,5.3923,5.4245,5.4465,5.5953,5.6697,3.4839,0.0,0.0,0.0,0.0,0.0,0.0,0.0,0.0,0.0,4.155,0.0,0.0,0.0,4.3348,4.4108,0.0,4.5039,4.5561,4.5872,4.6462,4.771,4.8058,4.8365,4.8827,4.8832,4.8613,4.8166,4.856,4.8627,4.821,4.8714,4.9001,4.9001,4.9001,4.8956,4.8818,4.8738,4.8532,4.8195,4.8292,4.8292,4.8147,4.8308,4.826,4.8179,4.8324,4.8324,4.8195,4.8356,4.8452,4.8515,4.8595,4.8721,4.8877,4.897,4.9001,4.9001,4.9001,4.9001,4.9001,4.9001,4.9001,4.9001,4.9001,4.9001,4.9001,4.9001,4.9001,4.9001,4.9001,4.9001,4.9001,4.9001,4.9001,4.9001,4.9001,4.9001,4.9001,4.9001,4.9001,4.9001,4.9001,4.9001,4.9255,4.9982,5.0557,5.1251,5.2181,5.2807,5.3264,5.3484,5.3501,5.3501,5.3501,5.3501,5.3501,5.3501,5.3501,5.3501,5.3501,5.3501,5.3501,5.3501,5.3501,5.3501,5.3501,5.4042,5.4025,5.3551,5.5226,5.619,0.0,0.0,0.0,3.654,0.0,0.0,0.0,0.0,4.0177,0.0,0.0,0.0,0.0,0.0,0.0,0.0,4.2957,0.0,0.0,4.4695,4.5844,4.7504,4.8436,4.8844,4.8547,4.8707,4.8801,4.8784,4.8801,4.8863,4.8968,4.8984,4.9001,4.9001,4.9001,4.8956,4.8818,4.8595,4.842,4.8195,4.8082,4.8001,4.8001,4.8001,4.8001,4.8001,4.8147,4.8195,4.8195,4.8195,4.8324,4.8483,4.8292,4.8324,4.8547,4.8877,4.9001,4.9001,4.9001,4.9001,4.9001,4.9001,4.9001,4.9001,4.9001,4.9001,4.9001,4.9001,4.9001,4.9001,4.9001,4.9001,4.9001,4.9001,4.9001,4.9001,4.9001,4.9001,4.9001,4.9001,4.9001,4.9001,4.9001,4.9001,4.9255,4.9982,5.0101,5.0659,5.2114,5.2317,5.2638,5.3416,5.3501,5.3501,5.3501,5.3501,5.3501,5.3501,5.3501,5.3501,5.3501,5.3501,5.3501,5.3501,5.3501,5.3501,5.3501,5.3518,5.3518,5.3551,5.575,5.6393,0.0,0.0,3.5348,3.5927,0.0,0.0,0.0,0.0,0.0,0.0,0.0,0.0,0.0,0.0,0.0,0.0,0.0,4.2676,0.0,4.4497,4.5404,4.6327,4.7328,4.8121,4.8656,4.8627,4.8488,4.8233,4.8562,4.8661,4.8277,4.8748,4.9001,4.9001,4.9001,4.8956,4.8818,4.8738,4.8532,4.8195,4.813,4.8082,4.8001,4.8001,4.8001,4.8001,4.8066,4.8049,4.8049,4.8049,4.8115,4.8179,4.8195,4.8227,4.8324,4.8578,4.8673,4.8673,4.8832,4.8863,4.8894,4.897,4.9001,4.9001,4.9001,4.9001,4.9001,4.9001,4.9001,4.9001,4.9001,4.9001,4.9001,4.9001,4.9001,4.9001,4.9001,4.9001,4.9001,4.9001,4.9001,4.9001,4.9001,4.9001,4.9255,4.9982,5.0084,5.0456,5.1454,5.1589,5.1877,5.2621,5.2706,5.2926,5.345,5.3501,5.3501,5.3501,5.3501,5.3501,5.3501,5.3501,5.3501,5.3501,5.3501,5.3501,5.3501,5.3501,5.3501,5.3534,5.4769,5.548,3.1784,3.2779,0.0,3.4719,3.5355,0.0,3.593,0.0,3.7165,0.0,0.0,0.0,0.0,0.0,0.0,0.0,0.0,0.0,0.0,4.3366,4.4078,4.4958,4.6435,4.7697,4.8497,4.8468,4.8362,4.8219,4.85,4.8599,4.8311,4.8748,4.9001,4.9001,4.9001,4.8956,4.8818,4.8738,4.8532,4.8195,4.8147,4.8082,4.7984,4.7736,4.7752,4.7984,4.7719,4.7769,4.8001,4.8001,4.8001,4.8001,4.8082,4.8147,4.8179,4.842,4.8515,4.8515,4.8658,4.8738,4.8801,4.8894,4.894,4.9001,4.894,4.8925,4.8925,4.8925,4.8925,4.8956,4.9001,4.9001,4.9001,4.9001,4.9001,4.9001,4.9001,4.9001,4.9001,4.9001,4.9001,4.897,4.8956,4.897,4.9171,4.9644,4.9712,4.9982,5.071,5.0811,5.1099,5.1843,5.2147,5.2638,5.3433,5.3501,5.3501,5.3501,5.3501,5.3501,5.3501,5.3501,5.3501,5.3501,5.3501,5.3501,5.3501,5.3501,5.3501,5.3518,5.3991,5.46]}]]